[[{"header":{"parameterUnit":"m.s-1","parameterCategory":1,"la1":30.6,"la2":28.766,"lo1":-90.7593,"lo2":-88.6598,"dy":0.0162,"dx":0.0183,"nx":116,"ny":114,"refTime":"2023-04-22T18:00:00:Z","depth":0,"parameterNumber":2,"parameterNumberName":"U-component_of_WINDS"},"data":[0.0,0.0,0.0,0.0,0.0,0.0,0.0,0.0,0.0,0.0,0.0,0.0,0.0,0.0,0.0,0.0,0.0,0.0,0.0,0.0,0.0,0.0,0.0,0.0,0.0,0.0,0.0,0.0,0.0,0.0,0.0,0.0,0.0,0.0,0.0,0.0,0.0,0.0,0.0,0.0,0.0,0.0,0.0,0.0,0.0,0.0,0.0,0.0,0.0,0.0,0.0,0.0,0.0,0.0,0.0,0.0,0.0,0.0,0.0,0.0,0.0,0.0,0.0,0.0,0.0,0.0,0.0,0.0,0.0,0.0,0.0,0.0,0.0,0.0,0.0,0.0,0.0,0.0,0.0,0.0,0.0,0.0,0.0,0.0,0.0,0.0,0.0,0.0,0.0,0.0,0.0,0.0,0.0,0.0,0.0,0.0,0.0,0.0,0.0,0.0,0.0,0.0,0.0,0.0,0.0,0.0,0.0,0.0,0.0,0.0,0.0,0.0,0.0,0.0,0.0,0.0,0.0,0.0,0.0,0.0,0.0,0.0,0.0,0.0,0.0,0.0,0.0,0.0,0.0,0.0,0.0,0.0,0.0,0.0,0.0,0.0,0.0,0.0,0.0,0.0,0.0,0.0,0.0,0.0,0.0,0.0,0.0,0.0,0.0,0.0,0.0,0.0,0.0,0.0,0.0,0.0,0.0,0.0,0.0,0.0,0.0,0.0,0.0,0.0,0.0,0.0,0.0,0.0,0.0,0.0,0.0,0.0,0.0,0.0,0.0,0.0,0.0,0.0,0.0,0.0,0.0,0.0,0.0,0.0,0.0,0.0,0.0,0.0,0.0,0.0,0.0,0.0,0.0,0.0,0.0,0.0,0.0,0.0,0.0,0.0,0.0,0.0,0.0,0.0,0.0,0.0,0.0,0.0,0.0,0.0,0.0,0.0,0.0,0.0,0.0,0.0,0.0,0.0,0.0,0.0,0.0,0.0,0.0,0.0,0.0,0.0,0.0,0.0,0.0,0.0,0.0,0.0,0.0,0.0,0.0,0.0,0.0,0.0,0.0,0.0,0.0,0.0,0.0,0.0,0.0,0.0,0.0,0.0,0.0,0.0,0.0,0.0,0.0,0.0,0.0,0.0,0.0,0.0,0.0,0.0,0.0,0.0,0.0,0.0,0.0,0.0,0.0,0.0,0.0,0.0,0.0,0.0,0.0,0.0,0.0,0.0,0.0,0.0,0.0,0.0,0.0,0.0,0.0,0.0,0.0,0.0,0.0,0.0,0.0,0.0,0.0,0.0,0.0,0.0,0.0,0.0,0.0,0.0,0.0,0.0,0.0,0.0,0.0,0.0,0.0,0.0,0.0,0.0,0.0,0.0,0.0,0.0,0.0,0.0,0.0,0.0,0.0,0.0,0.0,0.0,0.0,0.0,0.0,0.0,0.0,0.0,0.0,0.0,0.0,0.0,0.0,0.0,0.0,0.0,0.0,0.0,0.0,0.0,0.0,0.0,0.0,0.0,0.0,0.0,0.0,0.0,0.0,0.0,0.0,0.0,0.0,0.0,0.0,0.0,0.0,0.0,0.0,0.0,0.0,0.0,0.0,0.0,0.0,0.0,0.0,0.0,0.0,0.0,0.0,0.0,0.0,0.0,0.0,0.0,0.0,0.0,0.0,0.0,0.0,0.0,0.0,0.0,0.0,0.0,0.0,0.0,0.0,0.0,0.0,0.0,0.0,0.0,0.0,0.0,0.0,0.0,0.0,0.0,0.0,0.0,0.0,0.0,0.0,0.0,0.0,0.0,0.0,0.0,0.0,0.0,0.0,0.0,0.0,0.0,0.0,0.0,0.0,0.0,0.0,0.0,0.0,0.0,0.0,0.0,0.0,0.0,0.0,0.0,0.0,0.0,0.0,0.0,0.0,0.0,0.0,0.0,0.0,0.0,0.0,0.0,0.0,0.0,0.0,0.0,0.0,0.0,0.0,0.0,0.0,0.0,0.0,0.0,0.0,0.0,0.0,0.0,0.0,0.0,0.0,0.0,0.0,0.0,0.0,0.0,0.0,0.0,0.0,0.0,0.0,0.0,0.0,0.0,0.0,0.0,0.0,0.0,0.0,0.0,0.0,0.0,0.0,0.0,0.0,0.0,0.0,0.0,0.0,0.0,0.0,0.0,0.0,0.0,0.0,0.0,0.0,0.0,0.0,0.0,0.0,0.0,0.0,0.0,0.0,0.0,0.0,0.0,0.0,0.0,0.0,0.0,0.0,0.0,0.0,0.0,0.0,0.0,0.0,0.0,0.0,0.0,0.0,0.0,0.0,0.0,0.0,0.0,0.0,0.0,0.0,0.0,0.0,0.0,0.0,0.0,0.0,0.0,0.0,0.0,0.0,0.0,0.0,0.0,0.0,0.0,0.0,0.0,0.0,0.0,0.0,0.0,0.0,0.0,0.0,0.0,0.0,0.0,0.0,0.0,0.0,0.0,0.0,0.0,0.0,0.0,0.0,0.0,0.0,0.0,0.0,0.0,0.0,0.0,0.0,0.0,0.0,0.0,0.0,0.0,0.0,0.0,0.0,0.0,0.0,0.0,0.0,0.0,0.0,0.0,0.0,0.0,0.0,0.0,0.0,0.0,0.0,0.0,0.0,0.0,0.0,0.0,0.0,0.0,0.0,0.0,0.0,0.0,0.0,0.0,0.0,0.0,0.0,0.0,0.0,0.0,0.0,0.0,0.0,0.0,0.0,0.0,0.0,0.0,0.0,0.0,0.0,0.0,0.0,0.0,0.0,0.0,0.0,0.0,0.0,0.0,0.0,0.0,0.0,0.0,0.0,0.0,0.0,0.0,0.0,0.0,0.0,0.0,0.0,0.0,0.0,0.0,0.0,0.0,0.0,0.0,0.0,0.0,0.0,0.0,0.0,0.0,0.0,0.0,0.0,0.0,0.0,0.0,0.0,0.0,0.0,0.0,0.0,0.0,0.0,0.0,0.0,0.0,0.0,0.0,0.0,0.0,0.0,0.0,0.0,0.0,0.0,0.0,0.0,0.0,0.0,0.0,0.0,0.0,0.0,0.0,0.0,0.0,0.0,0.0,0.0,0.0,0.0,0.0,0.0,0.0,0.0,0.0,0.0,0.0,0.0,0.0,0.0,0.0,0.0,0.0,0.0,0.0,0.0,0.0,0.0,0.0,0.0,0.0,0.0,0.0,0.0,0.0,0.0,0.0,0.0,0.0,0.0,0.0,0.0,0.0,0.0,0.0,0.0,0.0,0.0,0.0,0.0,0.0,0.0,0.0,0.0,0.0,0.0,0.0,0.0,0.0,0.0,0.0,0.0,0.0,0.0,0.0,0.0,0.0,0.0,0.0,0.0,0.0,0.0,0.0,0.0,0.0,0.0,0.0,0.0,0.0,0.0,0.0,0.0,0.0,0.0,0.0,0.0,0.0,0.0,0.0,0.0,0.0,0.0,0.0,0.0,0.0,0.0,0.0,0.0,0.0,0.0,0.0,0.0,0.0,0.0,0.0,0.0,0.0,0.0,0.0,0.0,0.0,0.0,0.0,0.0,0.0,0.0,0.0,0.0,0.0,0.0,0.0,0.0,0.0,0.0,0.0,0.0,0.0,0.0,0.0,0.0,0.0,0.0,0.0,0.0,0.0,0.0,0.0,0.0,0.0,0.0,0.0,0.0,0.0,0.0,0.0,0.0,0.0,0.0,0.0,0.0,0.0,0.0,0.0,0.0,0.0,0.0,0.0,0.0,0.0,0.0,0.0,0.0,0.0,0.0,0.0,0.0,0.0,0.0,0.0,0.0,0.0,0.0,0.0,0.0,0.0,0.0,0.0,0.0,0.0,0.0,0.0,0.0,0.0,0.0,0.0,0.0,0.0,0.0,0.0,0.0,0.0,0.0,0.0,0.0,0.0,0.0,0.0,0.0,0.0,0.0,0.0,0.0,0.0,0.0,0.0,0.0,0.0,0.0,0.0,0.0,0.0,0.0,0.0,0.0,0.0,0.0,0.0,0.0,0.0,0.0,0.0,0.0,0.0,0.0,0.0,0.0,0.0,0.0,0.0,0.0,0.0,0.0,0.0,0.0,0.0,0.0,0.0,0.0,0.0,0.0,0.0,0.0,0.0,0.0,0.0,0.0,0.0,0.0,0.0,0.0,0.0,0.0,0.0,0.0,0.0,0.0,0.0,0.0,0.0,0.0,0.0,0.0,0.0,0.0,0.0,0.0,0.0,0.0,0.0,0.0,0.0,0.0,0.0,0.0,0.0,0.0,0.0,0.0,0.0,0.0,0.0,0.0,0.0,0.0,0.0,0.0,0.0,0.0,0.0,0.0,0.0,0.0,0.0,0.0,0.0,0.0,0.0,0.0,0.0,0.0,0.0,0.0,0.0,0.0,0.0,0.0,0.0,0.0,0.0,0.0,0.0,0.0,0.0,0.0,0.0,0.0,0.0,0.0,0.0,0.0,0.0,0.0,0.0,0.0,0.0,0.0,0.0,0.0,0.0,0.0,0.0,0.0,0.0,0.0,0.0,0.0,0.0,0.0,0.0,0.0,0.0,0.0,0.0,0.0,0.0,0.0,0.0,0.0,0.0,0.0,0.0,0.0,0.0,0.0,0.0,0.0,0.0,0.0,0.0,0.0,0.0,0.0,0.0,0.0,0.0,0.0,0.0,0.0,0.0,0.0,0.0,0.0,0.0,0.0,0.0,0.0,0.0,0.0,0.0,0.0,0.0,0.0,0.0,0.0,0.0,0.0,0.0,0.0,0.0,0.0,0.0,0.0,0.0,0.0,0.0,0.0,0.0,0.0,0.0,0.0,0.0,0.0,0.0,0.0,0.0,0.0,0.0,0.0,0.0,0.0,0.0,0.0,0.0,0.0,0.0,0.0,0.0,0.0,0.0,0.0,0.0,0.0,0.0,0.0,0.0,0.0,0.0,0.0,0.0,0.0,0.0,0.0,0.0,0.0,0.0,0.0,0.0,0.0,0.0,0.0,0.0,0.0,0.0,0.0,0.0,0.0,0.0,0.0,0.0,0.0,0.0,0.0,0.0,0.0,0.0,0.0,0.0,0.0,0.0,0.0,0.0,0.0,0.0,0.0,0.0,0.0,0.0,0.0,0.0,0.0,0.0,0.0,0.0,0.0,0.0,0.0,0.0,0.0,0.0,0.0,0.0,0.0,0.0,0.0,0.0,0.0,0.0,0.0,0.0,0.0,0.0,0.0,0.0,0.0,0.0,0.0,0.0,0.0,0.0,0.0,0.0,0.0,0.0,0.0,0.0,0.0,0.0,0.0,0.0,0.0,0.0,0.0,0.0,0.0,0.0,0.0,0.0,0.0,0.0,0.0,0.0,0.0,0.0,0.0,0.0,0.0,0.0,0.0,0.0,0.0,0.0,0.0,0.0,0.0,0.0,0.0,0.0,0.0,0.0,0.0,0.0,0.0,0.0,0.0,0.0,0.0,0.0,0.0,0.0,0.0,0.0,0.0,0.0,0.0,0.0,0.0,0.0,0.0,0.0,0.0,0.0,0.0,0.0,0.0,0.0,0.0,0.0,0.0,0.0,0.0,0.0,0.0,0.0,0.0,0.0,0.0,0.0,0.0,0.0,0.0,0.0,0.0,0.0,0.0,0.0,0.0,0.0,0.0,0.0,0.0,0.0,0.0,0.0,0.0,0.0,0.0,0.0,0.0,0.0,0.0,0.0,0.0,0.0,0.0,0.0,0.0,0.0,0.0,0.0,0.0,0.0,0.0,0.0,0.0,0.0,0.0,0.0,0.0,0.0,0.0,0.0,0.0,0.0,0.0,0.0,0.0,0.0,0.0,0.0,0.0,0.0,0.0,0.0,0.0,0.0,0.0,0.0,0.0,0.0,0.0,0.0,0.0,0.0,0.0,0.0,0.0,0.0,0.0,0.0,0.0,0.0,0.0,0.0,0.0,0.0,0.0,0.0,0.0,0.0,0.0,0.0,0.0,0.0,0.0,0.0,0.0,0.0,0.0,0.0,0.0,0.0,0.0,0.0,0.0,0.0,0.0,0.0,0.0,0.0,0.0,0.0,0.0,0.0,0.0,0.0,0.0,0.0,0.0,0.0,2.2712,0.0,0.0,0.0,0.0,0.0,0.0,0.0,0.0,0.0,0.0,0.0,0.0,0.0,0.0,0.0,0.0,0.0,0.0,0.0,0.0,0.0,0.0,0.0,0.0,0.0,0.0,0.0,0.0,0.0,0.0,0.0,0.0,0.0,0.0,0.0,0.0,0.0,0.0,1.5581,1.5581,1.5752,1.607,1.7118,1.765,1.7766,0.0,0.0,0.0,0.0,0.0,0.0,0.0,0.0,0.0,0.0,0.0,0.0,0.0,0.0,0.0,0.0,0.0,0.0,0.0,0.0,0.0,0.0,0.0,0.0,0.0,0.0,0.0,0.0,0.0,0.0,0.0,0.0,0.0,0.0,0.0,0.0,0.0,0.0,0.0,0.0,0.0,0.0,0.0,0.0,0.0,0.0,0.0,0.0,0.0,0.0,0.0,0.0,0.0,0.0,0.0,0.0,0.0,0.0,0.0,0.0,0.0,0.0,0.0,0.0,0.0,0.0,0.0,0.0,0.0,0.0,0.0,2.3066,0.0,0.0,0.0,0.0,0.0,0.0,0.0,0.0,0.0,0.0,0.0,0.0,0.0,0.0,0.0,0.0,0.0,0.0,0.0,0.0,0.0,0.0,0.0,1.3988,1.4188,1.4263,1.4456,1.4603,0.0,0.0,0.0,0.0,0.0,0.0,1.5391,1.5444,1.5591,1.5808,1.6008,1.6313,1.6685,1.6739,1.7081,1.7619,1.6474,0.0,0.0,0.0,0.0,0.0,0.0,0.0,0.0,0.0,0.0,0.0,0.0,0.0,0.0,0.0,0.0,0.0,0.0,0.0,0.0,0.0,0.0,0.0,0.0,0.0,0.0,0.0,0.0,0.0,0.0,0.0,0.0,0.0,0.0,0.0,0.0,0.0,0.0,0.0,0.0,0.0,0.0,0.0,0.0,0.0,0.0,0.0,0.0,0.0,0.0,0.0,0.0,0.0,0.0,0.0,0.0,0.0,0.0,0.0,0.0,0.0,0.0,0.0,2.5065,2.6062,2.6256,2.7334,2.7929,2.7937,2.528,2.4221,2.4339,0.0,0.0,0.0,0.0,0.0,0.0,0.0,0.0,0.0,0.0,0.0,0.0,0.0,0.0,0.0,0.0,0.0,0.0,0.0,0.0,0.0,0.0,1.4282,1.4563,1.4874,1.4905,1.4932,1.4932,0.0,0.0,0.0,0.0,0.0,1.5391,1.5621,1.5768,1.5808,1.6847,1.7649,1.8237,1.845,1.8747,1.9063,1.734,1.6874,1.7301,0.0,0.0,0.0,0.0,0.0,0.0,0.0,0.0,0.0,0.0,0.0,0.0,0.0,0.0,0.0,0.0,0.0,0.0,0.0,0.0,0.0,0.0,0.0,0.0,0.0,0.0,0.0,0.0,0.0,0.0,0.0,0.0,0.0,0.0,0.0,0.0,0.0,0.0,0.0,0.0,0.0,2.083,2.083,0.0,0.0,0.0,0.0,0.0,0.0,0.0,0.0,0.0,0.0,0.0,0.0,0.0,0.0,2.384,2.4423,2.4756,2.4799,2.5843,2.6274,2.6201,2.6105,2.6457,2.7111,2.5946,0.0,2.6523,2.5723,0.0,0.0,0.0,0.0,0.0,0.0,0.0,0.0,0.0,0.0,0.0,0.0,0.0,0.0,0.0,0.0,0.0,0.0,0.0,0.0,0.0,1.4861,1.5288,1.5444,1.6219,1.6406,1.5762,1.619,0.0,0.0,0.0,1.5608,1.5608,1.5741,1.6128,1.682,1.8036,1.8891,1.945,1.9773,2.0067,2.0307,1.9533,1.8677,1.7782,1.7274,0.0,0.0,0.0,0.0,0.0,0.0,0.0,0.0,0.0,0.0,0.0,0.0,0.0,0.0,0.0,0.0,0.0,0.0,0.0,0.0,0.0,0.0,0.0,0.0,0.0,0.0,0.0,0.0,0.0,0.0,0.0,0.0,0.0,0.0,0.0,0.0,0.0,0.0,0.0,2.0377,2.0345,2.0197,2.088,2.1036,0.0,0.0,0.0,0.0,0.0,0.0,0.0,0.0,0.0,2.4044,2.3975,2.4162,2.4645,2.4812,2.5028,2.5351,2.6951,2.7798,2.7843,2.8511,2.9008,2.9311,2.8673,2.8363,2.8164,2.5846,2.4212,2.3099,0.0,0.0,0.0,0.0,0.0,2.1961,0.0,0.0,0.0,0.0,0.0,0.0,0.0,0.0,0.0,0.0,0.0,0.0,1.5021,1.5848,1.6435,1.6582,1.7609,1.7836,1.6926,1.7127,1.6887,1.6061,1.5888,1.5808,1.5808,1.6168,1.6982,1.8263,1.9533,2.0494,2.1149,2.1443,2.1737,2.2004,2.1857,2.0735,1.8876,1.821,1.7622,1.7046,0.0,0.0,0.0,0.0,0.0,0.0,0.0,0.0,0.0,0.0,0.0,0.0,0.0,0.0,0.0,0.0,0.0,0.0,0.0,0.0,0.0,0.0,0.0,0.0,0.0,0.0,0.0,0.0,0.0,0.0,0.0,0.0,0.0,0.0,0.0,0.0,0.0,1.9862,2.0075,1.9707,2.0638,2.0867,0.0,0.0,0.0,0.0,0.0,0.0,2.3567,2.4359,2.4922,2.5331,2.5264,2.5419,2.5815,2.5646,2.5842,2.6398,2.7967,2.8806,2.9095,2.9946,3.0353,3.0336,2.9906,2.93,2.8487,2.6114,2.4351,2.3092,2.2535,2.2156,2.1954,2.1962,2.21,2.2303,0.0,0.0,0.0,0.0,0.0,0.0,0.0,0.0,0.0,0.0,0.0,1.5021,1.6446,1.7369,1.8129,1.8689,1.881,1.8703,1.8397,1.7127,1.6458,1.6647,1.6102,1.5808,1.5808,1.7169,1.8596,2.0064,2.1518,2.2726,2.3629,2.3888,2.4182,2.4399,2.3875,2.2827,2.1301,1.9573,1.8998,1.9067,1.7086,0.0,0.0,0.0,0.0,0.0,0.0,0.0,0.0,0.0,0.0,0.0,0.0,0.0,0.0,0.0,0.0,0.0,0.0,0.0,0.0,0.0,0.0,0.0,0.0,0.0,0.0,0.0,0.0,0.0,0.0,0.0,0.0,0.0,0.0,0.0,0.0,0.0,0.0,1.9379,2.1475,0.0,0.0,0.0,0.0,2.2703,2.4395,2.5351,2.5109,2.6018,2.6375,2.5972,2.6564,2.7174,2.7767,2.8066,2.8364,2.871,2.8538,2.8567,2.8885,2.8321,2.8079,2.8064,2.7777,2.7275,2.67,2.7214,2.6759,2.5591,2.4434,2.3972,2.3861,2.2959,2.2626,2.2505,0.0,0.0,0.0,0.0,0.0,0.0,0.0,0.0,1.4381,1.4487,1.5337,1.6273,1.7168,1.8918,2.0187,2.0619,2.1167,2.1096,2.0227,1.8798,1.7822,1.7556,1.6633,1.6567,1.7515,1.8756,2.0224,2.1924,2.3407,2.4526,2.5222,2.5478,2.5665,2.5758,2.5545,2.5101,2.4285,2.2084,2.0575,1.9546,1.8424,1.7515,0.0,0.0,0.0,0.0,0.0,0.0,0.0,0.0,0.0,0.0,0.0,0.0,0.0,0.0,0.0,0.0,0.0,0.0,0.0,0.0,0.0,0.0,0.0,0.0,0.0,0.0,0.0,0.0,0.0,0.0,0.0,0.0,0.0,0.0,0.0,0.0,0.0,2.2008,2.3432,0.0,0.0,2.3443,2.4023,2.4269,2.5282,2.6117,2.6663,2.7371,2.8007,2.85,2.8763,2.9086,2.9486,2.9617,2.9657,2.9555,2.9412,2.9412,2.9555,2.9281,2.9061,2.8856,2.8754,2.8344,2.7723,2.777,2.6586,2.4686,2.4024,2.3519,2.3152,2.3248,2.3111,2.2946,0.0,0.0,0.0,0.0,0.0,0.0,0.0,0.0,1.4541,1.4656,1.6032,1.7341,1.8237,2.0441,2.2058,2.2586,2.28,2.2519,2.1603,1.9613,1.8276,1.7876,1.7235,1.7569,1.9052,2.0521,2.2084,2.379,2.5037,2.5972,2.6586,2.6881,2.7081,2.7134,2.7134,2.6974,2.6613,2.481,2.2926,2.1029,1.9733,1.8918,1.8331,0.0,0.0,0.0,0.0,0.0,0.0,0.0,0.0,0.0,0.0,0.0,0.0,0.0,0.0,0.0,0.0,0.0,0.0,0.0,0.0,0.0,0.0,0.0,0.0,0.0,0.0,0.0,0.0,0.0,0.0,0.0,0.0,0.0,0.0,0.0,2.3545,2.4174,2.5491,2.6082,2.5335,2.5418,2.5725,2.6164,2.6896,2.7642,2.8441,2.9061,2.969,3.0334,3.0507,3.0668,3.0873,3.0771,3.061,3.0349,3.017,3.0068,3.0068,2.995,2.9789,2.9569,2.935,2.8973,2.8511,2.8087,2.6903,2.533,2.4788,2.4247,2.3776,2.413,2.4115,2.3969,0.0,0.0,0.0,0.0,0.0,0.0,0.0,1.4335,1.4643,1.4959,1.6551,1.8196,1.9679,2.1931,2.3692,2.4559,2.3594,2.28,2.2472,1.9412,1.7648,1.7648,1.7916,1.8768,2.0277,2.2325,2.4088,2.5585,2.6413,2.7175,2.7749,2.8072,2.8379,2.8617,2.8631,2.8457,2.8179,2.7617,2.6051,2.3723,2.1002,2.0414,2.0855,0.0,0.0,0.0,0.0,0.0,0.0,0.0,0.0,0.0,0.0,0.0,0.0,0.0,0.0,0.0,0.0,0.0,0.0,0.0,0.0,0.0,0.0,0.0,0.0,0.0,0.0,0.0,0.0,0.0,0.0,0.0,0.0,0.0,2.1773,2.3966,2.5588,2.5646,2.7627,2.8359,2.6822,2.7765,2.8511,2.8511,2.9412,3.0126,3.0434,3.1007,3.1344,3.1359,3.1651,3.1812,3.1812,3.149,3.1329,3.1315,3.0727,3.0419,3.0405,3.0082,2.9921,2.9877,2.9232,2.8915,2.8856,2.8204,2.7941,2.7838,2.6874,2.6339,2.5968,2.5661,2.5529,2.5486,0.0,0.0,0.0,0.0,0.0,0.0,1.4103,1.4544,1.4972,1.5267,1.7408,1.9388,2.0615,2.306,2.4863,2.5569,2.4516,2.3621,2.3078,2.021,1.8557,1.8557,1.9452,2.0842,2.2752,2.4182,2.5625,2.7094,2.7776,2.831,2.8628,2.8751,2.8845,2.8895,2.9152,2.9072,2.8791,2.8845,2.8257,2.7001,2.395,2.2331,2.155,0.0,0.0,0.0,0.0,0.0,0.0,0.0,0.0,0.0,0.0,0.0,0.0,0.0,0.0,0.0,0.0,0.0,0.0,0.0,0.0,0.0,0.0,0.0,0.0,0.0,0.0,0.0,0.0,0.0,0.0,0.0,0.0,2.3437,2.4316,2.5809,2.7378,2.8886,2.9983,3.0568,3.0364,3.0671,3.0876,3.0876,3.1344,3.1666,3.1797,3.1915,3.212,3.2368,3.2222,3.2149,3.2149,3.2061,3.19,3.1666,3.1242,3.1051,3.1037,3.0715,3.0437,3.0229,2.9818,2.9496,2.9247,2.8798,2.8467,2.8189,2.7495,2.7013,2.6705,2.6617,2.6442,2.6193,0.0,0.0,0.0,0.0,0.0,0.0,1.4103,1.4611,1.5093,1.5351,1.7929,2.0134,2.1176,2.3447,2.513,2.5757,2.4356,2.3084,2.2264,2.0032,1.8935,1.9423,2.1082,2.2853,2.4686,2.5998,2.7161,2.8257,2.8738,2.9125,2.9362,2.9659,2.9788,2.9922,3.014,3.0114,2.9909,2.9873,2.9579,2.8965,2.6841,2.5264,2.4004,2.1917,2.1002,2.0722,1.9492,1.9239,1.925,1.8022,0.0,0.0,0.0,0.0,0.0,0.0,0.0,0.0,0.0,0.0,0.0,0.0,0.0,0.0,0.0,0.0,0.0,0.0,0.0,0.0,0.0,0.0,0.0,0.0,2.3651,2.5419,2.7264,2.7983,2.8963,3.0565,3.1498,3.2004,3.1971,3.2338,3.2426,3.1985,3.2349,3.2526,3.2381,3.219,3.2219,3.2454,3.2089,3.1856,3.1856,3.196,3.1932,3.17,3.1449,3.1315,3.13,3.0936,3.0656,0.0,3.0053,2.9596,2.9116,2.8993,2.8681,0.0,0.0,0.0,0.0,0.0,2.6705,2.6266,0.0,0.0,0.0,0.0,0.0,0.0,1.4103,1.4611,1.5106,1.5404,1.8183,2.0454,2.1341,2.322,2.4602,2.4986,2.3395,2.1905,2.08,1.9462,1.9289,2.061,2.2825,2.4719,2.6265,2.767,2.8617,2.9148,2.9513,2.9806,3.0074,3.0635,3.1009,3.1176,3.1263,3.1236,3.1142,3.0748,3.0314,2.9967,2.9402,2.8444,2.7015,2.4312,2.371,2.4008,2.2098,2.1109,2.0557,1.961,0.0,0.0,0.0,0.0,0.0,0.0,0.0,0.0,0.0,0.0,0.0,0.0,0.0,0.0,0.0,0.0,0.0,0.0,0.0,0.0,0.0,0.0,0.0,0.0,2.5531,2.727,2.999,3.0116,3.0299,3.1268,3.2336,3.2782,3.2323,3.3085,3.3268,3.2323,3.269,3.2822,3.2463,0.0,0.0,0.0,0.0,3.1357,3.1315,3.146,3.1552,3.1552,3.1367,3.1233,3.1175,3.0854,3.0534,3.027,2.9934,2.9453,2.883,2.8815,2.8578,2.8207,2.8371,2.8204,2.7838,2.7305,2.6735,0.0,0.0,0.0,0.0,0.0,0.0,0.0,1.4103,1.4611,1.5173,1.5648,1.7956,1.9773,2.0384,2.2111,2.2977,2.2346,2.2147,2.179,2.1086,2.0391,2.1045,2.3319,2.4659,2.6215,2.8056,2.9072,2.9753,3.0145,3.0635,3.0915,3.0982,3.133,3.1396,3.1189,3.1476,3.1316,3.0902,3.131,3.1102,3.0608,3.0501,2.9179,2.7188,2.6145,2.5224,2.4399,2.3567,2.3487,2.3532,2.2171,2.1918,2.1911,2.0144,1.9076,0.0,0.0,0.0,0.0,0.0,0.0,0.0,0.0,0.0,0.0,0.0,0.0,0.0,0.0,0.0,0.0,0.0,0.0,0.0,2.5378,2.7215,2.8955,3.0487,3.0837,3.1194,3.1917,3.2453,3.271,3.2617,3.3028,3.307,3.2645,3.271,3.2629,3.2289,3.2183,0.0,3.1842,3.1738,3.1581,3.1285,3.1348,3.1364,3.1364,0.0,0.0,3.0565,3.0241,2.993,2.9675,2.9309,2.9135,2.9065,2.8497,2.8055,2.7762,2.824,2.8204,2.7897,2.778,2.7648,2.7531,0.0,0.0,0.0,0.0,0.0,0.0,1.3913,1.4369,1.4668,1.4484,1.6309,1.764,1.7617,1.8741,1.9274,1.8746,1.8096,1.787,1.8174,1.8315,1.9395,2.1597,2.296,2.4382,2.5831,2.6612,2.7061,2.7192,2.8009,2.8224,2.7972,2.8535,2.874,2.862,2.8752,2.8644,2.8343,2.9677,2.9953,2.9551,3.0735,3.0306,2.8781,2.7989,2.7161,2.6319,2.577,2.5424,2.5144,2.4102,2.3661,2.3313,2.1977,2.0949,2.007,0.0,0.0,0.0,0.0,0.0,0.0,0.0,0.0,0.0,0.0,0.0,0.0,0.0,0.0,2.143,0.0,0.0,2.5703,2.7469,2.8831,3.006,3.1089,3.1356,3.1584,3.1904,3.2465,3.2636,3.225,3.2936,3.3016,3.1997,3.2341,3.2301,3.1706,3.1679,3.1638,3.1443,3.1354,3.1218,3.1067,3.1142,3.1194,3.1194,3.1003,3.0827,3.0615,3.0153,2.9775,2.9453,2.8991,2.8627,2.8319,2.7772,2.7576,2.7619,2.7947,2.7845,2.7535,2.7535,2.7587,2.7571,0.0,0.0,0.0,0.0,0.0,0.0,0.0,1.3978,1.4046,1.2984,1.4452,1.5381,1.4745,1.5298,1.5677,1.5574,1.4249,1.4062,1.5525,1.6294,1.7549,1.9465,2.091,2.217,2.3128,2.3714,2.4053,2.4039,2.5096,2.5356,2.491,2.5787,2.6132,2.6079,2.6079,2.5961,2.5895,2.7565,2.8222,2.839,3.0353,3.0874,3.0493,2.9673,2.8978,2.8366,2.771,2.6867,2.6011,2.5529,2.4756,2.3977,2.3482,2.276,2.1863,2.0588,2.0197,0.0,0.0,0.0,0.0,0.0,0.0,0.0,0.0,0.0,2.0695,2.1456,2.2458,2.3572,2.4946,2.6199,2.7589,2.9446,3.0274,3.1015,3.1778,3.1831,3.1805,3.1805,3.2286,3.2395,3.1738,3.264,3.2667,3.139,3.1908,3.1966,3.1231,3.1281,3.1248,3.1135,3.0985,3.0849,3.0795,3.0912,3.0945,3.0976,3.0787,3.0659,3.059,3.009,2.9631,2.9285,2.8701,2.8067,2.7417,2.7142,2.7136,2.7358,2.7451,2.7298,2.7076,2.7231,2.7308,2.7326,0.0,0.0,0.0,0.0,0.0,0.0,0.0,0.0,1.3669,1.2072,1.3433,1.4275,1.3567,1.4001,1.433,1.4309,1.3666,1.4253,1.6658,1.7402,1.8629,2.0719,2.1382,2.2204,2.333,2.3612,2.3944,2.4267,2.5141,2.5577,2.5527,2.6376,2.663,2.6375,2.6375,2.6197,2.5983,2.6231,2.7263,2.8728,2.9007,2.9937,3.1089,3.0728,3.0074,2.9219,2.8393,2.7349,2.6333,2.6266,2.5703,2.4954,2.4887,2.4409,2.3621,2.2164,0.0,1.9983,1.901,1.8637,1.8651,1.9332,1.9599,2.0241,0.0,0.0,2.3292,2.469,2.5491,2.6239,2.7175,2.8337,2.9472,3.0488,3.1356,3.2038,3.2447,3.2225,3.2051,3.2051,3.1898,3.1799,3.1724,3.1846,3.1833,3.1671,3.1745,3.1718,3.1624,3.1631,3.151,3.1189,3.1156,3.1049,3.0795,3.0593,3.0491,3.0491,3.0155,2.9904,2.9649,2.9595,2.9259,2.8681,2.818,2.7744,2.7297,2.7105,2.6834,2.6544,2.6544,2.6531,2.6569,2.7278,2.7603,2.7653,0.0,0.0,0.0,0.0,0.0,0.0,0.0,0.0,0.0,1.1703,1.1554,1.1382,1.097,1.0698,1.0542,1.0542,1.0822,1.1729,1.3505,1.4597,1.5881,1.7441,1.8038,1.8713,1.9624,1.9875,2.015,2.0349,2.1148,2.1354,2.1096,2.1742,2.1992,2.187,2.224,2.2286,2.2138,2.3574,2.4595,2.5307,2.64,2.7193,2.7664,2.7152,2.6897,2.6846,2.7256,2.6627,0.0,2.5237,2.4877,2.4596,2.477,2.4302,2.3434,2.2158,2.1422,0.0,1.989,1.957,0.0,0.0,2.1216,2.2418,2.3567,2.4502,2.5384,2.6333,2.7415,2.8404,2.9155,2.897,2.8901,0.0,3.0005,2.9882,2.8773,2.9566,2.9706,2.8081,2.7914,2.8915,3.146,3.1824,3.1784,3.1436,3.157,3.1564,3.1169,3.1537,3.153,3.1189,3.1396,3.1423,3.1303,3.1009,3.0782,3.0608,3.0314,3.002,2.9726,2.9379,2.8804,2.8043,2.7715,2.7324,2.6974,2.6759,2.6544,2.6386,2.6386,2.6386,2.6426,2.6781,2.7057,2.7254,0.0,0.0,0.0,0.0,0.0,0.0,0.0,0.0,0.0,0.0,1.0347,0.9841,0.926,0.8483,0.7988,0.7988,0.8825,0.9818,1.0941,1.2241,1.3486,1.4611,1.5316,1.5911,1.6539,1.6897,1.7172,1.7258,1.8038,1.817,1.7811,1.8283,1.8522,1.8574,1.8953,1.9068,1.904,2.0984,2.2059,2.2494,2.405,2.4806,2.4949,2.4176,2.3823,2.3933,2.4819,2.4571,2.3707,2.3173,2.2898,2.2811,2.3255,2.2968,2.23,2.1483,2.1237,2.11,2.0508,0.0,0.0,2.1496,2.3121,2.4673,2.517,2.6306,2.7264,2.7409,2.8758,2.9798,2.9169,2.8593,2.8236,2.8138,2.8173,2.7683,2.6248,2.721,2.7311,2.5206,2.492,2.6173,2.9384,2.9991,3.0058,2.9646,2.9858,2.9795,2.9343,2.9744,2.9871,2.9621,3.0441,3.0843,3.0843,3.1087,3.1076,3.0795,3.0547,3.0212,2.978,2.9148,2.8564,2.7923,2.751,2.7148,2.6921,2.6547,2.6386,2.6386,2.6386,2.6386,2.6386,2.6386,2.6584,2.6795,0.0,0.0,0.0,0.0,0.0,0.0,0.0,0.0,0.0,0.0,0.0,0.0,0.0,0.8483,0.7988,0.7988,0.873,0.9573,1.0453,1.1647,1.2786,1.3788,1.4597,1.5201,1.5642,1.609,1.6456,1.6696,1.7471,1.7811,1.7811,1.8225,1.8417,1.841,1.8297,1.8223,1.8266,1.8862,2.0158,2.1849,2.2297,2.3382,2.4592,2.338,2.2244,2.1263,2.1056,2.074,2.0381,2.0063,1.9554,1.9227,2.0125,2.0393,2.0368,2.0331,2.0291,2.0304,2.0588,0.0,2.2285,2.3728,2.5211,2.6613,2.7804,2.8781,2.9086,2.7937,2.9521,3.0016,2.6305,2.7287,2.8124,2.668,2.6365,2.6426,2.6829,2.6194,2.5569,2.5137,2.4518,2.4235,0.0,2.5097,2.5504,2.5684,2.5706,2.5695,2.5636,2.5695,2.5706,2.5647,2.7636,2.8704,2.8704,3.0367,3.1076,3.0795,3.0547,3.0105,2.9472,2.8885,2.8604,2.8537,2.7655,2.7309,2.7242,2.6627,2.6386,2.6386,2.6386,2.6386,2.6386,2.6386,2.6386,2.6426,0.0,0.0,0.0,0.0,0.0,0.0,0.0,0.0,0.0,0.0,0.0,0.0,0.0,0.0,0.0,0.0,0.8486,0.9157,0.9863,1.1029,1.2067,1.2915,1.3966,1.4733,1.5187,1.573,1.6103,1.6307,1.6659,1.6738,1.6685,1.6788,1.6917,1.7015,1.7314,1.7748,1.8244,1.8521,1.9301,2.0232,1.9668,1.9806,2.0216,1.8439,1.7604,1.7144,0.0,1.613,1.7552,1.6954,1.6699,1.6754,1.7429,1.7529,1.7361,1.7257,1.7382,1.7699,1.8455,2.0542,2.2484,2.2268,2.433,2.6234,2.5595,2.6029,2.6398,2.5989,2.6237,2.6074,2.4833,2.3931,2.3359,2.3046,2.3541,2.347,2.2159,2.311,2.3043,2.0611,2.0352,0.0,0.0,0.0,0.0,2.528,2.5323,2.534,2.5502,2.5513,2.5513,2.5513,2.619,2.6528,2.6528,2.7122,2.7202,2.6818,2.7741,2.7835,2.7297,2.8356,2.8671,2.8312,2.7776,2.7442,2.7282,2.6841,2.656,2.6386,2.6386,2.6386,2.6386,2.6386,2.6386,2.6386,0.0,0.0,0.0,0.0,0.0,0.0,0.0,0.0,0.0,0.0,0.0,0.0,0.0,0.0,0.0,0.0,0.0,0.8656,0.9178,1.0175,1.1063,1.1755,1.2678,1.339,1.3838,1.4323,1.4697,1.497,1.5174,1.5303,1.5411,1.5418,1.5527,1.5669,1.6001,1.6474,1.6951,1.7262,1.7495,1.764,1.7029,1.6602,1.6206,1.4555,1.3925,0.0,1.175,1.2412,1.4184,1.4196,1.4277,1.4465,1.4806,1.5003,1.5081,1.5131,1.5899,1.6979,1.8229,2.0479,2.2422,2.2256,2.4118,2.5752,2.4757,2.488,2.4902,2.3909,2.3878,2.3528,2.1818,2.0764,2.0179,2.0116,2.0458,2.0456,1.9544,2.0464,2.0417,1.828,1.8046,0.0,0.0,0.0,0.0,2.2823,2.2961,2.3051,2.3277,2.3287,2.3287,2.3287,2.4008,2.4397,2.4397,2.504,2.5146,2.4718,2.5434,2.5519,2.5157,2.6304,2.6586,2.6181,2.5807,2.5546,2.5359,2.4945,2.5057,2.5462,2.5462,2.5872,2.6386,2.6386,2.6386,2.6386,0.0,0.0,0.0,0.0,0.0,0.0,0.0,0.0,0.0,0.0,0.0,0.0,0.0,0.0,0.0,0.0,0.0,0.0,0.8444,0.9144,0.9815,1.0378,1.09,1.137,1.1726,1.1945,1.2356,1.2935,1.318,1.3532,1.3953,1.4102,1.4251,1.4387,1.4394,1.4482,1.4663,1.5005,1.4858,1.4403,1.4553,1.3999,1.2991,1.2035,1.1401,1.0934,0.9822,0.983,1.056,1.1846,1.2309,1.2356,1.2365,1.2909,1.3631,1.4079,1.5748,1.7901,1.9678,2.1004,2.2197,2.3446,2.4456,2.5135,2.5038,2.5093,2.4365,2.1681,2.2346,2.207,0.0,0.0,1.8667,1.7932,1.7461,1.7664,1.911,1.8533,1.8046,0.0,0.0,0.0,0.0,0.0,0.0,1.8663,0.0,1.9094,1.9297,1.9306,1.9306,1.9306,2.1201,2.2221,2.2221,2.4015,2.4614,2.4177,2.3718,2.3366,2.3155,2.2974,2.2782,2.26,2.2116,2.1912,2.1859,2.1396,2.2211,2.3656,2.3656,2.4694,2.6149,2.6149,2.6188,2.6268,0.0,0.0,0.0,0.0,0.0,0.0,0.0,0.0,0.0,0.0,0.0,0.0,0.0,0.0,0.0,0.0,0.0,0.0,0.7821,0.8526,0.9008,0.9157,1.0127,1.0772,1.0961,1.1484,1.1809,1.1959,1.2142,1.2237,1.225,1.2354,1.2542,1.273,1.2807,1.3175,1.3637,1.3594,1.3752,1.3981,1.3468,1.3199,1.294,1.1611,1.0935,1.0569,1.0028,0.9831,0.9877,1.0322,1.104,1.1748,1.1921,1.2374,1.3018,1.3933,1.5061,1.6329,1.7757,2.0051,2.1811,2.0902,2.198,2.2872,2.1308,2.0505,1.9759,1.8729,1.7868,1.6792,0.0,0.0,0.0,1.6423,1.7413,0.0,1.92,1.9167,0.0,1.8483,0.0,1.8241,1.7884,1.8046,0.0,0.0,1.8639,1.8833,1.9289,1.9306,1.9306,1.9306,1.9791,2.0087,2.0087,2.0289,2.0232,2.0032,2.1168,2.153,2.1204,2.2569,2.2976,2.2579,2.246,2.2213,2.188,2.1762,2.1791,2.1867,2.1867,2.2149,2.255,2.255,2.3364,2.4455,0.0,0.0,0.0,0.0,0.0,0.0,0.0,0.0,0.0,0.0,0.0,0.0,0.0,0.0,0.0,0.0,0.0,0.0,0.0,0.8136,0.8248,0.8316,0.896,0.9422,0.9639,0.9879,1.0116,1.0344,1.0454,1.059,1.0744,1.0914,1.1131,1.1322,1.1436,1.1765,1.2149,1.1987,1.1944,0.0,0.0,1.1234,1.0999,1.0158,0.9802,0.968,0.9423,0.9537,0.9919,1.0543,1.1253,1.1931,1.2376,1.2897,1.3612,1.4773,1.5634,1.6487,1.7746,1.955,2.0876,1.9981,2.0586,2.094,1.9322,1.8412,1.764,1.6534,1.5439,0.0,1.3804,1.4026,0.0,0.0,0.0,0.0,1.8874,1.8964,1.8866,0.0,1.8712,0.0,1.8306,1.8379,1.8605,0.0,1.8744,1.8898,1.9289,1.9306,1.9306,1.9306,1.9306,1.9232,1.9029,1.8826,1.859,1.8377,1.9375,1.9575,1.9194,2.0318,2.0571,2.0168,0.0,1.9851,1.9586,1.949,1.9704,2.0038,2.0038,2.0524,2.1222,2.1222,2.1827,2.2682,0.0,0.0,0.0,0.0,0.0,0.0,0.0,0.0,0.0,0.0,0.0,0.0,0.0,0.0,0.0,0.0,0.0,0.0,0.0,0.0,0.7834,0.7938,0.7856,0.7957,0.8226,0.8074,0.8202,0.8595,0.873,0.8994,0.9408,0.9656,0.9852,1.005,1.0161,1.0297,1.0412,1.0283,0.9917,0.9422,0.9306,0.8968,0.8485,0.0,0.8588,0.8704,0.8669,0.9293,1.0305,1.1668,1.2345,1.2678,1.3392,1.414,1.4954,1.6227,1.6942,1.7591,1.8826,1.9516,1.993,2.0068,1.9906,1.9443,1.8379,1.7713,1.676,1.4976,0.0,1.3652,1.284,1.3043,1.3734,1.5019,0.0,1.6696,1.8509,1.8485,1.8516,1.8964,1.8907,1.8826,1.8826,1.8688,1.8768,1.9029,1.9029,1.9135,1.9297,1.9306,1.9306,1.9306,1.9306,1.9102,1.8761,1.8688,1.855,1.8255,1.8255,1.8022,1.7635,1.7635,1.7441,1.7136,0.0,0.0,1.66,1.6446,1.7117,1.8305,1.8305,1.9215,2.0494,2.0494,2.0656,2.0848,0.0,0.0,0.0,0.0,0.0,0.0,0.0,0.0,0.0,0.0,1.1749,1.1762,0.0,0.0,0.0,0.0,0.0,0.0,0.0,0.0,0.0,0.8627,0.8203,0.7939,0.7896,0.7966,0.8029,0.8128,0.8155,0.8209,0.829,0.8492,0.8621,0.8655,0.8798,0.8873,0.8866,0.8866,0.873,0.8539,0.8628,0.8532,0.8362,0.8581,0.0,0.0,0.9369,0.9771,1.0311,1.2274,1.3327,1.3977,1.4654,1.557,1.6606,1.7799,1.8249,1.864,1.9792,2.0271,2.0426,2.0304,1.9808,1.911,1.8176,1.672,0.0,0.0,1.3131,1.2321,1.2167,1.2556,1.3447,1.5148,1.604,1.7063,1.8704,0.0,1.898,0.0,0.0,0.0,0.0,0.0,0.0,0.0,0.0,1.9273,1.9306,1.9306,1.9306,1.9306,1.9306,1.9208,1.8939,1.8793,1.8615,1.8451,1.8451,1.8217,1.7867,1.7867,1.7672,1.7331,0.0,0.0,1.676,1.6728,1.673,1.671,1.671,1.6783,1.6895,1.6895,1.7819,1.9074,0.0,0.0,0.0,0.0,0.0,0.0,0.0,1.0737,1.1147,1.181,1.1798,1.1918,1.2457,1.2118,1.1889,0.0,0.0,0.0,0.0,0.0,0.0,0.9525,0.8823,0.8458,0.8531,0.8101,0.7939,0.7988,0.0,0.7988,0.7988,0.8088,0.8147,0.8153,0.8221,0.8255,0.8255,0.8255,0.8214,0.8153,0.8221,0.8262,0.8321,0.0,0.0,0.0,0.9336,0.9774,1.039,1.1846,1.3255,1.4643,1.5699,1.6712,1.7697,1.854,1.8858,1.9199,2.0076,2.0385,2.0434,2.0344,1.9573,1.8501,1.719,0.0,0.0,0.0,1.2239,1.1727,1.16,1.2207,1.31,1.4306,1.5139,1.6235,1.803,1.8208,0.0,0.0,0.0,0.0,0.0,0.0,0.0,0.0,0.0,1.9354,1.9314,1.9306,1.9306,1.9306,1.9306,1.9216,1.8988,1.8899,1.872,1.8499,1.855,1.8403,1.8046,1.7957,1.777,1.7502,1.7226,0.0,1.6809,1.6809,1.6647,1.6438,1.6341,1.6251,1.6128,1.6039,1.6534,1.7255,0.0,0.0,0.0,0.0,0.0,0.0,0.0,1.0882,1.1243,1.1894,1.199,1.2147,1.2578,1.2614,1.2614,0.0,0.0,0.0,0.0,0.0,0.0,0.0,0.0,0.0,0.9497,0.0,0.0,0.0,0.8113,0.0,0.0,0.0,0.0,0.0,0.7988,0.7988,0.7988,0.7988,0.7988,0.0,0.0,0.816,0.0,0.0,0.0,0.0,0.0,0.9647,1.0322,1.1256,1.2774,1.45,1.5739,1.7109,1.8249,1.8639,1.9045,1.9558,2.015,2.0377,2.0393,2.0247,1.9264,1.787,1.6258,1.4871,0.0,1.202,1.1508,1.1313,1.126,1.1857,1.2637,1.352,1.4205,1.5293,1.7263,1.7502,1.7957,0.0,0.0,0.0,0.0,0.0,0.0,0.0,0.0,0.0,1.9371,1.933,1.9322,1.9363,1.933,1.924,1.9094,1.8964,1.8809,1.8613,1.8671,1.8574,1.829,1.8111,1.7932,1.7729,1.7339,0.0,0.0,1.6882,1.676,1.6617,1.6438,1.6341,1.6284,1.6072,1.6007,1.6007,0.0,0.0,0.0,0.0,0.0,0.0,0.0,1.0725,1.1099,1.2123,1.2256,1.228,1.2316,1.2349,1.2349,0.0,0.0,0.0,0.0,0.0,0.0,0.0,0.0,0.0,0.0,0.0,0.0,0.0,0.0,0.0,0.0,0.0,0.0,0.0,0.0,0.0,0.7988,0.7988,0.0,0.0,0.0,0.0,0.0,0.0,0.0,0.0,0.0,0.9575,1.0003,1.1064,1.2111,1.3072,1.3761,1.5905,1.8152,1.8046,1.8834,1.9825,2.0214,2.0556,2.0706,2.0003,1.8891,1.7497,1.5894,0.0,1.2653,1.1719,1.1118,1.0907,1.1386,1.1541,1.2093,1.3628,1.4075,1.4976,1.7112,1.7534,1.804,0.0,0.0,0.0,0.0,0.0,0.0,0.0,0.0,0.0,1.9484,1.9395,1.9379,1.9484,1.9337,1.9297,1.9281,1.8915,1.8809,1.8931,1.8793,1.8656,1.8671,1.8532,1.8345,1.8095,0.0,0.0,0.0,1.7161,1.6939,1.6768,1.6625,1.6454,1.6284,1.6072,1.6007,1.6007,0.0,0.0,0.0,0.0,0.0,0.0,1.0581,1.0701,1.1087,1.2147,1.2292,1.2292,1.2292,1.2436,1.2481,1.2304,0.0,0.0,0.0,0.0,0.0,0.0,0.0,0.0,0.0,0.0,0.0,0.0,0.0,0.0,0.0,0.0,0.0,0.0,0.0,0.0,0.0,0.0,0.0,0.0,0.0,0.0,0.0,0.0,0.0,0.0,0.0,0.0,0.9654,1.0235,1.1179,1.2075,1.198,1.3738,1.5992,1.6844,1.7851,1.8858,1.976,2.019,2.034,1.989,1.8436,1.6779,1.5488,0.0,1.2094,1.1346,1.0923,1.0826,1.1248,1.1248,1.1565,1.2751,1.2824,1.3409,1.5342,1.5626,1.6412,1.8468,0.0,0.0,0.0,0.0,0.0,0.0,0.0,0.0,1.9508,1.9354,1.9338,1.9362,1.9346,1.9306,1.9306,1.9118,1.9021,1.898,1.9029,1.8988,1.8874,1.863,1.8394,1.819,0.0,0.0,0.0,1.7136,1.7071,1.6947,1.6768,1.6633,1.6446,1.6267,1.6096,1.6007,0.0,0.0,0.0,0.0,0.0,0.9781,1.0581,1.0701,1.105,1.2051,1.2183,1.2183,1.2183,1.234,1.2433,1.2304,1.2554,0.0,0.0,0.0,0.0,0.0,0.0,0.0,0.0,0.0,1.1283,1.1634,1.1341,0.0,0.0,0.0,0.0,0.0,0.0,0.0,0.0,0.0,0.0,0.0,0.0,0.0,0.0,0.0,0.0,0.0,0.0,0.0,0.0,0.0,0.0,1.1008,1.0732,1.1759,1.3391,1.5026,1.651,1.7862,1.881,1.9515,1.9833,1.9549,1.8014,1.6284,0.0,0.0,1.1811,1.1183,1.0886,1.0785,1.1094,1.1094,1.1289,1.2028,1.21,1.2572,1.4168,1.4484,1.5382,0.0,0.0,0.0,0.0,0.0,0.0,0.0,0.0,0.0,0.0,1.9371,1.933,1.9379,1.9338,1.9306,1.9306,1.92,1.9061,1.898,1.9061,1.9037,1.8899,1.8647,1.8483,1.8271,0.0,0.0,0.0,1.7153,1.7112,1.7088,1.6817,1.669,1.6552,1.6316,1.6112,1.6007,0.0,0.0,0.0,0.0,0.0,0.0,1.0581,1.0701,1.099,1.1798,1.1906,1.1906,1.1906,1.1906,1.2015,1.2268,1.2554,0.0,0.0,0.0,0.0,0.0,0.0,0.0,0.0,0.0,1.2419,1.2678,1.1682,1.1194,1.117,0.0,0.0,0.0,0.0,0.0,0.0,0.0,0.0,0.0,0.0,0.0,0.8912,0.0,0.0,0.0,0.0,0.0,0.0,0.0,0.0,0.0,0.0,1.0309,1.0681,1.2436,1.4924,1.7154,1.7375,1.8424,1.9394,1.8818,1.7648,1.6251,1.5,1.3285,1.1843,1.13,1.094,1.0753,1.0968,1.111,1.1346,1.1749,1.2246,1.3028,1.4217,1.4741,1.5431,0.0,0.0,0.0,0.0,0.0,0.0,0.0,0.0,0.0,0.0,1.9306,1.9337,1.95,1.9345,1.9306,1.9306,1.8907,1.8818,1.898,1.8809,1.8728,1.868,1.872,1.8623,0.0,0.0,0.0,0.0,1.7258,1.7112,1.7071,1.6722,1.6584,1.6535,1.6137,1.6007,1.6007,0.0,0.0,0.0,0.0,0.0,0.0,0.0,1.031,1.0653,1.1267,1.152,1.1701,1.1882,1.1906,1.2002,1.2268,1.2385,0.0,0.0,0.0,0.0,0.0,0.0,0.0,0.0,0.0,1.3333,1.3787,1.3669,1.312,1.2217,1.2397,1.1845,0.0,0.0,0.0,0.0,0.0,0.0,0.0,0.0,0.8392,0.8737,0.0,0.0,0.0,0.0,0.0,0.0,0.0,0.0,0.0,0.0,0.0,0.0,1.0438,1.2368,1.461,1.5528,1.6269,1.6741,1.6548,1.5433,1.426,1.3558,1.2323,1.1213,1.0916,1.0769,1.0753,1.096,1.0907,1.1175,1.2189,1.2353,1.2743,1.3714,0.0,0.0,1.6527,0.0,0.0,0.0,0.0,0.0,0.0,0.0,0.0,0.0,1.9306,1.9338,1.9337,1.9338,1.9249,1.9118,1.8956,1.8866,1.8809,1.8874,1.8842,1.868,1.868,0.0,0.0,0.0,0.0,0.0,1.721,1.7039,1.6866,1.6674,1.6503,1.6381,1.6267,1.6104,1.6007,0.0,0.0,0.0,0.0,0.0,0.0,0.0,1.013,1.046,1.0894,1.1183,1.146,1.1725,1.1665,1.1786,1.2256,1.2207,0.0,0.0,0.0,0.0,0.0,0.0,0.0,1.3485,1.3497,1.375,1.4292,1.4582,1.4274,1.3464,1.3622,1.3056,1.1899,1.182,0.0,0.0,0.0,0.0,0.0,0.8167,0.8323,0.8608,0.0,0.0,0.0,0.0,0.0,0.0,0.0,0.0,0.0,0.0,0.0,0.0,0.0,1.0557,1.2086,1.3558,1.4476,1.503,1.4948,1.4145,0.0,1.2602,1.1705,1.0961,1.0667,1.0497,1.0481,1.0814,1.0827,1.1036,1.1931,1.2199,1.2572,0.0,0.0,0.0,1.6625,0.0,0.0,0.0,0.0,0.0,0.0,0.0,0.0,0.0,1.9306,1.9306,1.9306,1.9306,1.9216,1.8988,1.8915,1.8793,1.8623,1.8801,1.8753,1.8525,1.8663,0.0,0.0,0.0,0.0,0.0,1.712,1.6906,1.6785,1.6576,1.6405,1.6292,1.6227,1.6096,1.6007,0.0,0.0,0.0,0.0,0.0,0.0,0.0,1.0106,1.0376,1.0641,1.0906,1.1171,1.1429,1.1243,1.1412,1.2195,0.0,0.0,0.0,0.0,0.0,0.0,0.0,0.0,1.3485,1.3509,1.3774,1.4292,1.4594,1.4714,1.469,1.4726,1.4206,1.3195,1.2954,1.1668,0.0,0.0,0.0,0.0,0.8281,0.8362,0.0,0.0,0.0,0.0,0.0,0.0,0.0,0.0,0.0,0.0,0.0,0.0,0.0,0.0,0.0,0.0,0.0,1.2985,1.3968,1.3801,1.3431,1.2905,1.1964,1.1379,0.0,1.054,1.0088,0.9989,1.0563,1.0735,1.0886,1.1189,1.1868,0.0,0.0,1.4095,0.0,0.0,0.0,0.0,0.0,0.0,0.0,0.0,0.0,0.0,0.0,1.9306,1.9306,1.9289,1.9289,1.92,1.8964,1.8801,1.8623,1.8483,1.8615,1.8517,1.8231,1.8533,0.0,0.0,0.0,0.0,0.0,1.6955,1.6801,1.6752,1.643,1.6284,1.6267,1.6064,1.6007,1.6007,0.0,0.0,0.0,0.0,0.0,0.0,0.0,0.0,0.0,0.0,1.0629,1.0894,1.1159,1.1135,1.134,0.0,0.0,0.0,0.0,0.0,0.0,0.0,0.0,0.0,1.3485,1.3713,1.3966,1.4292,1.4775,1.4908,1.4702,1.5125,1.4962,1.4332,1.4273,1.2959,0.0,0.0,0.0,0.0,0.8067,0.8187,0.0,0.0,0.0,0.0,0.8419,0.8469,0.0,0.0,0.0,0.0,0.0,0.0,0.0,0.0,0.9146,0.933,0.9799,0.0,1.1099,1.115,1.0932,1.0686,0.0,1.0221,0.9944,0.9969,0.9874,0.9918,1.0307,1.0493,1.0775,1.1401,1.2154,0.0,1.3131,0.0,0.0,0.0,0.0,0.0,0.0,0.0,0.0,0.0,0.0,0.0,0.0,1.9306,1.924,1.9102,1.9045,1.8964,1.8785,1.8696,1.8566,1.8288,1.8475,1.8442,1.8176,1.8265,0.0,0.0,0.0,0.0,1.7364,1.6955,1.6728,1.6609,1.6201,1.6064,1.6064,1.6023,1.6007,1.6007,0.0,0.0,0.0,0.0,0.0,0.0,0.0,0.0,0.0,0.0,0.0,1.0942,1.1075,1.1087,0.0,0.0,0.0,0.0,0.0,0.0,0.0,0.0,0.0,1.3232,1.3485,1.375,1.4039,1.4292,1.4847,1.504,1.4883,1.5306,1.5282,1.4858,1.4113,1.2807,0.0,0.0,0.0,0.7988,0.7988,0.0,0.0,0.0,0.0,0.0,0.8167,0.8214,0.0,0.8533,0.8662,0.873,0.0,0.0,0.0,0.0,0.8967,0.9042,0.8995,0.9416,0.9902,1.0029,1.0031,0.996,0.9896,0.9738,0.9616,0.9605,0.9485,0.9537,1.0059,1.021,1.0486,1.1212,1.2062,0.0,0.0,0.0,0.0,0.0,0.0,0.0,0.0,0.0,0.0,0.0,0.0,0.0,0.0,1.9224,1.9086,1.8988,1.8907,1.8777,1.8598,1.8598,1.846,1.8176,1.832,1.828,1.8054,1.8054,0.0,0.0,0.0,0.0,1.7112,1.6704,1.6544,1.643,1.6112,1.6007,1.6007,1.6007,1.6007,1.6007,0.0,0.0,0.0,0.0,0.0,0.0,0.0,0.0,0.0,0.0,0.0,0.0,0.0,0.0,0.0,0.0,0.0,0.0,0.0,0.0,0.0,0.0,1.3051,1.3328,1.3568,1.3833,1.4075,1.4292,1.4847,1.5113,1.5113,1.5415,1.5403,1.5038,1.3454,1.2175,0.0,0.0,0.0,0.7988,0.7988,0.0,0.0,0.0,0.0,0.0,0.0,0.0,0.0,0.8364,0.8505,0.856,0.8798,0.0,0.0,0.0,0.0,0.0,0.8832,0.9184,0.9585,0.9609,0.9806,0.9884,0.9569,0.9508,0.9448,0.9348,0.912,0.9133,0.9823,0.9997,0.0,0.0,0.0,0.0,0.0,0.0,0.0,0.0,0.0,0.0,0.0,0.0,0.0,0.0,0.0,0.0,0.0,1.9069,1.8956,1.8955,1.8761,1.8582,1.8418,1.8475,1.8394,1.8135,1.8135,1.8046,1.783,1.7851,1.7656,0.0,0.0,0.0,1.6744,1.6446,1.63,1.6284,1.6072,1.6007,1.6007,1.6007,1.6007,1.6007,0.0,0.0,0.0,0.0,0.0,0.0,0.0,0.0,0.0,0.0,0.0,0.0,0.0,0.0,0.0,0.0,0.0,0.0,0.0,0.0,0.0,1.3039,1.3497,1.3809,1.3845,1.4099,1.4256,1.4292,1.4847,1.5113,1.5113,1.5608,1.5572,1.5038,1.3657,1.2344,1.1121,0.0,0.0,0.7988,0.7988,0.0,0.0,0.0,0.0,0.0,0.0,0.0,0.0,0.8315,0.8472,0.8682,0.873,0.0,0.0,0.0,0.0,0.0,0.9184,0.9347,0.9327,0.8967,0.9111,0.9276,0.9069,0.9008,0.8988,0.8968,0.9063,0.9262,0.9607,1.0205,1.0686,0.0,0.0,0.0,0.0,0.0,0.0,0.0,0.0,0.0,0.0,0.0,0.0,0.0,0.0,0.0,0.0,1.8996,1.889,1.8589,1.8556,1.8377,1.8005,1.8345,1.8328,1.7957,1.7957,1.7859,1.7635,1.7534,1.7356,0.0,0.0,1.6744,1.6609,1.6389,1.63,1.6284,1.6072,1.6007,1.6007,1.6007,1.6007,1.6007,0.0,0.0,0.0,0.0,0.0,0.0,0.0,0.0,0.0,0.0,0.0,0.0,0.0,0.0,0.0,0.0,0.0,0.0,0.0,0.0,1.3316,1.3316,1.3833,1.4051,1.3906,1.4159,1.4377,1.4521,1.492,1.5185,1.5318,1.5415,1.5021,1.4214,1.3284,1.1919,1.0288,0.9805,0.8973,0.7988,0.0,0.0,0.0,0.0,0.0,0.0,0.0,0.0,0.0,0.0,0.8437,0.8601,0.8682,0.0,0.0,0.0,0.0,0.0,0.8886,0.9104,0.922,0.8879,0.9178,0.9476,0.9305,0.921,0.9198,0.9257,0.9354,0.9517,0.0,0.0,1.1094,1.2096,0.0,0.0,0.0,0.0,0.0,0.0,0.0,0.0,0.0,0.0,0.0,0.0,0.0,0.0,0.0,0.0,1.8232,1.8073,1.7656,1.7343,1.7142,1.7196,1.7288,1.7359,1.731,1.7087,1.6722,1.6731,1.6653,1.6558,0.0,1.6511,1.6414,1.6235,1.612,1.6112,1.6031,1.6007,1.6007,1.6007,1.6007,1.6007,0.0,0.0,0.0,0.0,0.0,0.0,0.0,0.0,0.0,0.0,0.0,0.0,0.0,0.0,0.0,0.0,0.0,0.0,0.0,1.3254,1.3521,1.3581,1.4051,1.4208,1.4002,1.4256,1.4497,1.469,1.504,1.533,1.5584,1.5318,1.4589,1.3463,1.2759,1.1389,0.9583,0.9336,0.8751,0.7988,0.0,0.0,0.0,0.0,0.0,0.0,0.0,0.0,0.0,0.0,0.0,0.0,0.0,0.0,0.0,0.8912,0.8858,0.8777,0.8702,0.8893,0.9111,0.9008,0.9327,0.968,0.9754,0.9646,0.9598,0.9822,0.9866,0.9988,0.0,1.0799,0.0,1.3326,0.0,0.0,0.0,0.0,0.0,0.0,0.0,0.0,0.0,0.0,0.0,0.0,0.0,0.0,0.0,0.0,1.7467,1.7428,1.6764,1.6414,1.6376,1.6159,1.628,1.668,1.6555,1.6269,1.5861,1.5882,1.5902,1.5848,1.5958,1.5983,1.5894,1.5766,1.5752,1.5875,1.5875,1.5925,1.6007,1.6007,1.6007,1.6007,0.0,0.0,0.0,0.0,0.0,0.0,0.0,0.0,0.0,0.0,0.0,0.0,0.0,0.0,0.0,0.0,0.0,0.0,0.0,1.334,1.3605,1.387,1.4147,1.4292,1.4268,1.4545,1.4678,1.469,1.5221,1.5608,1.5861,1.5596,1.4763,1.3437,1.2214,1.0902,0.9534,0.8528,0.8063,0.7988,0.7988,0.0,0.0,0.0,0.0,0.0,0.0,0.0,0.0,0.0,0.0,0.0,0.0,0.0,0.8912,0.8912,0.8737,0.8628,0.9022,0.9028,0.8953,0.9138,0.9199,0.941,1.0104,1.0114,1.0089,1.0522,1.0718,0.0,0.0,1.1613,1.2637,1.3493,0.0,0.0,0.0,0.0,0.0,0.0,0.0,0.0,0.0,0.0,0.0,0.0,0.0,0.0,0.0,0.0,0.0,1.658,1.6346,1.6182,1.6025,1.5816,1.5861,1.6047,1.589,1.5689,1.5524,1.5403,1.5238,1.5088,1.51,1.5002,1.4811,1.4803,1.5051,1.5422,1.5422,1.5669,1.6007,1.6007,1.6007,1.6007,0.0,0.0,0.0,0.0,0.0,0.0,0.0,0.0,0.0,0.0,0.0,0.0,0.0,0.0,0.0,0.0,0.0,0.0,0.0,1.334,1.3605,1.3894,1.4159,1.4292,1.4292,1.457,1.4774,1.4956,1.5487,1.5361,1.4647,1.4372,1.3218,1.1316,1.0664,0.9689,0.8577,0.8162,0.7988,0.7988,0.7988,0.7988,0.0,0.0,0.0,0.0,0.0,0.0,0.0,0.0,0.8209,0.8505,0.8505,0.8696,0.8912,0.8912,0.8831,0.8784,0.8859,0.9042,0.9225,0.9308,0.9464,0.9693,1.0199,1.0521,1.0846,1.1206,1.1545,0.0,0.0,0.0,1.339,0.0,0.0,0.0,0.0,0.0,0.0,0.0,0.0,0.0,0.0,0.0,0.0,0.0,0.0,0.0,0.0,0.0,0.0,1.5874,1.5312,1.497,1.4958,1.466,1.4562,1.4611,1.4909,1.4808,1.4435,1.4628,1.4647,1.4581,1.473,1.4773,1.4713,1.4713,1.4796,1.4961,1.4961,1.5257,1.5628,1.5628,1.5801,1.6007,0.0,0.0,0.0,0.0,0.0,0.0,0.0,0.0,0.0,0.0,0.0,0.0,0.0,0.0,0.0,0.0,0.0,0.0,1.3183,1.3388,1.3664,1.4014,1.4208,1.4148,1.38,1.4398,1.4822,1.5113,1.5208,1.4786,1.3898,1.3224,1.1881,1.0043,0.9738,0.9053,0.8081,0.8033,0.7988,0.7988,0.7988,0.7988,0.0,0.0,0.0,0.0,0.0,0.0,0.0,0.0,0.8208,0.8451,0.8492,0.8662,0.8838,0.8838,0.8564,0.8224,0.8112,0.8342,0.853,0.8152,0.9004,0.9908,1.0018,1.0775,1.1621,1.2081,1.2311,1.2474,1.2623,0.0,0.0,0.0,0.0,0.0,0.0,0.0,0.0,0.0,0.0,0.0,0.0,0.0,0.0,0.0,0.0,0.0,0.0,0.0,0.0,0.0,1.4483,1.4156,1.4156,1.3856,1.3734,1.3734,1.4069,1.4069,1.3727,1.3908,1.4007,1.4048,1.4226,1.43,1.43,1.43,1.439,1.4514,1.4631,1.4878,1.5175,1.5175,1.5463,1.5793,0.0,0.0,0.0,0.0,0.0,0.0,0.0,0.0,0.0,0.0,0.0,0.0,0.0,0.0,0.0,0.0,0.0,0.0,1.3437,1.3497,1.3726,1.4244,1.4268,1.3787,1.2702,1.3994,1.4822,1.5075,1.4294,1.3882,1.3834,1.2292,1.1087,1.0154,0.977,0.9122,0.8287,0.8081,0.7988,0.7988,0.7988,0.7988,0.0,0.0,0.0,0.0,0.0,0.0,0.0,0.0,0.814,0.8321,0.8464,0.8587,0.871,0.871,0.784,0.6888,0.6743,0.6802,0.662,0.5483,0.7657,0.9979,0.9606,1.0853,1.2356,1.322,1.3051,1.2786,1.2982,0.0,0.0,0.0,0.0,0.0,0.0,0.0,0.0,0.0,0.0,0.0,0.0,0.0,0.0,0.0,0.0,0.0,0.0,0.0,0.0,0.0,1.3957,1.3795,1.3795,1.3653,1.3585,1.3585,1.3471,1.3478,1.3578,1.3471,1.3403,1.3403,1.3403,1.3403,1.3403,1.3403,1.3652,1.4149,1.4514,1.4672,1.4672,1.4672,1.501,1.5381,0.0,0.0,0.0,0.0,0.0,0.0,0.0,0.0,0.0,0.0,0.0,0.0,0.0,0.0,0.0,0.0,0.0,0.0,1.3449,1.3497,1.339,1.3175,1.3173,1.2678,1.1658,1.2222,1.301,1.397,1.3127,1.2154,1.115,1.0793,0.9996,0.887,0.8833,0.8625,0.8294,0.8247,0.814,0.7988,0.7988,0.7988,0.7988,0.0,0.0,0.0,0.0,0.0,0.0,0.0,0.0,0.0,0.8464,0.8587,0.873,0.8811,0.8591,0.8112,0.7221,0.7192,0.7088,0.5856,0.6575,0.7956,0.9497,1.1089,1.2535,1.3648,1.3682,1.3559,1.3758,0.0,0.0,0.0,0.0,0.0,0.0,0.0,0.0,0.0,0.0,0.0,0.0,0.0,0.0,0.0,0.0,0.0,0.0,0.0,0.0,0.0,1.3747,1.3653,1.3653,1.3546,1.3471,1.3464,1.3424,1.3424,1.3464,1.3424,1.3403,1.3403,1.3403,1.3403,1.3403,1.3403,1.3486,1.3611,1.3728,1.3976,1.4273,1.4273,1.4555,1.4961,0.0,0.0,0.0,0.0,0.0,0.0,0.0,0.0,0.0,0.0,1.0298,1.0491,0.0,0.0,0.0,0.0,0.0,0.0,0.0,1.3099,1.2834,1.2705,1.2315,1.1828,1.1219,1.0605,1.0829,1.1952,1.1524,1.0879,0.9994,0.963,0.9076,0.8383,0.8471,0.8457,0.8376,0.8321,0.824,0.8108,0.8108,0.8108,0.8108,0.0,0.0,0.0,0.0,0.0,0.0,0.0,0.0,0.0,0.8464,0.8587,0.8622,0.8211,0.7834,0.7221,0.5959,0.584,0.5763,0.4561,0.5357,0.6861,0.8601,1.0535,0.0,0.0,1.3627,1.3116,1.4166,0.0,0.0,0.0,0.0,0.0,0.0,0.0,0.0,0.0,0.0,0.0,0.0,0.0,0.0,0.0,0.0,0.0,0.0,0.0,0.0,0.0,1.3572,1.3539,1.3539,1.3444,1.3403,1.3403,1.3403,1.3403,1.3403,1.3403,1.3403,1.3403,1.3403,1.3403,1.3403,1.3403,1.3403,1.3403,1.3403,1.3569,1.3818,1.3818,1.4101,1.4514,0.0,0.0,0.0,0.0,0.0,0.0,0.0,0.0,0.0,0.0,1.0352,1.0532,0.0,0.0,0.0,0.0,0.0,0.0,0.0,1.2495,1.2102,1.2536,1.1487,1.0901,1.0901,0.9175,0.8654,0.946,0.9711,0.9834,0.9801,0.878,0.8383,0.8512,0.8539,0.8532,0.8498,0.8369,0.8308,0.8294,0.8294,0.8301,0.8315,0.8301,0.0,0.0,0.0,0.0,0.0,0.0,0.0,0.0,0.8478,0.8587,0.8481,0.7386,0.6344,0.5266,0.3941,0.3646,0.3462,0.2376,0.4192,0.644,0.718,0.9216,1.1654,1.4094,0.0,1.2018,0.0,0.0,0.0,0.0,0.0,0.0,0.0,0.0,0.0,0.0,0.0,0.0,0.0,0.0,0.0,0.0,0.0,0.0,0.0,0.0,0.0,0.0,1.3471,1.3403,1.3403,1.3403,1.3403,0.0,1.3403,1.3403,1.3403,1.3403,1.3403,1.3403,1.3403,1.3403,1.3403,1.3403,1.3403,1.3403,1.3403,1.3403,1.3403,1.3403,1.3652,1.4025,0.0,0.0,0.0,0.0,0.0,0.0,0.0,0.0,0.0,0.0,0.0,0.0,0.0,0.0,0.0,0.0,0.0,0.0,0.0,1.2495,1.1799,1.1541,0.9706,0.8676,0.8676,0.8265,0.8147,0.8329,0.8567,0.8581,0.8435,0.8452,0.8478,0.8519,0.873,0.871,0.8505,0.8478,0.8396,0.8294,0.8294,0.8362,0.8451,0.8342,0.8274,0.0,0.0,0.0,0.0,0.0,0.0,0.0,0.8581,0.8601,0.8521,0.8491,0.7658,0.6484,0.5341,0.4424,0.3522,0.2443,0.3944,0.5777,0.6151,0.6672,0.7596,0.9525,1.1038,0.0,0.0,0.0,0.0,0.0,0.0,0.0,0.0,0.0,0.0,0.0,0.0,0.0,0.0,0.0,0.0,0.0,0.0,0.0,0.0,0.0,0.0,1.3451,1.3417,1.3403,1.3403,1.3403,1.3403,0.0,1.3403,1.3403,1.3403,1.3403,1.3403,1.3403,1.3403,1.3403,1.3403,1.3403,1.3403,1.3403,1.3403,1.3403,1.3403,1.3403,1.3445,1.3611,0.0,0.0,0.0,0.0,0.0,0.0,0.0,0.0,0.0,0.0,0.0,0.0,0.0,0.0,0.0,0.0,0.0,0.0,0.0,0.0,1.0265,0.969,0.8602,0.7988,0.7988,0.7988,0.7988,0.7988,0.8094,0.816,0.8153,0.8377,0.8546,0.8601,0.8804,0.8784,0.8587,0.8587,0.8547,0.8479,0.8479,0.8526,0.8574,0.8451,0.8355,0.8294,0.8294,0.0,0.0,0.0,0.0,0.0,0.0,0.0,0.8595,0.817,0.7204,0.6037,0.4901,0.3809,0.2883,0.2458,0.3259,0.4216,0.4357,0.4406,0.4661,0.5633,0.0,0.0,0.0,0.0,0.0,0.0,0.0,0.0,0.0,0.0,0.0,0.0,0.0,0.0,0.0,0.0,0.0,0.0,0.0,0.0,0.0,1.3519,1.3485,1.3403,1.3403,1.3403,1.3403,1.3403,1.3403,1.3397,1.3329,1.3254,1.3193,1.3336,1.3403,1.3397,1.3322,1.3336,1.3397,1.3322,1.3336,1.3403,1.3403,1.3403,1.3403,1.3403,1.3403,1.3445,0.0,0.0,0.0,0.0,0.0,0.0,0.0,0.0,0.0,0.0,0.0,0.0,0.0,0.0,0.0,0.0,0.0,0.0,0.0,0.0,0.0,0.8031,0.7988,0.7988,0.7988,0.7988,0.7988,0.7988,0.7988,0.8121,0.8376,0.8464,0.8567,0.8716,0.8845,0.8825,0.871,0.8682,0.8682,0.871,0.8682,0.8703,0.873,0.8554,0.0,0.8369,0.8342,0.8349,0.8376,0.8403,0.0,0.0,0.0,0.0,0.81,0.7315,0.6144,0.491,0.4151,0.3046,0.2201,0.2439,0.2619,0.2695,0.2769,0.2818,0.2867,0.2896,0.0,0.0,0.0,0.0,0.0,0.0,0.0,0.0,0.0,0.0,0.0,0.0,0.0,0.0,0.0,0.0,0.0,0.0,0.0,0.0,1.341,1.3376,1.3363,1.3363,1.3336,1.3322,1.3322,1.3322,1.3322,1.3322,1.3241,1.3111,1.3009,1.3214,1.3322,1.3315,1.3193,1.3248,1.3315,1.3227,1.3227,1.3356,1.3336,1.3356,1.3397,1.337,1.3376,1.3403,0.0,0.0,0.0,0.0,0.0,0.0,0.0,0.0,0.0,0.0,0.0,0.0,0.0,0.0,0.0,0.0,0.0,0.0,0.0,0.0,0.0,0.8038,0.7988,0.7988,0.7988,0.7988,0.7988,0.7988,0.7988,0.8223,0.8648,0.8533,0.8567,0.8716,0.8845,0.8825,0.8703,0.8567,0.8587,0.8696,0.8567,0.8669,0.8852,0.0,0.0,0.8635,0.8526,0.854,0.8669,0.8777,0.8077,0.0,0.0,0.0,0.5814,0.6818,0.556,0.4055,0.4991,0.3801,0.2294,0.2477,0.2587,0.2706,0.0,0.0,0.2804,0.0,0.0,0.0,0.0,0.0,0.0,0.0,0.0,0.0,0.0,0.0,0.0,0.0,0.0,0.0,0.0,0.0,0.0,0.0,0.0,0.0,1.3403,1.3275,1.3241,1.3241,1.3125,1.3057,1.3057,1.3057,1.3057,1.3057,1.3043,1.3016,1.3003,1.3043,1.3057,1.3057,1.3037,1.3043,1.3057,1.3037,1.3111,1.3234,1.3111,1.3214,1.3383,1.3254,1.3288,1.3403,0.0,0.0,0.0,0.0,0.0,0.0,0.0,0.0,0.0,0.0,0.0,0.0,0.0,0.0,0.0,0.0,0.0,0.0,0.0,0.0,0.0,0.7565,0.769,0.7771,0.7771,0.7914,0.7914,0.7771,0.7771,0.8019,0.8467,0.8401,0.8602,0.8988,0.9028,0.8974,0.8804,0.8737,0.875,0.8804,0.8737,0.8375,0.7858,0.0,0.0,0.0,0.0,0.0,0.0,0.6756,0.6454,0.6047,0.601,0.0,0.0,0.0,0.4944,0.3601,0.355,0.2879,0.223,0.2401,0.2518,0.2609,0.263,0.2681,0.2762,0.0,0.0,0.0,0.0,0.0,0.0,0.0,0.0,0.0,0.0,0.0,0.0,0.0,0.0,0.0,0.0,0.0,0.0,0.0,0.0,1.3275,1.3275,1.3173,1.3098,1.3098,1.303,1.3003,1.3003,1.3003,1.2955,1.2834,1.2834,1.2786,1.2705,1.2705,1.2839,1.2996,1.2868,1.2881,1.2996,1.2868,1.2922,1.3091,1.3023,1.3132,1.3254,1.3152,1.3186,1.3275,0.0,0.0,0.0,0.0,0.0,0.0,0.0,0.0,0.0,0.0,0.0,0.0,0.0,0.0,0.0,0.0,0.0,0.0,0.0,0.0,0.0,0.721,0.7391,0.7497,0.7497,0.769,0.769,0.7497,0.7497,0.775,0.8227,0.8309,0.8642,0.9173,0.9184,0.9104,0.8912,0.8872,0.8879,0.8878,0.8535,0.7873,0.0,0.0,0.0,0.0,0.0,0.0,0.0,0.0,0.0,0.0,0.0,0.4619,0.0,0.0,0.0,0.3349,0.2243,0.1997,0.2128,0.2265,0.2413,0.2502,0.0,0.0,0.2661,0.0,0.0,0.0,0.0,0.0,0.0,0.0,0.0,0.0,0.0,0.0,0.0,0.0,0.0,0.0,0.0,0.0,0.0,0.0,0.0,1.3159,1.3159,1.2982,1.2887,1.2887,1.2812,1.2771,1.2771,1.2812,1.2732,1.2617,1.2618,1.261,1.2501,1.2501,1.263,1.288,1.2718,1.2739,1.2873,1.2718,1.2766,1.2941,1.2901,1.2996,1.3146,1.2996,1.3037,1.3159,0.0,0.0,0.0,0.0,0.0,0.0,0.0,0.0,0.0,0.0,0.0,0.0,0.8452,0.7887,0.7474,0.7474,0.686,0.6561,0.6773,0.6996,0.7125,0.7204,0.721,0.0,0.721,0.7235,0.7235,0.721,0.721,0.7484,0.8036,0.834,0.8697,0.9114,0.9164,0.9104,0.8899,0.8757,0.8777,0.8788,0.0,0.0,0.0,0.0,0.0,0.0,0.0,0.0,0.0,0.0,0.0,0.0,0.0,0.0,0.0,0.0,0.0,0.0,0.2126,0.1904,0.2008,0.2109,0.2256,0.244,0.0,0.0,0.0,0.0,0.0,0.0,0.0,0.0,0.0,0.0,0.0,0.0,0.0,0.0,0.0,0.0,0.0,0.0,0.0,0.0,0.0,0.0,0.0,1.3009,1.3009,1.2691,1.2528,1.2528,1.2295,1.2145,1.2145,1.225,1.2318,1.2318,1.2447,1.2508,1.2501,1.2501,1.2508,1.2522,1.2515,1.2515,1.2522,1.2515,1.2603,1.2686,1.2583,1.2712,1.2996,1.28,1.284,1.3009,0.0,0.0,0.0,0.0,0.0,0.0,0.0,0.0,0.0,0.0,0.0,0.0,0.0,0.6922,0.6441,0.6441,0.629,0.6247,0.6337,0.653,0.6666,0.6686,0.6842,0.6942,0.6942,0.7116,0.7116,0.6942,0.6942,0.7149,0.755,0.7925,0.834,0.8745,0.9144,0.9247,0.9069,0.8892,0.0,0.0,0.0,0.0,0.0,0.0,0.0,0.0,0.0,0.0,0.0,0.0,0.0,0.0,0.0,0.0,0.0,0.0,0.2438,0.2363,0.1918,0.1843,0.1898,0.1994,0.2129,0.2226,0.2307,0.241,0.2493,0.0,0.0,0.0,0.0,0.0,0.0,0.0,0.0,0.0,0.0,0.0,0.0,0.0,0.0,0.0,0.0,0.0,0.0,0.0,0.0,0.0,1.2664,1.2379,1.2261,1.2261,1.2152,1.2098,1.2098,1.2152,1.2179,1.2179,1.2234,1.2271,1.2366,1.2264,1.2271,1.2366,1.2366,1.242,1.2501,1.2501,1.2535,1.2576,1.2522,1.263,1.2793,1.2644,1.2745,1.2989,0.0,0.0,0.0,0.0,0.0,0.0,0.0,0.0,0.0,0.7508,0.0,0.0,0.0,0.0,0.5923,0.5969,0.604,0.6129,0.6167,0.6295,0.6374,0.6412,0.6562,0.6667,0.6667,0.6836,0.6836,0.6667,0.6667,0.6816,0.7144,0.7523,0.7949,0.8429,0.8477,0.8717,0.9076,0.0,0.0,0.7015,0.0,0.0,0.3559,0.0,0.0,0.0,0.0,0.0,0.0,0.0,0.0,0.0,0.0,0.0,0.0,0.0,0.0,0.0,0.1792,0.1804,0.1836,0.1934,0.2027,0.2089,0.2144,0.0,0.0,0.0,0.0,0.0,0.0,0.0,0.0,0.0,0.0,0.0,0.0,0.0,0.0,0.0,0.0,0.0,0.0,0.0,0.0,0.0,0.0,0.0,1.2352,1.2074,1.19,1.1798,1.1846,1.1873,1.1873,1.1921,1.1938,1.1986,1.2077,1.2152,1.2247,1.2145,1.2159,1.2254,1.2271,1.2345,1.2433,1.2481,1.2501,1.2501,1.2501,1.2562,1.2598,1.2535,1.263,1.2839,0.0,0.0,0.0,0.0,0.0,0.0,0.0,0.0,0.6256,0.6798,0.0,0.0,0.0,0.0,0.0,0.6102,0.6112,0.6167,0.6287,0.6298,0.6323,0.6406,0.6412,0.6412,0.6412,0.6412,0.6412,0.6412,0.6412,0.6531,0.679,0.7133,0.763,0.8168,0.7131,0.7448,0.8678,0.0,0.7015,0.6776,0.0,0.3269,0.337,0.0,0.0,0.0,0.1501,0.1375,0.0,0.0,0.0,0.0,0.0,0.0,0.0,0.0,0.0,0.0,0.0,0.0,0.0,0.0,0.0,0.0,0.2082,0.0,0.0,0.0,0.0,0.0,0.0,0.0,0.0,0.0,0.0,0.0,0.0,0.0,0.0,0.0,0.0,0.0,0.0,0.0,0.0,0.0,0.0,1.2084,1.2084,1.1769,1.147,1.1206,1.1342,1.1382,1.1382,1.1538,1.1644,1.1786,1.1972,1.2091,1.2091,1.2091,1.2091,1.2098,1.221,1.2277,1.2298,1.244,1.2501,1.2501,1.2501,1.2501,1.2501,1.2501,1.2508,1.2528,0.0,0.0,0.0,0.0,0.0,0.0,0.5681,0.5436,0.5434,0.0,0.0,0.0,0.5817,0.5964,0.6051,0.6107,0.6189,0.6254,0.6293,0.6344,0.6379,0.6412,0.6412,0.6412,0.6412,0.6412,0.6412,0.6412,0.6412,0.6444,0.6515,0.6941,0.6829,0.6288,0.628,0.607,0.5709,0.5582,0.0,0.447,0.3291,0.2485,0.0,0.0,0.0,0.0,0.0,0.103,0.0,0.0,0.1049,0.1312,0.0,0.0,0.0,0.0,0.0,0.0,0.1795,0.0,0.0,0.0,0.0,0.0,0.0,0.0,0.0,0.0,0.0,0.0,0.0,0.0,0.0,0.0,0.0,0.0,0.0,0.0,0.0,0.0,0.0,0.0,0.0,0.0,0.0,0.0,1.1803,1.1742,1.1742,1.1457,1.1288,1.12,1.124,1.1261,1.1261,1.1375,1.147,1.1511,1.1667,1.1796,1.1891,1.1789,1.1796,1.1898,1.1901,1.202,1.2179,1.24,1.2501,1.2501,1.2501,1.2501,1.2501,1.2501,1.2569,1.2632,0.0,0.0,0.0,0.0,0.0,0.5585,0.5123,0.5139,0.5269,0.0,0.0,0.0,0.6018,0.6159,0.623,0.623,0.6295,0.6339,0.6339,0.6374,0.6412,0.6412,0.6412,0.6187,0.5737,0.5737,0.5507,0.5056,0.5069,0.5065,0.5065,0.5339,0.5226,0.4789,0.4543,0.4172,0.0,0.0,0.0,0.0,0.2155,0.0,0.0,0.086,0.0805,0.0,0.0,0.0,0.0911,0.0623,0.0831,0.0,0.0,0.0,0.0,0.0,0.0,0.0,0.0,0.0,0.0,0.0,0.0,0.0,0.1825,0.1891,0.0,0.0,0.0,0.0,0.0,0.0,0.0,0.0,0.0,0.0,0.0,0.0,0.0,0.0,0.0,0.0,0.0,0.0,0.0,1.1438,1.0902,1.0735,1.1218,1.1227,1.1111,1.0921,1.1009,1.107,1.107,1.1158,1.124,1.1336,1.145,1.1565,1.1647,1.159,1.1631,1.1712,1.1766,1.1884,1.1986,1.2291,1.2447,1.2501,1.2501,1.2501,1.2501,1.2501,1.2556,1.2605,0.0,0.0,0.4844,0.5009,0.525,0.5398,0.5425,0.5491,0.5545,0.0,0.5675,0.5914,0.6298,0.6399,0.6383,0.6253,0.6242,0.6162,0.6057,0.6032,0.6032,0.6032,0.6032,0.5607,0.4634,0.4634,0.4153,0.3198,0.3207,0.321,0.3213,0.3187,0.3321,0.351,0.2504,0.0,0.0,0.0,0.0,0.2277,0.0894,0.0549,0.0,0.0,0.062,0.0,0.0557,0.0621,0.081,0.0259,0.0412,0.0,0.0,0.0,0.0,0.0,0.1798,0.0,0.0,0.0,0.0,0.0,0.0,0.0,0.189,0.1857,0.1824,0.0,0.0,0.0,0.0,0.0,0.0,0.0,0.0,0.0,0.0,0.0,0.0,0.0,0.0,0.0,0.0,0.9601,0.9532,1.1015,0.9779,0.9364,1.0379,1.0738,1.0705,1.0299,1.0678,1.0887,1.0887,1.0907,1.0982,1.1172,1.1342,1.1389,1.1396,1.1552,1.1584,1.1626,1.1719,1.178,1.1813,1.2128,1.2332,1.2481,1.2494,1.2501,1.2501,1.2501,1.2501,1.2522,0.0,0.0,0.4912,0.5267,0.5359,0.5458,0.561,0.574,0.5811,0.5811,0.6081,0.6336,0.6535,0.6547,0.6221,0.5346,0.5174,0.4755,0.3877,0.3827,0.3827,0.3827,0.3827,0.3726,0.3525,0.35,0.3399,0.3198,0.3207,0.321,0.3213,0.3187,0.2768,0.2033,0.1792,0.1271,0.0495,0.0,0.0,0.0499,0.021,0.0,0.0536,0.0225,0.013,0.0197,0.0132,0.0133,0.0233,0.0,0.0479,0.0657,0.0,0.0,0.0,0.0,0.0,0.0,0.0,0.0,0.0,0.0,0.0,0.0,0.1823,0.1857,0.1872,0.0,0.0,0.0,0.0,0.0,0.0,0.0,0.0,0.0,0.0,0.0,0.0,0.0,0.0,0.0,0.0,0.7974,0.9102,1.0524,0.936,0.8678,0.8836,0.8968,0.9009,0.8971,1.0127,1.0732,1.0732,1.0853,1.0928,1.0961,1.126,1.1389,1.1396,1.1552,1.1584,1.1584,1.1611,1.1692,1.18,1.1861,1.2081,1.2345,1.2461,1.2501,1.2501,1.2501,1.2501,1.2522,0.0,0.495,0.5105,0.5404,0.5556,0.5697,0.5882,0.6007,0.5894,0.5275,0.4968,0.4838,0.4899,0.4964,0.4759,0.4168,0.4053,0.3775,0.3233,0.3207,0.3193,0.3193,0.3189,0.2959,0.2426,0.2405,0.2136,0.1607,0.1596,0.161,0.1598,0.1597,0.131,0.0793,0.0793,0.0494,0.0,0.0,0.0,0.0,0.0,0.0,0.0224,0.0065,0.0,0.0,0.0,0.0,0.0067,0.0391,0.0514,0.0,0.0,0.0941,0.0994,0.0,0.1542,0.1473,0.0,0.0,0.0,0.1866,0.0,0.0,0.0,0.1858,0.1836,0.1821,0.0,0.0,0.0,0.0,0.0,0.0,0.0,0.0,0.0,0.0,0.0,0.0,0.0,0.0,0.0,0.6298,0.6864,0.8237,0.8371,0.8349,0.8257,0.8338,0.8108,0.7416,0.8847,0.9608,0.9643,1.0425,1.0799,1.0806,1.1029,1.1206,1.1315,1.1436,1.1545,1.1584,1.1584,1.1624,1.1692,1.1766,1.1965,1.2227,1.2338,1.244,1.2501,1.2501,1.2501,1.2515,0.5011,0.4982,0.5007,0.5221,0.5303,0.5375,0.5527,0.563,0.536,0.442,0.3664,0.3259,0.3283,0.3356,0.3283,0.2968,0.2898,0.2801,0.0,0.0,0.2578,0.2578,0.2592,0.218,0.1303,0.1285,0.088,0.0,0.0,0.0,0.0,0.0,0.0,0.0,0.0,0.0,0.0,0.0,0.0,0.0,0.0,0.0,0.0,0.0,0.0,0.0,0.0,0.0,0.0034,0.0326,0.0,0.0514,0.0499,0.0643,0.0,0.0,0.0,0.0,0.0,0.0,0.0,0.0,0.0,0.1849,0.0,0.0,0.0,0.1791,0.0,0.0,0.0,0.0,0.0,0.0,0.0,0.0,0.0,0.0,0.0,0.0,0.0,0.0,0.0,0.5026,0.4946,0.6028,0.6948,0.7494,0.7666,0.7581,0.711,0.6234,0.7403,0.8111,0.8172,0.9536,1.0247,1.028,1.0665,1.0948,1.1159,1.1307,1.1457,1.1579,1.1606,1.1584,1.159,1.1705,1.1877,1.207,1.2216,1.2379,1.2501,1.2501,1.2501,1.2501,0.5004,0.4527,0.406,0.4381,0.3769,0.3313,0.3499,0.3535,0.355,0.3535,0.3439,0.3432,0.0,0.0,0.0,0.0,0.0,0.0,0.0426,0.0,0.0,0.0372,0.0371,0.0318,0.0186,0.0186,0.0133,0.0,0.0,0.0,0.0,0.0,0.0,0.0,0.0,0.0,0.0,0.0,0.0,0.0,0.0,0.0,0.0,0.0,0.0,0.0,0.0,0.0,0.0,0.0,0.0258,0.0514,0.0,0.0524,0.0,0.0,0.0,0.0,0.0,0.0,0.0,0.0,0.1997,0.0,0.0,0.0,0.1885,0.1804,0.0,0.0,0.0,0.0,0.0,0.0,0.0,0.0,0.0,0.0,0.0,0.0,0.0,0.0,0.0,0.0,0.5685,0.5835,0.4897,0.4864,0.6088,0.5219,0.5139,0.6166,0.6434,0.6543,0.6556,0.791,0.864,0.8775,1.0102,1.0792,1.0948,1.1267,1.1402,1.1423,1.1558,1.1584,1.1584,1.164,1.1728,1.1884,1.2176,1.2379,1.2501,1.2501,1.2501,1.2501,0.3553,0.3385,0.0,0.3445,0.319,0.3018,0.3172,0.2675,0.2295,0.2352,0.1805,0.1459,0.0,0.0,0.0,0.0,0.0,0.0495,0.0,0.0,0.0,0.0,0.0,0.0,0.0,0.0,0.0,0.0,0.0,0.0,0.0,0.0,0.0,0.0,0.0,0.0,0.0,0.0,0.0,0.0,0.0,0.0,0.0,0.0,0.0,0.0,0.0,0.0,0.0,0.0,0.0098,0.0,0.0,0.0,0.0,0.0,0.0,0.0,0.0,0.0,0.0,0.0,0.0,0.0,0.0,0.0,0.1843,0.0,0.0,0.0,0.0,0.0,0.0,0.0,0.0,0.0,0.0,0.0,0.0,0.0,0.0,0.0,0.0,0.0,0.0,0.0,0.4115,0.4065,0.47,0.4279,0.3939,0.3778,0.4604,0.5068,0.508,0.6458,0.7153,0.7228,0.7888,0.8773,0.9795,0.9986,1.0616,1.1525,1.1592,1.1584,1.1584,1.1584,1.1665,1.1807,1.1935,1.2169,1.2379,1.2379,1.2433,1.2515,0.1866,0.0,0.0,0.0,0.2327,0.22,0.2303,0.1654,0.0,0.0,0.0,0.0,0.0,0.0,0.0,0.0,0.0,0.0,0.0,0.0,0.0,0.0,0.0,0.0,0.0,0.0,0.0,0.0,0.0,0.0,0.0,0.0,0.0,0.0,0.0,0.0,0.0,0.0,0.0,0.0,0.0,0.0,0.0,0.0,0.0,0.0,0.0,0.0,0.0,0.0,0.0065,0.0,0.0032,0.0,0.0,0.0,0.0,0.0,0.1668,0.0,0.0,0.0,0.0,0.0,0.0,0.0,0.0,0.0,0.0,0.0,0.0,0.0,0.0,0.0,0.0,0.0,0.0,0.0,0.0,0.0,0.0,0.0,0.0,0.0,0.0,0.3169,0.3258,0.3432,0.3858,0.3537,0.3104,0.2552,0.3231,0.3609,0.3584,0.4986,0.5698,0.5725,0.6137,0.7042,0.8296,0.8381,0.9325,1.0886,1.0924,1.1178,1.1584,1.1584,1.1644,1.1739,1.1739,1.1959,1.223,1.2277,1.2352,1.2474,0.0236,0.0759,0.0,0.0,0.0,0.0,0.0,0.0,0.0,0.0,0.0,0.0,0.0,0.0,0.0,0.0,0.0,0.0,0.0,0.0,0.0,0.0,0.0,0.0,0.0,0.0,0.0,0.0,0.0,0.0,0.0,0.0,0.0,0.0,0.0,0.0,0.0,0.0,0.0,0.0,0.0,0.0,0.0,0.0,0.0,0.0,0.0,0.0,0.0,0.0,0.0231,0.0,0.0,0.0,0.0,0.0,0.0,0.0,0.0,0.0,0.0,0.1923,0.0,0.0,0.0,0.0,0.1967,0.0,0.0,0.0,0.0,0.0,0.0,0.0,0.0,0.0,0.0,0.0,0.0,0.0,0.0,0.0,0.0,0.0,0.0,0.1858,0.1864,0.2446,0.3728,0.2638,0.2533,0.3798,0.2701,0.2082,0.2083,0.3403,0.4123,0.4281,0.56,0.6291,0.6485,0.6703,0.7628,0.9098,0.9209,1.0149,1.1584,1.1584,1.1584,1.1626,1.1626,1.1809,1.2125,1.2237,1.2291,1.2338,0.0,0.0,0.0,0.0,0.0,0.0,0.0,0.0,0.0,0.0,0.0,0.0,0.0,0.0,0.0,0.0,0.0,0.0,0.0,0.0,0.0,0.0,0.0,0.0,0.0,0.0,0.0,0.0,0.0,0.0,0.0,0.0,0.0,0.0,0.0,0.0,0.0,0.0,0.0,0.0,0.0,0.0,0.0,0.0,0.0,0.0,0.0,0.0,0.0,0.0,0.0066,0.0163,0.0032,0.0064,0.0218,0.0438,0.0501,0.0,0.0,0.0,0.0968,0.1544,0.0,0.0,0.0,0.0,0.0,0.0,0.0,0.0,0.0,0.0,0.0,0.0,0.0,0.0,0.0,0.0,0.0,0.0,0.0,0.0,0.0,0.0,0.0,0.1743,0.1736,0.1963,0.2453,0.208,0.2067,0.2562,0.2216,0.199,0.199,0.2447,0.2703,0.2757,0.3256,0.406,0.507,0.524,0.6169,0.7684,0.8785,0.9576,1.0161,1.1181,1.1584,1.1584,1.1584,1.1735,1.1932,1.2081,1.2264,1.2474,0.0,0.0,0.0,0.0,0.0,0.0,0.0,0.0,0.0,0.0,0.0,0.0,0.0,0.0,0.0,0.0,0.0,0.0,0.0,0.0,0.0,0.0,0.0,0.0,0.0,0.0,0.0,0.0,0.0,0.0,0.0,0.0,0.0,0.0,0.0,0.0,0.0,0.0,0.0,0.0,0.0,0.0,0.0,0.0,0.0,0.0,0.0,0.0,0.0,0.0,0.0,0.0,0.0,0.0,0.0032,0.0254,0.0318,0.0382,0.0732,0.0677,0.0,0.1182,0.1148,0.0,0.1688,0.0,0.0,0.0,0.0,0.0,0.0,0.0,0.0,0.0,0.0,0.0,0.0,0.2222,0.0,0.0,0.0,0.0,0.0,0.0,0.1664,0.1686,0.1706,0.1742,0.0,0.0,0.1834,0.1883,0.1964,0.1992,0.1992,0.202,0.202,0.1992,0.2049,0.2609,0.3593,0.3707,0.4612,0.6136,0.7187,0.7954,0.8564,0.9543,1.0305,1.0786,1.0836,1.1272,1.1925,1.2064,1.2284,1.2617,0.0,0.0,0.0,0.0,0.0,0.0,0.0,0.0,0.0,0.0,0.0,0.0,0.0,0.0,0.0,0.0,0.0,0.0,0.0,0.0,0.0,0.0,0.0,0.0,0.0,0.0,0.0,0.0,0.0,0.0,0.0,0.0,0.0,0.0,0.0,0.0,0.0,0.0,0.0,0.0,0.0,0.0,0.0,0.0,0.0,0.0,0.0,0.0,0.0,0.0,0.0,0.0,0.0,0.0,0.0,0.0,0.0,0.0065,0.0388,0.0485,0.055,0.0904,0.0,0.0,0.0,0.0,0.147,0.0,0.0,0.0,0.0,0.0,0.0,0.0,0.0,0.0,0.0,0.0,0.0,0.0,0.0,0.0,0.0,0.1588,0.162,0.1679,0.1686,0.174,0.0,0.0,0.1824,0.1884,0.197,0.1985,0.1985,0.208,0.2081,0.1987,0.1989,0.2053,0.2113,0.2178,0.303,0.4496,0.457,0.5463,0.6898,0.697,0.7873,0.9193,0.9317,1.0441,1.1999,1.2081,1.2352,1.2706,0.0,0.0,0.0,0.0,0.0,0.0,0.0,0.0,0.0,0.0,0.0,0.0,0.0,0.0,0.0,0.0,0.0,0.0,0.0,0.0,0.0,0.0,0.0,0.0,0.0,0.0,0.0,0.0,0.0,0.0,0.0,0.0,0.0,0.0,0.0,0.0,0.0,0.0,0.0,0.0,0.0,0.0,0.0,0.0,0.0,0.0,0.0,0.0,0.0,0.0,0.0,0.0,0.0,0.0,0.0,0.0,0.0,0.0033,0.0098,0.0132,0.0199,0.0558,0.0621,0.0711,0.0,0.0,0.0,0.0,0.0,0.0,0.0,0.0,0.0,0.0,0.0,0.0,0.0,0.0,0.0,0.0,0.0,0.0,0.0,0.1601,0.1603,0.1619,0.1663,0.1704,0.0,0.0,0.0,0.1884,0.1952,0.1988,0.1988,0.207,0.2081,0.1987,0.2041,0.2117,0.2178,0.2198,0.2457,0.297,0.4148,0.4894,0.538,0.6536,0.7223,0.7593,0.7622,0.877,1.0556,1.188,1.2461,1.2596,0.0,0.0,0.0,0.0,0.0,0.0,-0.0125,0.0,0.0,0.0,0.0,0.0,0.0,0.0,0.0,0.0,0.0,0.0,0.0,0.0,0.0,0.0,0.0,0.0,0.0,0.0,0.0,0.0,0.0,0.0,0.0,0.0,0.0,0.0,0.0,0.0,0.0,0.0,0.0,0.0,0.0,0.0,0.0,0.0,0.0,0.0,0.0,0.0,0.0,0.0,0.0,0.0,0.0,0.0,0.0,0.0,0.0,0.0,0.0,0.0,0.0034,0.0233,0.0298,0.036,0.0703,0.0788,0.0779,0.0,0.0,0.0,0.0,0.0,0.0,0.0,0.0,0.0,0.0,0.0,0.0,0.0,0.0,0.0,0.0,0.1612,0.1602,0.1591,0.1624,0.0,0.0,0.0,0.0,0.1883,0.1976,0.2008,0.2008,0.208,0.2061,0.1987,0.2081,0.2135,0.221,0.2189,0.2233,0.2347,0.3268,0.3641,0.3714,0.4581,0.5377,0.6079,0.6817,0.7805,0.891,0.9943,1.125,1.2549,0.0,0.0,0.0,0.0,0.0,0.0,0.0,-0.0623,0.0,-0.0817,0.0,-0.0814,-0.0824,-0.0813,-0.0784,-0.0777,0.0,-0.0757,-0.0756,-0.0729,-0.076,-0.0706,-0.07,-0.0682,-0.0648,-0.0443,0.0,0.0,0.0,0.0,0.0,0.0,0.0,0.0,0.0,0.0,0.0,0.0,0.0,0.0,0.0,0.0,0.0,0.0,0.0,0.0,0.0,0.0,0.0,0.0,0.0,0.0,0.0,0.0,0.0,0.0,0.0,0.0,0.0,0.0,0.0,0.0,0.0,0.0066,0.0362,0.0446,0.0434,0.044,0.0677,0.0693,0.0,0.0,0.0,0.0,0.0,0.0,0.0,0.0,0.0,0.0,0.0,0.0,0.0,0.0,0.0,0.1589,0.0,0.0,0.0,0.0,0.0,0.1881,0.1972,0.0,0.2019,0.0,0.2084,0.2037,0.2095,0.2154,0.2207,0.2202,0.2245,0.2296,0.2296,0.2296,0.2296,0.2296,0.3139,0.4582,0.625,0.701,0.7201,0.7435,0.9343,1.1921,0.0,0.0,0.0,0.0,0.0,-0.282,-0.253,-0.3842,-0.4933,-0.518,-0.5112,-0.5079,-0.5267,-0.515,-0.5029,-0.502,-0.4935,0.0,0.0,0.0,0.0,-0.4535,-0.449,-0.4305,-0.3981,-0.273,-0.1971,0.0,0.0,0.0,0.0,0.0,0.0,0.0,0.0,0.0,0.0,0.0,0.0,0.0,0.0,0.0,0.0,0.0,0.0,0.0,0.0,0.0,0.0,0.0,0.0,0.0,0.0,0.0,0.0,0.0,0.0,0.0,0.0,0.0,0.0,0.0,0.0,0.0,0.0065,0.0095,0.0093,0.0093,0.0122,0.021,0.0297,0.0,0.0,0.0,0.0,0.0,0.0,0.0,0.0,0.0,0.0,0.0,0.0,0.0,0.0,0.0,0.0,0.0,0.0,0.0,0.0,0.0,0.1921,0.0,0.0,0.0,0.2117,0.2164,0.217,0.2173,0.2204,0.2268,0.2301,0.2296,0.2296,0.2296,0.2296,0.2296,0.251,0.2971,0.4638,0.5367,0.56,0.7006,0.7864,0.8632,0.0,0.0,0.0,0.0,0.0,0.0,0.0,-0.7878,0.0,-0.657,-0.6237,-0.6249,-0.6353,-0.6269,-0.6163,-0.6099,-0.5991,-0.5885,-0.5824,-0.5717,-0.5687,-0.5599,-0.5463,0.0,-0.5124,-0.4162,-0.3193,-0.2305,0.0,0.0,0.0,0.0,0.0,0.0,0.0,0.0,0.0,0.0,0.0,0.0,0.0,0.0,0.0,0.0,0.0,0.0,0.0,0.0,0.0,0.0,0.0,0.0,0.0,0.0,0.0,0.0,0.0,0.0,0.0,0.0,0.0,0.0,0.0,0.0,0.0,0.0,0.0,0.0,0.0,0.009,0.0355,0.0664,0.0,0.0,0.0,0.0,0.0,0.0,0.0,0.0,0.0,0.0,0.0,0.0,0.0,0.0,0.0,0.0,0.0,0.0,0.0,0.0,0.0,0.0,0.0,0.0,0.0,0.2189,0.2204,0.221,0.227,0.23,0.2284,0.2296,0.2296,0.2296,0.2297,0.235,0.2383,0.2501,0.3315,0.3668,0.3805,0.4625,0.5467,0.6537,0.0,-0.1142,0.0,0.0,-0.523,0.0,-0.8873,-1.0881,-1.1081,-0.8016,-0.7628,-0.7628,-0.7643,-0.7605,-0.7514,-0.7363,-0.724,-0.7115,-0.7071,-0.7011,-0.69,-0.6872,-0.6672,-0.6539,-0.6416,-0.5654,-0.4631,0.0,0.0,0.0,0.0,-0.0122,0.0,0.0,0.0,0.0,0.0,0.0,0.0,0.0,0.0,0.0,0.0,0.0,0.0,0.0,0.0,0.0,0.0,0.0,0.0,0.0,0.0,0.0,0.0,0.0,0.0,0.0,0.0,0.0,0.0,0.0,0.0,0.0,0.0,0.0,0.0,0.0,0.0,0.0091,0.0358,0.0592,0.0,0.0,0.0,0.0,0.0,0.0,0.0,0.0,0.0,0.0,0.0,0.0,0.0,0.0,0.0,0.0,0.0,0.0,0.0,0.0,0.0,0.1879,0.2005,0.0,0.2201,0.0,0.2204,0.2244,0.2292,0.2284,0.2296,0.2296,0.2296,0.2296,0.2299,0.2365,0.2395,0.2389,0.2457,0.2488,0.2515,0.2522,0.3409,0.4758,0.0,0.0,0.0,0.0,0.0,0.0,-0.9202,-1.0931,-1.2137,-1.1962,-1.194,-1.1987,-1.2086,-1.1961,-1.1725,-1.1491,-1.1325,-1.117,-1.0991,-1.0965,-1.0908,-1.0794,-1.0517,-1.018,-0.9774,-0.7992,-0.6794,0.0,0.0,0.0,0.0,0.0,0.0,0.0,0.0,0.0,0.0,0.0,0.0,0.0,0.0,0.0,0.0,0.0,0.0,0.0,0.0,0.0,0.0,0.0,0.0,0.0,0.0,0.0,0.0,0.0,0.0,0.0,0.0,0.0,0.0,0.0,0.0,0.0,0.0,0.0,0.0,0.0,0.0,0.0092,0.043,0.027,0.0294,0.0,0.0,0.0,0.0,0.0,0.0,0.0,0.0,0.0,0.0,0.0,0.0,0.0,0.0,0.0,0.0,0.0,0.0,0.1884,0.0,0.173,0.2099,0.2163,0.221,0.2202,0.2267,0.2285,0.2292,0.2284,0.2296,0.2296,0.2296,0.2296,0.2299,0.2365,0.2395,0.2389,0.2457,0.2488,0.2518,0.2585,0.2677,0.2848,0.0,0.0,0.0,0.0,0.0,0.0,0.0,-1.1836,-1.2449,-1.2618,-1.2531,-1.2526,-1.2498,-1.246,-1.2301,-1.2009,-1.1884,-1.1748,-1.1574,-1.1537,-1.1477,-1.1428,-1.1085,-1.0829,-1.0639,-0.9428,-0.8213,0.0,0.0,0.0,0.0,0.0,0.0,0.0,0.0,-0.0778,0.0,0.0,0.0,0.0,0.0,0.0,0.0,0.0,0.0,0.0,0.0,0.0,0.0,0.0,0.0,0.0,0.0,0.0,0.0,0.0,0.0,0.0,0.0,0.0,0.0,0.0,0.0,0.0,0.0,0.0,0.0,0.0,0.0,0.0031,0.0185,0.0244,0.0333,0.0,0.0,0.0,0.0,0.0,0.0,0.0,0.0,0.0,0.0,0.0,0.0,0.0,0.0,0.0,0.0,0.0,0.0,0.1589,0.0,0.1696,0.2082,0.2161,0.2215,0.221,0.2277,0.23,0.2316,0.2291,0.2296,0.2296,0.2296,0.2307,0.2363,0.2393,0.2423,0.2454,0.2484,0.2503,0.2518,0.2588,0.2611,0.259,-0.7299,0.0,-0.8006,0.0,-0.9964,-1.0552,-1.2219,-1.2531,-1.2613,-1.2694,-1.2634,-1.2542,-1.2422,-1.2439,-1.2378,-1.2015,-1.1917,-1.1803,-1.16,-1.152,-1.1499,-1.1499,-1.1177,0.0,-1.0922,-1.0273,-0.9292,-0.7933,-0.622,0.0,0.0,0.0,0.0,0.0,-0.2737,-0.1967,-0.0629,-0.0629,-0.0367,0.0,0.0,0.0,0.0,0.0,0.0,0.0,0.0,0.0,0.0,0.0,0.0,0.0,0.0,0.0,0.0,0.0,0.0,0.0,0.0,0.0,0.0,0.0,0.0,0.0,0.0,0.0064,0.0157,0.0155,0.0062,0.0,0.0,0.0185,0.0309,0.0154,0.0,0.0,0.0,0.0,0.0,0.0,0.0,0.0374,0.0406,0.0,0.0,0.0,0.0,0.0,0.0,0.0,0.0,0.0,0.0,0.0,0.0,0.21,0.2189,0.221,0.2285,0.2318,0.231,0.2209,0.2137,0.2137,0.2137,0.226,0.2394,0.2424,0.245,0.251,0.2503,0.2519,0.2532,0.2602,0.259,0.2619,-1.1129,-1.1221,-1.141,-1.2058,-1.2161,-1.2281,-1.2645,-1.27,-1.2705,-1.2705,-1.2705,-1.2661,-1.2499,-1.2634,-1.2509,-1.2031,-1.1987,-1.1889,-1.1605,-1.152,-1.1499,0.0,0.0,-1.1156,-1.0927,-1.0563,-1.0085,-0.9487,0.0,0.0,-0.6304,0.0,-0.4267,-0.4258,-0.4258,-0.3457,-0.2084,-0.2084,-0.1277,0.0,0.0,0.0,0.0,0.0,0.0,0.0,0.0,0.0,0.0,0.0,0.0,0.0,0.0,0.0,0.0,0.0,0.0,0.0,0.0,0.0,0.0,0.0,0.0,0.0,0.0,0.0255,0.0503,0.0496,0.0216,0.0,0.0,0.0,0.0123,0.0432,0.0,0.0,0.0,0.0,0.0,0.0,0.0924,0.1065,0.0448,0.0,0.0,0.0,0.0,0.0,0.0,0.0,0.0,0.0913,0.1031,0.0,0.1614,0.1993,0.221,0.2212,0.2268,0.2348,0.2379,0.1995,0.1816,0.1816,0.1816,0.2044,0.2387,0.2455,0.2507,0.251,0.2503,0.2533,0.2603,0.259,0.262,0.2609,-1.1493,-1.165,-1.1892,-1.217,-1.229,-1.2438,-1.2661,-1.2705,-1.2732,-1.2819,-1.283,-1.2781,-1.2661,-1.2613,-1.246,0.0,-1.2159,-1.2015,0.0,-1.1645,-1.158,-1.158,-1.1384,-1.1199,-1.1047,-1.077,-1.0373,-0.9851,0.0,0.0,0.0,-0.6111,-0.5863,-0.5851,-0.5762,-0.4931,-0.3591,-0.3591,-0.2754,-0.1446,-0.1446,-0.0841,0.0,0.0,0.0,0.0,0.0,0.0,0.0,0.0,0.0,0.0,0.0,0.0,0.0,0.0,0.0,0.0,0.0,0.0,0.0,0.0,0.0,0.0,0.0,0.0257,0.0441,0.022,0.0249,0.0278,0.0031,0.0,0.0031,0.0154,0.0062,0.0,0.0,0.0,0.0,0.0,0.0303,0.0333,0.0,0.0474,0.0,0.0,0.0,0.0,0.0,0.0,0.0,0.0,0.0948,0.0,0.1604,0.2003,0.2221,0.2277,0.2043,0.1821,0.1581,0.1436,0.1401,0.1401,0.1666,0.1864,0.2033,0.2349,0.2481,0.2503,0.2533,0.2592,0.2606,0.2615,0.2597,0.261,-1.183,-1.1955,-1.2123,-1.2335,-1.2401,-1.2504,-1.2738,-1.2776,-1.2803,-1.2879,-1.2846,-1.2808,-1.2776,-1.2629,0.0,-1.2319,-1.2265,-1.2156,-1.1966,-1.1708,-1.1589,-1.1589,-1.1444,-1.133,-1.1166,0.0,0.0,-1.0161,-0.8819,-0.7997,-0.7673,-0.75,-0.7435,-0.7431,-0.7291,-0.6439,-0.5098,-0.5098,-0.3926,-0.2084,-0.2084,-0.1244,0.0,0.0,0.0,0.0,0.0,0.0,0.0,0.0,0.0,0.0,0.0,0.0,0.0,0.0,0.0,0.0,0.0,0.0,0.0,0.0,0.0,0.0067,0.033,0.0453,0.0477,0.0379,0.0439,0.0404,0.0062,0.0,0.0,0.0,0.0,0.0,0.0,0.0,0.0,0.0,0.0,0.0,0.0,0.0313,0.0,0.0,0.0,0.0,0.0,0.0,0.0,0.0308,0.0674,0.0,0.1424,0.1813,0.2023,0.2077,0.1734,0.1356,0.0992,0.0958,0.096,0.0998,0.1228,0.1542,0.1864,0.2136,0.238,0.2518,0.2588,0.2606,0.2582,0.2589,0.2613,0.2625,-1.2145,-1.2225,0.0,0.0,-1.2618,0.0,-1.2852,-1.289,-1.2884,-1.2879,-1.2776,-1.2743,-1.2852,-1.2667,-1.2488,-1.2488,0.0,0.0,0.0,-1.1841,-1.16,-1.1589,-1.152,-1.1439,-1.1308,-1.1047,-1.0742,-1.0362,-0.9666,-0.9269,-0.9109,-0.8905,-0.8825,-0.8814,-0.8688,-0.7856,-0.6543,-0.6543,-0.4934,-0.2386,-0.2286,-0.1412,-0.0135,-0.0034,0.0,0.0,0.0,0.0,0.0,0.0,0.0,0.0,0.0,0.0,0.0,0.0,0.0,0.0,0.0,0.0,0.0,0.0,0.0,0.0168,0.0795,0.0719,0.058,0.0858,0.0696,0.0409,0.0062,0.0,0.0,0.0,0.0,0.0,0.0,0.0,0.0,0.0,0.0,0.0,0.0,0.038,0.0264,0.0,0.0,0.0,0.0,0.0,0.0275,0.0062,0.0327,0.0679,0.1104,0.1485,0.1648,0.1617,0.1305,0.0954,0.0541,0.0547,0.055,0.055,0.0589,0.106,0.1807,0.1886,0.2121,0.2479,0.2548,0.2617,0.2605,0.2594,0.2625,0.2692,0.0,0.0,-1.2443,-1.2656,-1.2683,-1.2716,-1.2863,-1.289,-1.2852,-1.2759,-1.2721,-1.2683,-1.2574,-1.252,-1.2488,-1.2488,-1.2422,-1.2312,-1.2047,-1.1873,-1.1692,-1.1594,-1.152,-1.1401,-1.115,-1.109,-1.0748,-1.0106,-0.9753,-0.9476,-0.9258,-0.9117,-0.8962,-0.887,-0.878,-0.8503,-0.8084,-0.8084,-0.7045,-0.5302,-0.4227,-0.2922,-0.1479,-0.0404,0.0,0.0,0.0,0.0,0.0,0.0,0.0,0.0,0.0,0.0,0.0,0.0,0.0,0.0,0.0,0.0,0.0,0.0,0.0,0.0034,0.0201,0.0364,0.0459,0.0261,0.0388,0.0384,0.0063,0.0,0.0,0.0,0.0,0.0,0.0,0.0,0.0,0.0,0.0086,0.0087,0.0089,0.0089,0.0059,0.0,0.0,0.0,0.0,0.0063,0.0192,0.0454,0.0499,0.0723,0.1187,0.1219,0.1126,0.0859,0.0761,0.0541,0.0156,0.0157,0.0157,0.0157,0.0471,0.0707,0.0942,0.1611,0.1964,0.2084,0.2468,0.2617,0.2605,0.2594,0.2625,0.2692,-1.239,-1.2471,-1.2574,-1.2759,-1.2743,-1.2743,-1.2868,-1.2841,-1.2781,-1.2716,-1.2613,-1.2542,-1.2488,-1.2439,-1.239,-1.2449,-1.2438,-1.2323,-1.2085,-1.1911,-1.1719,-1.1594,-1.152,-1.1412,-1.1183,-1.1074,-1.0721,-1.0101,-0.9813,-0.9638,-0.9465,-0.9206,-0.9065,-0.8995,-0.887,-0.8818,-0.8747,-0.8693,-0.7824,-0.6365,-0.4876,-0.3423,-0.195,-0.0538,0.0,0.0,0.0,0.0,0.0,0.0,0.0,0.0,0.0,0.0,0.0,0.0,0.0,0.0,0.0,0.0,0.0,0.0,0.0,0.0034,0.0202,0.0368,0.0465,0.0264,0.036,0.0389,0.0063,0.0,0.0,0.0,0.0,0.0,0.0,0.0,0.0,0.0,0.0,0.0,0.0,0.0,0.0,0.0,0.0,0.0,0.0,0.0,0.01,0.0333,0.0275,0.0496,0.0912,0.0879,0.0782,0.0611,0.0423,0.0195,0.0,0.0,0.0,0.0,0.0236,0.0432,0.0628,0.1099,0.1532,0.1928,0.2203,0.2427,0.2607,0.2652,0.2677,0.2692,-1.2683,-1.2705,-1.2743,-1.2868,-1.2819,-1.2786,-1.2873,-1.2797,-1.2721,-1.2683,-1.2504,-1.2406,-1.2477,-1.2314,-1.2274,-1.2339,-1.2345,-1.2296,-1.2176,-1.1911,-1.1692,-1.1567,-1.1509,-1.1434,-1.1248,-1.0982,-1.0628,-1.0204,-0.9862,-0.9714,-0.9671,-0.9329,-0.913,-0.9092,-0.8989,-0.8935,-0.8908,-0.8823,-0.8088,-0.6808,-0.5228,-0.3725,-0.2286,-0.0841,-0.0168,0.0,0.0,0.0,0.0,0.0,0.0,0.0,0.0,0.0,0.0,0.0,0.0,0.0,0.0,0.0,0.0,0.0,0.0,0.0067,0.037,0.0438,0.0436,0.0431,0.043,0.0328,0.0064,0.0,0.0032,0.0062,0.0031,0.003,0.006,0.0,0.0,0.0,0.0,0.0,0.0,0.0,0.0,0.0,0.0,0.0,0.0,0.0,0.0,0.0,0.0,0.0146,0.0514,0.0526,0.0497,0.0503,0.0155,0.0,0.0,0.0,0.0,0.0,0.0,0.0197,0.0512,0.059,0.1021,0.1732,0.1929,0.219,0.2526,0.266,0.2684,0.2692,-1.2683,-1.2705,-1.2743,-1.2868,-1.296,-1.2988,-1.2901,-1.2873,-1.2786,-1.2537,-1.2482,-1.2439,-1.2248,-1.2334,-1.2296,-1.2063,-1.2047,-1.1998,-1.1879,-1.1697,-1.1612,-1.1532,-1.151,-1.1395,-1.1134,-1.0693,-1.0384,-1.0204,-0.9938,-0.9709,-0.9514,-0.9459,-0.9323,-0.9098,-0.9082,-0.9011,-0.8908,-0.8823,-0.8667,-0.8316,-0.6715,-0.5232,-0.3792,-0.2318,-0.1042,0.0,0.0,0.0,0.0,0.0,0.0,0.0,0.0,0.0,0.0,0.0,0.0,0.0,0.0,0.0,0.0,0.0,0.0,0.0,0.0067,0.0067,0.0067,0.0067,0.0067,0.0067,0.0,0.0,0.0096,0.0372,0.0185,0.0092,0.0393,0.0,0.0,0.0,0.0,0.0,0.0,0.0,0.0,0.0,0.0,0.0,0.0,0.0,0.0,0.0,0.0,0.0037,0.0075,0.0077,0.0078,0.0078,0.004,0.0,0.0,0.0,0.0,0.0,0.0,0.004,0.012,0.0473,0.0668,0.0864,0.1617,0.1999,0.2117,0.249,0.2649,0.2692,-1.2852,-1.2901,-1.2939,-1.3058,-1.302,-1.2977,-1.2988,-1.2825,-1.2683,-1.2634,-1.2515,-1.2395,-1.2329,-1.2307,-1.223,-1.2004,-1.1933,-1.1846,-1.1681,-1.1621,-1.158,-1.1504,-1.1434,-1.1292,-1.1009,-1.0596,-1.0356,-1.0302,-0.9948,-0.9753,-0.9622,-0.9519,-0.9394,-0.919,-0.919,-0.9157,-0.9092,-0.8943,-0.8867,-0.8713,-0.7074,-0.557,-0.4127,-0.2653,-0.121,0.0,0.0,0.0,0.0,0.0,0.0,0.0,0.0,0.0,0.0,0.0,0.0,0.0,0.0,0.0,0.0,0.0,0.0,0.0,0.0,0.0,0.0,0.0,0.0,0.0,0.0,0.0,0.0064,0.019,0.0094,0.0,0.0,0.0093,0.0,0.0,0.0,0.0,0.0,0.0,0.0,0.0,0.0,0.0,0.0,0.0,0.0,0.0,0.0,0.0,0.0,0.0,0.0,0.0,0.0,0.0,0.0,0.0,0.0,0.0,0.0,0.0,0.0,0.0197,0.0393,0.0669,0.1315,0.1733,0.2038,0.2474,0.2668,0.2692,-1.2933,-1.3009,-1.3053,-1.314,-1.3009,-1.2922,-1.3065,-1.277,-1.2558,-1.2694,-1.2526,-1.2432,-1.2405,-1.2318,-1.2198,-1.1998,-1.1884,-1.1719,-1.16,-1.1612,-1.1552,-1.1504,-1.1357,-1.115,-1.0965,-1.0612,-1.0411,-1.0384,-1.0047,-0.9807,-0.9703,-0.9546,-0.9421,-0.9302,-0.9302,-0.9302,-0.9291,-0.9017,-0.8919,-0.8793,-0.7463,-0.6071,-0.4629,-0.3157,-0.1714,-0.0437,-0.0101,0.0,0.0,0.0,0.0,0.0,0.0,0.0,0.0,0.0,0.0,0.0,0.0,0.0,0.0,0.0,0.0,0.0,0.0,0.0,0.0,0.0,0.0,0.0,0.0,0.0,0.0032,0.0096,0.0,0.0,0.0,0.0063,0.0,0.0,0.0,0.0,0.0,0.0,0.0,0.0,0.0,0.0,0.0,0.0,0.0,0.0,0.0,0.0,0.0,0.0,0.0,0.0,0.0,0.0,0.0,0.0,0.0,0.0,0.0,0.0,0.0,0.0,0.0196,0.0512,0.1085,0.1462,0.1795,0.2455,0.2603,0.2566,-1.2727,-1.2825,-1.2901,-1.2912,-1.2901,-1.289,-1.2901,-1.2781,-1.2694,-1.2705,-1.2596,-1.2482,-1.2416,-1.2394,-1.2296,-1.2009,-1.1884,-1.1719,-1.16,-1.1531,-1.151,-1.1499,-1.1237,-1.1107,-1.109,-1.0773,-1.0533,-1.0384,-1.0134,-0.9889,-0.9703,-0.9546,-0.9421,-0.9302,-0.9302,-0.9302,-0.9291,-0.9017,-0.8919,-0.8863,-0.8547,-0.7545,-0.6109,-0.4663,-0.3222,-0.1782,-0.0471,0.0,0.0,0.0,0.0,0.0,0.0,0.0,0.0,0.0,0.0,0.0,0.0,0.0,0.0,0.0,0.0,0.0,0.0,0.0,0.0,0.0,0.0,0.0,0.0,0.0,0.0098,0.0413,0.0,0.0,0.041,0.0189,0.0,0.0,0.0,0.0,0.0,0.0,0.0,0.0,0.0,0.0,0.0,0.0,0.0,0.0,0.0,0.0,0.0,0.0,0.0,0.0,0.0,0.0,0.0,0.0,0.0,0.0,0.0,0.0,0.0,0.0,0.0,0.0118,0.0956,0.1088,0.0937,0.2145,0.2376,0.2104,-1.2776,-1.2857,-1.2933,-1.308,-1.2982,-1.289,-1.289,-1.2727,-1.2602,-1.2602,-1.2498,-1.2406,-1.241,-1.2334,-1.2219,-1.2004,-1.1884,-1.1719,-1.16,-1.152,-1.1466,-1.139,-1.1188,-1.1069,-1.0992,-1.0634,-1.0433,-1.0384,-1.0063,-0.9824,-0.9703,-0.9546,-0.9421,-0.9302,-0.9231,-0.9237,-0.928,-0.897,-0.8849,-0.8897,-0.8687,-0.7717,-0.6343,-0.5804,-0.4129,-0.2017,-0.1479,-0.074,0.0,0.0,0.0,0.0,0.0,0.0,0.0,0.0,0.0,0.0,0.0,0.0,0.0,0.0,0.0,0.0,0.0,0.0,0.0,0.0,0.0,0.0,0.0,0.0,0.0033,0.0164,0.0,0.0032,0.0162,0.0065,0.0,0.0,0.0,0.0,0.0,0.0,0.0,0.0,0.0,0.0,0.0,0.0,0.0,0.0,0.0,0.0,0.0,0.0,0.0,0.0,0.0,0.0,0.0,0.0,0.0,0.0,0.0,0.0,0.0,0.0,0.0,0.008,0.0691,0.0819,0.0824,0.1832,0.2137,0.2061,-1.2721,-1.2808,-1.2879,-1.3042,-1.2906,-1.2776,-1.2776,-1.2607,-1.2493,-1.2482,-1.2428,-1.2405,-1.2405,-1.229,-1.214,-1.2053,-1.1906,-1.174,-1.1654,-1.1547,-1.1444,-1.1319,-1.1161,-1.1047,-1.0879,-1.0606,-1.0422,-1.0384,-0.998,-0.9758,-0.972,-0.9519,-0.9405,-0.9356,-0.9242,-0.9174,-0.9231,-0.8948,-0.8856,-0.8843,-0.8671,-0.7984,-0.7045,-0.6577,-0.5168,-0.3325,-0.242,-0.1479,-0.0606,-0.0135,0.0,0.0,0.0,0.0,0.0,0.0,0.0,0.0,0.0,0.0,0.0,0.0,0.0,0.0,0.0,0.0,0.0,0.0,0.0,0.0,0.0,0.0,0.0,0.0,0.0,0.0,0.0,0.0,0.0,0.0,0.0,0.0,0.0,0.0,0.0,0.0,0.0,0.0,0.0,0.0,0.0,0.0,0.0,0.0,0.0,0.0,0.0,0.0,0.0,0.0,0.0,0.0,0.0,0.0,0.0,0.0,0.0,0.0,0.0,0.0041,0.0536,0.0621,0.0622,0.1634,0.1892,0.1851,-1.2509,-1.2623,-1.27,-1.2705,-1.2613,-1.2488,-1.2488,-1.2433,-1.2395,-1.2472,-1.2428,-1.24,-1.24,-1.229,-1.2219,-1.2219,-1.1955,-1.1819,-1.1819,-1.159,-1.1444,-1.1319,-1.1161,-1.1047,-1.0879,-1.0683,-1.0538,-1.0384,-0.998,-0.9802,-0.9791,-0.9476,-0.9372,-0.9481,-0.9356,-0.9242,-0.9092,-0.8968,-0.8843,-0.8792,-0.8672,-0.859,-0.8456,-0.6978,-0.641,-0.6042,-0.3157,-0.2118,-0.1882,-0.0471,0.0,0.0,0.0,0.0,0.0,0.0,0.0,0.0,0.0,0.0,0.0,0.0,0.0,0.0,0.0,0.0,0.0,0.0,0.0,0.0,0.0,0.0,0.0,0.0,0.0,0.0,0.0,0.0,0.0,0.0,0.0,0.0,0.0,0.0,0.0,0.0,0.0,0.0,0.0,0.0,0.0,0.0,0.0,0.0,0.0,0.0,0.0,0.0,0.0,0.0,0.0,0.0,0.0,0.0,0.0,0.0,0.0,0.0,0.0,0.0041,0.0495,0.0414,0.0166,0.1509,0.1682,0.1432,-1.2432,-1.2481,-1.2487,-1.2569,-1.2509,-1.2455,-1.2422,-1.2427,-1.2383,-1.2286,-1.2248,-1.2274,-1.2274,-1.2241,-1.2181,-1.2053,-1.1906,-1.1748,-1.1619,-1.1543,-1.1406,-1.1161,-1.1123,-1.1047,-1.0879,-1.0683,-1.0538,-1.0384,-1.0101,-0.9883,-0.9796,-0.9644,-0.9536,-0.9481,-0.9356,-0.9242,-0.9087,-0.891,-0.8802,-0.8803,-0.8765,-0.8699,-0.8562,-0.821,-0.7377,-0.6172,-0.4294,-0.2989,-0.1882,-0.0471,0.0,0.0,0.0,0.0,0.0,0.0,0.0,0.0,0.0,0.0,0.0,0.0,0.0,0.0,0.0,0.0,0.0,0.0,0.0,0.0,0.0,0.0,0.0,0.0,0.0,0.0,0.0,0.0,0.0,0.0,0.0,0.0,0.0,0.0,0.0,0.0,0.0,0.0,0.0,0.0,0.0,0.0,0.0,0.0,0.0,0.0,0.0,0.0,0.0,0.0,0.0,0.0,0.0,0.0,0.0,0.0,0.0,0.0,0.0,0.0,0.0167,0.0126,0.0085,0.0801,0.1184,0.1403,-1.2378,-1.2405,-1.2427,-1.2449,-1.2466,-1.2422,-1.235,-1.2329,-1.2301,-1.223,-1.2219,-1.2219,-1.2219,-1.2219,-1.217,-1.1998,-1.1841,-1.1661,-1.151,-1.1499,-1.1395,-1.1112,-1.1101,-1.102,-1.0809,-1.0697,-1.056,-1.0495,-1.021,-1.0052,-0.9937,-0.9813,-0.9699,-0.9622,-0.9503,-0.9383,-0.9264,-0.9063,-0.8954,-0.891,-0.8861,-0.8796,-0.8736,-0.8792,-0.8212,-0.7166,-0.5681,-0.421,-0.2743,-0.1322,-0.0477,0.0,0.0,0.0,0.0,0.0,0.0,0.0,0.0,0.0,0.0,0.0,0.0,0.0,0.0,0.0,0.0,0.0,0.0,0.0,0.0,0.0,0.0,0.0,0.0,0.0,0.0,0.0,0.0,0.0,0.0,0.0,0.0,0.0,0.0,0.0,0.0,0.0,0.0,0.0,0.0,0.0,0.0,0.0,0.0,0.0,0.0,0.0,0.0,0.0,0.0,0.0,0.0,0.0,0.0,0.0,0.0,0.0,0.0,0.0,0.0,0.0,0.0043,0.051,0.085,0.1111,-1.2367,-1.2383,-1.2383,-1.2383,-1.2383,-1.235,-1.2236,-1.2219,-1.2219,-1.2219,-1.2219,-1.2219,-1.2219,-1.2209,-1.2107,-1.1982,-1.1754,-1.1574,-1.1504,-1.1499,-1.1395,-1.1128,-1.1107,-1.0992,-1.0717,-1.0634,-1.0609,-1.0599,-1.034,-1.0231,-1.0215,-0.9943,-0.9823,-0.9813,-0.9737,-0.9643,-0.9465,-0.9351,-0.9231,-0.9076,-0.8973,-0.8924,-0.8908,-0.884,-0.883,-0.8599,-0.7002,-0.5599,-0.429,-0.2645,-0.118,0.0,0.0,0.0,0.0,0.0,0.0,0.0,0.0,0.0,0.0,0.0,0.0,0.0,0.0,0.0,0.0,0.0,0.0,0.0,0.0,0.0,0.0,0.0,0.0,0.0,0.0,0.0,0.0,0.0,0.0,0.0,0.0,0.0,0.0,0.0,0.0,0.0,0.0,0.0,0.0,0.0,0.0,0.0,0.0,0.0,0.0,0.0,0.0,0.0,0.0,0.0,0.0,0.0,0.0,0.0,0.0,0.0,0.0,0.0,0.0,0.0,0.0043,0.047,0.0684,0.077,-1.2252,-1.2258,-1.2258,-1.2258,-1.2258,-1.2252,-1.2225,-1.2219,-1.2219,-1.2219,-1.2219,-1.2219,-1.2219,-1.2132,-1.1982,-1.1868,-1.1634,-1.1526,-1.1499,-1.1499,-1.1434,-1.1243,-1.115,-1.1031,-1.0842,-1.0759,-1.065,-1.0599,-1.0544,-1.0473,-1.0346,-1.0193,-1.0074,-0.9937,-0.9818,-0.9633,-0.934,-0.9313,-0.9147,-0.8962,-0.9033,-0.9,-0.8924,-0.8995,-0.8962,-0.8697,-0.7247,-0.6521,-0.5844,-0.3169,-0.1267,0.0,0.0,0.0,0.0,0.0,0.0,0.0,0.0,0.0,0.0,0.0,0.0,0.0,0.0,0.0,0.0,0.0,0.0,0.0,0.0,0.0,0.0,0.0,0.0,0.0,0.0,0.0,0.0,0.0,0.0,0.0,0.0,0.0,0.0,0.0,0.0,0.0,0.0,0.0,0.0,0.0,0.0,0.0,0.0,0.0,0.0,0.0,0.0,0.0,0.0,0.0,0.0,0.0,0.0,0.0,0.0,0.0,0.0,0.0,0.0,0.0,0.0,0.0128,0.0382,0.0769,-1.2219,-1.2219,-1.2219,-1.2219,-1.2219,-1.2219,-1.2219,-1.2219,-1.2219,-1.2219,-1.2219,-1.2219,-1.2219,-1.2063,-1.1917,-1.1703,-1.1563,-1.1499,-1.1499,-1.1499,-1.1444,-1.1319,-1.1161,-1.1047,-1.0879,-1.076,-1.0663,-1.0645,-1.0645,-1.0579,-1.0506,-1.0346,-1.0226,-1.0101,-0.9943,-0.978,-0.9639,-0.9525,-0.9405,-0.9291,-0.9237,-0.9141,-0.9087,-0.9092,-0.906,-0.889,-0.8094,-0.7366,-0.6461,-0.4196,-0.24,-0.1083,-0.109,-0.0588,0.0,0.0,0.0,0.0,0.0,0.0,0.0,0.0,0.0,0.0,0.0,0.0,0.0,0.0,0.0,0.0,0.0,0.0,0.0,0.0,0.0,0.0,0.0,0.0,0.0,0.0,0.0,0.0,0.0,0.0,0.0,0.0,0.0,0.0,0.0,0.0,0.0,0.0,0.0,0.0,0.0,0.0,0.0,0.0,0.0,0.0,0.0,0.0,0.0,0.0,0.0,0.0,0.0,0.0,0.0,0.0,0.0,0.0,0.0,0.0,0.017,0.0382,-1.2219,-1.2219,-1.2219,-1.2219,-1.2219,-1.2219,-1.2219,-1.2219,-1.2219,-1.2219,-1.2219,-1.2219,-1.2219,-1.2047,-1.1873,-1.161,-1.1525,-1.1499,-1.1499,-1.1499,-1.1455,-1.1352,-1.1172,-1.1052,-1.0954,-1.0766,-1.0695,-1.0695,-1.0695,-1.0683,-1.0626,-1.0511,-1.0351,-1.0226,-1.0106,-1.003,-0.9937,-0.978,-0.9725,-0.9687,-0.9449,-0.9367,-0.9356,-0.9264,-0.919,-0.9174,-0.9076,-0.8099,-0.6705,-0.5531,-0.4058,-0.2714,-0.2405,-0.1452,-0.0375,-0.0076,0.0,0.0,0.0,0.0,0.0,0.0,0.0,0.0,0.0,0.0,0.0,0.0,0.0,0.0,0.0,0.0,0.0,0.0,0.0,0.0,0.0,0.0,0.0,0.0,0.0,0.0,0.0,0.0,0.0,0.0,0.0,0.0,0.0,0.0,0.0,0.0,0.0,0.0,0.0,0.0,0.0,0.0,0.0,0.0,0.0,0.0,0.0,0.0,0.0,0.0,0.0,0.0,0.0,0.0,0.0,0.0,0.0,0.0,0.0,0.0,-1.2219,-1.2219,-1.2219,-1.2219,-1.2219,-1.2219,-1.2219,-1.2219,-1.2219,-1.2219,-1.2219,-1.2219,-1.2219,-1.1976,-1.1786,-1.1605,-1.1525,-1.1499,-1.1499,-1.1499,-1.1494,-1.1477,-1.1221,-1.1096,-1.1079,-1.0809,-1.0695,-1.0695,-1.0695,-1.0684,-1.0668,-1.0631,-1.0511,-1.0356,-1.0231,-1.0024,-0.9823,-0.9791,-0.9758,-0.9703,-0.9671,-0.966,-0.9654,-0.9643,-0.9633,-0.9633,-0.9616,-0.8565,-0.7178,-0.6932,-0.5884,-0.4352,-0.2789,-0.2223,-0.1883,-0.0428,0.0,0.0,0.0,0.0,0.0,0.0,0.0,0.0,0.0,0.0,0.0,0.0,0.0,0.0,0.0,0.0,0.0,0.0,0.0,0.0,0.0,0.0,0.0,0.0,0.0,0.0,0.0,0.0,0.0,0.0,0.0,0.0,0.0,0.0,0.0,0.0,0.0,0.0,0.0,0.0,0.0,0.0,0.0,0.0,0.0,0.0,0.0,0.0,0.0,0.0,0.0,0.0,0.0,0.0,0.0,0.0,0.0,0.0,0.0,0.0,-1.2219,-1.2219,-1.2219,-1.2219,-1.2219,-1.2219,-1.2219,-1.2219,-1.2219,-1.2219,-1.2219,-1.2219,-1.2219,-1.196,-1.177,-1.16,-1.1525,-1.1499,-1.1499,-1.1499,-1.1499,-1.1499,-1.1286,-1.1166,-1.1107,-1.0927,-1.0766,-1.0695,-1.0695,-1.0695,-1.069,-1.0612,-1.0533,-1.0378,-1.0259,-1.0106,-0.9894,-0.9829,-0.9769,-0.9758,-0.9731,-0.9709,-0.9709,-0.9709,-0.9709,-0.9709,-0.9709,-0.9253,-0.8638,-0.8594,-0.7559,-0.6097,-0.5321,-0.3835,-0.2258,-0.1599,-0.0746,0.0,0.0,0.0,0.0,0.0,0.0,0.0,0.0,0.0,0.0,0.0,0.0,0.0,0.0,0.0,0.0,0.0,0.0,0.0,0.0,0.0,0.0,0.0,0.0,0.0,0.0,0.0,0.0,0.0,0.0,0.0,0.0,0.0,0.0,0.0,0.0,0.0,0.0,0.0,0.0,0.0,0.0,0.0,0.0,0.0,0.0,0.0,0.0,0.0,0.0,0.0,0.0,0.0,0.0,0.0,0.0,0.0,0.0,0.0]},{"header":{"parameterUnit":"m.s-1","parameterCategory":1,"la1":30.6,"la2":28.766,"lo1":-90.7593,"lo2":-88.6598,"dy":0.0162,"dx":0.0183,"nx":116,"ny":114,"refTime":"2023-04-22T18:00:00:Z","depth":0,"parameterNumber":3,"parameterNumberName":"V-component_of_WINDS"},"data":[0.0,0.0,0.0,0.0,0.0,0.0,0.0,0.0,0.0,0.0,0.0,0.0,0.0,0.0,0.0,0.0,0.0,0.0,0.0,0.0,0.0,0.0,0.0,0.0,0.0,0.0,0.0,0.0,0.0,0.0,0.0,0.0,0.0,0.0,0.0,0.0,0.0,0.0,0.0,0.0,0.0,0.0,0.0,0.0,0.0,0.0,0.0,0.0,0.0,0.0,0.0,0.0,0.0,0.0,0.0,0.0,0.0,0.0,0.0,0.0,0.0,0.0,0.0,0.0,0.0,0.0,0.0,0.0,0.0,0.0,0.0,0.0,0.0,0.0,0.0,0.0,0.0,0.0,0.0,0.0,0.0,0.0,0.0,0.0,0.0,0.0,0.0,0.0,0.0,0.0,0.0,0.0,0.0,0.0,0.0,0.0,0.0,0.0,0.0,0.0,0.0,0.0,0.0,0.0,0.0,0.0,0.0,0.0,0.0,0.0,0.0,0.0,0.0,0.0,0.0,0.0,0.0,0.0,0.0,0.0,0.0,0.0,0.0,0.0,0.0,0.0,0.0,0.0,0.0,0.0,0.0,0.0,0.0,0.0,0.0,0.0,0.0,0.0,0.0,0.0,0.0,0.0,0.0,0.0,0.0,0.0,0.0,0.0,0.0,0.0,0.0,0.0,0.0,0.0,0.0,0.0,0.0,0.0,0.0,0.0,0.0,0.0,0.0,0.0,0.0,0.0,0.0,0.0,0.0,0.0,0.0,0.0,0.0,0.0,0.0,0.0,0.0,0.0,0.0,0.0,0.0,0.0,0.0,0.0,0.0,0.0,0.0,0.0,0.0,0.0,0.0,0.0,0.0,0.0,0.0,0.0,0.0,0.0,0.0,0.0,0.0,0.0,0.0,0.0,0.0,0.0,0.0,0.0,0.0,0.0,0.0,0.0,0.0,0.0,0.0,0.0,0.0,0.0,0.0,0.0,0.0,0.0,0.0,0.0,0.0,0.0,0.0,0.0,0.0,0.0,0.0,0.0,0.0,0.0,0.0,0.0,0.0,0.0,0.0,0.0,0.0,0.0,0.0,0.0,0.0,0.0,0.0,0.0,0.0,0.0,0.0,0.0,0.0,0.0,0.0,0.0,0.0,0.0,0.0,0.0,0.0,0.0,0.0,0.0,0.0,0.0,0.0,0.0,0.0,0.0,0.0,0.0,0.0,0.0,0.0,0.0,0.0,0.0,0.0,0.0,0.0,0.0,0.0,0.0,0.0,0.0,0.0,0.0,0.0,0.0,0.0,0.0,0.0,0.0,0.0,0.0,0.0,0.0,0.0,0.0,0.0,0.0,0.0,0.0,0.0,0.0,0.0,0.0,0.0,0.0,0.0,0.0,0.0,0.0,0.0,0.0,0.0,0.0,0.0,0.0,0.0,0.0,0.0,0.0,0.0,0.0,0.0,0.0,0.0,0.0,0.0,0.0,0.0,0.0,0.0,0.0,0.0,0.0,0.0,0.0,0.0,0.0,0.0,0.0,0.0,0.0,0.0,0.0,0.0,0.0,0.0,0.0,0.0,0.0,0.0,0.0,0.0,0.0,0.0,0.0,0.0,0.0,0.0,0.0,0.0,0.0,0.0,0.0,0.0,0.0,0.0,0.0,0.0,0.0,0.0,0.0,0.0,0.0,0.0,0.0,0.0,0.0,0.0,0.0,0.0,0.0,0.0,0.0,0.0,0.0,0.0,0.0,0.0,0.0,0.0,0.0,0.0,0.0,0.0,0.0,0.0,0.0,0.0,0.0,0.0,0.0,0.0,0.0,0.0,0.0,0.0,0.0,0.0,0.0,0.0,0.0,0.0,0.0,0.0,0.0,0.0,0.0,0.0,0.0,0.0,0.0,0.0,0.0,0.0,0.0,0.0,0.0,0.0,0.0,0.0,0.0,0.0,0.0,0.0,0.0,0.0,0.0,0.0,0.0,0.0,0.0,0.0,0.0,0.0,0.0,0.0,0.0,0.0,0.0,0.0,0.0,0.0,0.0,0.0,0.0,0.0,0.0,0.0,0.0,0.0,0.0,0.0,0.0,0.0,0.0,0.0,0.0,0.0,0.0,0.0,0.0,0.0,0.0,0.0,0.0,0.0,0.0,0.0,0.0,0.0,0.0,0.0,0.0,0.0,0.0,0.0,0.0,0.0,0.0,0.0,0.0,0.0,0.0,0.0,0.0,0.0,0.0,0.0,0.0,0.0,0.0,0.0,0.0,0.0,0.0,0.0,0.0,0.0,0.0,0.0,0.0,0.0,0.0,0.0,0.0,0.0,0.0,0.0,0.0,0.0,0.0,0.0,0.0,0.0,0.0,0.0,0.0,0.0,0.0,0.0,0.0,0.0,0.0,0.0,0.0,0.0,0.0,0.0,0.0,0.0,0.0,0.0,0.0,0.0,0.0,0.0,0.0,0.0,0.0,0.0,0.0,0.0,0.0,0.0,0.0,0.0,0.0,0.0,0.0,0.0,0.0,0.0,0.0,0.0,0.0,0.0,0.0,0.0,0.0,0.0,0.0,0.0,0.0,0.0,0.0,0.0,0.0,0.0,0.0,0.0,0.0,0.0,0.0,0.0,0.0,0.0,0.0,0.0,0.0,0.0,0.0,0.0,0.0,0.0,0.0,0.0,0.0,0.0,0.0,0.0,0.0,0.0,0.0,0.0,0.0,0.0,0.0,0.0,0.0,0.0,0.0,0.0,0.0,0.0,0.0,0.0,0.0,0.0,0.0,0.0,0.0,0.0,0.0,0.0,0.0,0.0,0.0,0.0,0.0,0.0,0.0,0.0,0.0,0.0,0.0,0.0,0.0,0.0,0.0,0.0,0.0,0.0,0.0,0.0,0.0,0.0,0.0,0.0,0.0,0.0,0.0,0.0,0.0,0.0,0.0,0.0,0.0,0.0,0.0,0.0,0.0,0.0,0.0,0.0,0.0,0.0,0.0,0.0,0.0,0.0,0.0,0.0,0.0,0.0,0.0,0.0,0.0,0.0,0.0,0.0,0.0,0.0,0.0,0.0,0.0,0.0,0.0,0.0,0.0,0.0,0.0,0.0,0.0,0.0,0.0,0.0,0.0,0.0,0.0,0.0,0.0,0.0,0.0,0.0,0.0,0.0,0.0,0.0,0.0,0.0,0.0,0.0,0.0,0.0,0.0,0.0,0.0,0.0,0.0,0.0,0.0,0.0,0.0,0.0,0.0,0.0,0.0,0.0,0.0,0.0,0.0,0.0,0.0,0.0,0.0,0.0,0.0,0.0,0.0,0.0,0.0,0.0,0.0,0.0,0.0,0.0,0.0,0.0,0.0,0.0,0.0,0.0,0.0,0.0,0.0,0.0,0.0,0.0,0.0,0.0,0.0,0.0,0.0,0.0,0.0,0.0,0.0,0.0,0.0,0.0,0.0,0.0,0.0,0.0,0.0,0.0,0.0,0.0,0.0,0.0,0.0,0.0,0.0,0.0,0.0,0.0,0.0,0.0,0.0,0.0,0.0,0.0,0.0,0.0,0.0,0.0,0.0,0.0,0.0,0.0,0.0,0.0,0.0,0.0,0.0,0.0,0.0,0.0,0.0,0.0,0.0,0.0,0.0,0.0,0.0,0.0,0.0,0.0,0.0,0.0,0.0,0.0,0.0,0.0,0.0,0.0,0.0,0.0,0.0,0.0,0.0,0.0,0.0,0.0,0.0,0.0,0.0,0.0,0.0,0.0,0.0,0.0,0.0,0.0,0.0,0.0,0.0,0.0,0.0,0.0,0.0,0.0,0.0,0.0,0.0,0.0,0.0,0.0,0.0,0.0,0.0,0.0,0.0,0.0,0.0,0.0,0.0,0.0,0.0,0.0,0.0,0.0,0.0,0.0,0.0,0.0,0.0,0.0,0.0,0.0,0.0,0.0,0.0,0.0,0.0,0.0,0.0,0.0,0.0,0.0,0.0,0.0,0.0,0.0,0.0,0.0,0.0,0.0,0.0,0.0,0.0,0.0,0.0,0.0,0.0,0.0,0.0,0.0,0.0,0.0,0.0,0.0,0.0,0.0,0.0,0.0,0.0,0.0,0.0,0.0,0.0,0.0,0.0,0.0,0.0,0.0,0.0,0.0,0.0,0.0,0.0,0.0,0.0,0.0,0.0,0.0,0.0,0.0,0.0,0.0,0.0,0.0,0.0,0.0,0.0,0.0,0.0,0.0,0.0,0.0,0.0,0.0,0.0,0.0,0.0,0.0,0.0,0.0,0.0,0.0,0.0,0.0,0.0,0.0,0.0,0.0,0.0,0.0,0.0,0.0,0.0,0.0,0.0,0.0,0.0,0.0,0.0,0.0,0.0,0.0,0.0,0.0,0.0,0.0,0.0,0.0,0.0,0.0,0.0,0.0,0.0,0.0,0.0,0.0,0.0,0.0,0.0,0.0,0.0,0.0,0.0,0.0,0.0,0.0,0.0,0.0,0.0,0.0,0.0,0.0,0.0,0.0,0.0,0.0,0.0,0.0,0.0,0.0,0.0,0.0,0.0,0.0,0.0,0.0,0.0,0.0,0.0,0.0,0.0,0.0,0.0,0.0,0.0,0.0,0.0,0.0,0.0,0.0,0.0,0.0,0.0,0.0,0.0,0.0,0.0,0.0,0.0,0.0,0.0,0.0,0.0,0.0,0.0,0.0,0.0,0.0,0.0,0.0,0.0,0.0,0.0,0.0,0.0,0.0,0.0,0.0,0.0,0.0,0.0,0.0,0.0,0.0,0.0,0.0,0.0,0.0,0.0,0.0,0.0,0.0,0.0,0.0,0.0,0.0,0.0,0.0,0.0,0.0,0.0,0.0,0.0,0.0,0.0,0.0,0.0,0.0,0.0,0.0,0.0,0.0,0.0,0.0,0.0,0.0,0.0,0.0,0.0,0.0,0.0,0.0,0.0,0.0,0.0,0.0,0.0,0.0,0.0,0.0,0.0,0.0,0.0,0.0,0.0,0.0,0.0,0.0,0.0,0.0,0.0,0.0,0.0,0.0,0.0,0.0,0.0,0.0,0.0,0.0,0.0,0.0,0.0,0.0,0.0,0.0,0.0,0.0,0.0,0.0,0.0,0.0,0.0,0.0,0.0,0.0,0.0,0.0,0.0,0.0,0.0,0.0,0.0,0.0,0.0,0.0,0.0,0.0,0.0,0.0,0.0,0.0,0.0,0.0,0.0,0.0,0.0,0.0,0.0,0.0,0.0,0.0,0.0,0.0,0.0,0.0,0.0,0.0,0.0,0.0,0.0,0.0,0.0,0.0,0.0,0.0,0.0,0.0,0.0,0.0,0.0,0.0,0.0,0.0,0.0,0.0,0.0,0.0,0.0,0.0,0.0,0.0,0.0,0.0,0.0,0.0,0.0,0.0,0.0,0.0,0.0,0.0,0.0,0.0,0.0,0.0,0.0,0.0,0.0,0.0,0.0,0.0,0.0,0.0,0.0,0.0,0.0,0.0,0.0,0.0,0.0,0.0,0.0,0.0,0.0,0.0,0.0,0.0,0.0,0.0,0.0,0.0,0.0,0.0,0.0,0.0,0.0,0.0,0.0,0.0,0.0,0.0,0.0,0.0,0.0,0.0,0.0,0.0,0.0,0.0,0.0,0.0,0.0,0.0,0.0,0.0,0.0,0.0,0.0,0.0,0.0,0.0,0.0,0.0,0.0,0.0,0.0,0.0,0.0,0.0,0.0,0.0,0.0,0.0,0.0,0.0,0.0,0.0,0.0,0.0,0.0,0.0,0.0,0.0,0.0,0.0,0.0,0.0,0.0,0.0,0.0,0.0,0.0,0.0,0.0,0.0,0.0,0.0,0.0,0.0,0.0,0.0,0.0,0.0,0.0,0.0,0.0,0.0,0.0,0.0,0.0,0.0,0.0,0.0,0.0,0.0,0.0,0.0,0.0,0.0,0.0,0.0,0.0,0.0,0.0,0.0,0.0,0.0,0.0,0.0,0.0,0.0,0.0,0.0,0.0,0.0,0.0,0.0,0.0,0.0,0.0,0.0,0.0,0.0,0.0,0.0,0.0,0.0,0.0,0.0,0.0,0.0,0.0,0.0,0.0,0.0,0.0,3.7986,0.0,0.0,0.0,0.0,0.0,0.0,0.0,0.0,0.0,0.0,0.0,0.0,0.0,0.0,0.0,0.0,0.0,0.0,0.0,0.0,0.0,0.0,0.0,0.0,0.0,0.0,0.0,0.0,0.0,0.0,0.0,0.0,0.0,0.0,0.0,0.0,0.0,0.0,4.2882,4.2882,4.3277,4.4076,4.3596,4.2876,4.1981,0.0,0.0,0.0,0.0,0.0,0.0,0.0,0.0,0.0,0.0,0.0,0.0,0.0,0.0,0.0,0.0,0.0,0.0,0.0,0.0,0.0,0.0,0.0,0.0,0.0,0.0,0.0,0.0,0.0,0.0,0.0,0.0,0.0,0.0,0.0,0.0,0.0,0.0,0.0,0.0,0.0,0.0,0.0,0.0,0.0,0.0,0.0,0.0,0.0,0.0,0.0,0.0,0.0,0.0,0.0,0.0,0.0,0.0,0.0,0.0,0.0,0.0,0.0,0.0,0.0,0.0,0.0,0.0,0.0,0.0,0.0,3.8866,0.0,0.0,0.0,0.0,0.0,0.0,0.0,0.0,0.0,0.0,0.0,0.0,0.0,0.0,0.0,0.0,0.0,0.0,0.0,0.0,0.0,0.0,0.0,3.8432,3.8982,3.9122,3.9717,4.012,0.0,0.0,0.0,0.0,0.0,0.0,4.2286,4.2433,4.2837,4.3506,4.4057,4.4819,4.5764,4.5911,4.5534,4.4658,4.4135,0.0,0.0,0.0,0.0,0.0,0.0,0.0,0.0,0.0,0.0,0.0,0.0,0.0,0.0,0.0,0.0,0.0,0.0,0.0,0.0,0.0,0.0,0.0,0.0,0.0,0.0,0.0,0.0,0.0,0.0,0.0,0.0,0.0,0.0,0.0,0.0,0.0,0.0,0.0,0.0,0.0,0.0,0.0,0.0,0.0,0.0,0.0,0.0,0.0,0.0,0.0,0.0,0.0,0.0,0.0,0.0,0.0,0.0,0.0,0.0,0.0,0.0,0.0,4.9526,5.0332,5.0979,5.0277,5.0127,5.0078,4.4626,4.2217,4.2104,0.0,0.0,0.0,0.0,0.0,0.0,0.0,0.0,0.0,0.0,0.0,0.0,0.0,0.0,0.0,0.0,0.0,0.0,0.0,0.0,0.0,0.0,3.9239,4.001,4.0728,4.0883,4.0956,4.0956,0.0,0.0,0.0,0.0,0.0,4.2286,4.2992,4.3396,4.3506,4.6287,4.8489,5.0021,5.0692,5.1332,5.1674,4.748,4.6361,4.7535,0.0,0.0,0.0,0.0,0.0,0.0,0.0,0.0,0.0,0.0,0.0,0.0,0.0,0.0,0.0,0.0,0.0,0.0,0.0,0.0,0.0,0.0,0.0,0.0,0.0,0.0,0.0,0.0,0.0,0.0,0.0,0.0,0.0,0.0,0.0,0.0,0.0,0.0,0.0,0.0,0.0,4.2472,4.2472,0.0,0.0,0.0,0.0,0.0,0.0,0.0,0.0,0.0,0.0,0.0,0.0,0.0,0.0,4.9911,5.1494,5.2417,5.2656,5.4106,5.4852,5.4931,5.4197,5.4547,5.5663,5.3493,0.0,4.594,4.4553,0.0,0.0,0.0,0.0,0.0,0.0,0.0,0.0,0.0,0.0,0.0,0.0,0.0,0.0,0.0,0.0,0.0,0.0,0.0,0.0,0.0,4.0899,4.2074,4.2433,4.4562,4.5076,4.3232,4.4406,0.0,0.0,0.0,4.2955,4.2955,4.3322,4.4387,4.6214,4.9471,5.1903,5.3529,5.4326,5.5133,5.5794,5.3665,5.1316,4.894,4.7379,0.0,0.0,0.0,0.0,0.0,0.0,0.0,0.0,0.0,0.0,0.0,0.0,0.0,0.0,0.0,0.0,0.0,0.0,0.0,0.0,0.0,0.0,0.0,0.0,0.0,0.0,0.0,0.0,0.0,0.0,0.0,0.0,0.0,0.0,0.0,0.0,0.0,0.0,0.0,4.3512,4.4259,4.3811,4.4398,4.454,0.0,0.0,0.0,0.0,0.0,0.0,0.0,0.0,0.0,5.0766,5.2306,5.3637,5.479,5.664,5.7994,5.8918,6.0092,6.0909,6.1361,6.0622,6.0646,6.1194,6.0113,5.7833,5.461,5.0048,4.6759,4.4432,0.0,0.0,0.0,0.0,0.0,4.4047,0.0,0.0,0.0,0.0,0.0,0.0,0.0,0.0,0.0,0.0,0.0,0.0,4.134,4.3616,4.5232,4.5635,4.8462,4.9087,4.6425,4.6975,4.6397,4.4204,4.3726,4.3506,4.3506,4.4497,4.6737,5.0178,5.3665,5.6308,5.8107,5.8914,5.9722,6.0456,6.0052,5.6969,5.195,5.0031,4.8333,4.6755,0.0,0.0,0.0,0.0,0.0,0.0,0.0,0.0,0.0,0.0,0.0,0.0,0.0,0.0,0.0,0.0,0.0,0.0,0.0,0.0,0.0,0.0,0.0,0.0,0.0,0.0,0.0,0.0,0.0,0.0,0.0,0.0,0.0,0.0,0.0,0.0,0.0,4.5545,4.6517,4.5527,4.7252,4.7706,0.0,0.0,0.0,0.0,0.0,0.0,5.0903,5.2688,5.445,5.6152,5.8104,5.9611,6.0632,6.2396,6.3961,6.5337,6.5786,6.6447,6.7215,6.6284,6.584,6.5805,6.5057,6.3831,6.1883,5.5447,5.1052,4.8277,4.7114,4.6256,4.5834,4.6565,4.7191,4.7829,0.0,0.0,0.0,0.0,0.0,0.0,0.0,0.0,0.0,0.0,0.0,4.134,4.5186,4.7802,4.9894,5.1436,5.1767,5.1473,5.0545,4.6975,4.514,4.5736,4.4314,4.3506,4.3506,4.7251,5.1179,5.5218,5.922,6.2438,6.4811,6.5632,6.6439,6.715,6.5595,6.2609,5.8425,5.3775,5.2197,5.2297,4.6865,0.0,0.0,0.0,0.0,0.0,0.0,0.0,0.0,0.0,0.0,0.0,0.0,0.0,0.0,0.0,0.0,0.0,0.0,0.0,0.0,0.0,0.0,0.0,0.0,0.0,0.0,0.0,0.0,0.0,0.0,0.0,0.0,0.0,0.0,0.0,0.0,0.0,0.0,4.774,5.0592,0.0,0.0,0.0,0.0,5.1294,5.3145,5.507,5.7064,5.9395,6.1667,6.3782,6.5439,6.7046,6.8618,6.9466,7.0315,7.106,7.0413,7.0485,7.1157,6.9658,6.8955,6.8919,6.8108,6.6878,6.4961,5.9716,5.6179,5.388,5.1661,5.0756,5.0809,5.1265,5.1498,5.168,0.0,0.0,0.0,0.0,0.0,0.0,0.0,0.0,3.9578,3.9871,4.2139,4.4709,4.7168,5.1977,5.5464,5.6554,5.8058,5.796,5.5574,5.1646,4.905,4.8316,4.57,4.5516,4.8122,5.162,5.5658,6.0236,6.431,6.727,6.9178,7.0,7.0513,7.077,7.0183,6.8848,6.6609,6.0676,5.6528,5.3702,5.0618,4.8122,0.0,0.0,0.0,0.0,0.0,0.0,0.0,0.0,0.0,0.0,0.0,0.0,0.0,0.0,0.0,0.0,0.0,0.0,0.0,0.0,0.0,0.0,0.0,0.0,0.0,0.0,0.0,0.0,0.0,0.0,0.0,0.0,0.0,0.0,0.0,0.0,0.0,5.4472,5.7098,0.0,0.0,5.6163,5.6767,5.8231,5.9924,6.1903,6.4173,6.6079,6.814,7.0429,7.108,7.1877,7.2979,7.3305,7.3289,7.3036,7.2798,7.2798,7.3036,7.2472,7.1929,7.1422,7.1168,7.0154,6.8509,6.6124,6.2256,5.7631,5.6342,5.5156,5.4378,5.5609,5.5709,5.5481,0.0,0.0,0.0,0.0,0.0,0.0,0.0,0.0,4.0018,4.0267,4.4048,4.7645,5.0105,5.6161,6.0603,6.1949,6.2536,6.1765,5.9355,5.3885,5.0298,4.9197,4.7352,4.8269,5.2344,5.6381,6.0676,6.5251,6.8788,7.1358,7.2922,7.3729,7.428,7.4551,7.4551,7.4111,7.2995,6.8164,6.2989,5.7776,5.4216,5.1977,5.0278,0.0,0.0,0.0,0.0,0.0,0.0,0.0,0.0,0.0,0.0,0.0,0.0,0.0,0.0,0.0,0.0,0.0,0.0,0.0,0.0,0.0,0.0,0.0,0.0,0.0,0.0,0.0,0.0,0.0,0.0,0.0,0.0,0.0,0.0,0.0,5.8275,5.9832,6.3092,6.4454,6.2607,6.2911,6.3671,6.4758,6.6569,6.8416,7.0284,7.1929,7.3486,7.508,7.5389,7.5788,7.6295,7.6041,7.5643,7.5116,7.4556,7.4303,7.4303,7.4013,7.3615,7.3072,7.2529,7.1712,7.0677,6.9626,6.6692,6.2693,6.1353,6.0013,5.894,5.9724,5.9687,5.9325,0.0,0.0,0.0,0.0,0.0,0.0,0.0,3.9386,4.023,4.103,4.5397,4.9994,5.4069,6.0358,6.5204,6.759,6.4824,6.2536,6.1741,5.3335,4.8406,4.8406,4.9307,5.174,5.5805,6.1337,6.6182,7.0293,7.2694,7.4661,7.624,7.6995,7.7839,7.8626,7.8662,7.8185,7.7289,7.5747,7.1454,6.5068,5.7703,5.6088,5.7299,0.0,0.0,0.0,0.0,0.0,0.0,0.0,0.0,0.0,0.0,0.0,0.0,0.0,0.0,0.0,0.0,0.0,0.0,0.0,0.0,0.0,0.0,0.0,0.0,0.0,0.0,0.0,0.0,0.0,0.0,0.0,0.0,0.0,5.4145,5.9411,6.3432,6.3577,6.838,7.0191,6.6388,6.8829,7.0677,7.0677,7.2798,7.4448,7.5208,7.6746,7.7579,7.7615,7.834,7.8738,7.8738,7.7941,7.7543,7.7507,7.5932,7.5172,7.5136,7.4339,7.3941,7.3832,7.2239,7.1567,7.1422,6.9916,6.9264,6.9011,6.662,6.5192,6.4374,6.3613,6.3287,6.3178,0.0,0.0,0.0,0.0,0.0,0.0,3.8681,3.9892,4.1067,4.1874,4.7746,5.3177,5.6638,6.3356,6.8311,7.0132,6.7357,6.4897,6.3515,5.5622,5.0986,5.0986,5.3445,5.7262,6.2511,6.6439,7.0403,7.4441,7.6313,7.7781,7.8788,7.8993,7.925,7.9522,8.0094,7.9874,7.9103,7.925,7.7635,7.4184,6.5692,6.1251,5.9208,0.0,0.0,0.0,0.0,0.0,0.0,0.0,0.0,0.0,0.0,0.0,0.0,0.0,0.0,0.0,0.0,0.0,0.0,0.0,0.0,0.0,0.0,0.0,0.0,0.0,0.0,0.0,0.0,0.0,0.0,0.0,0.0,6.1255,6.0659,6.469,6.8732,7.1494,7.4211,7.5659,7.5152,7.5913,7.642,7.642,7.7579,7.8376,7.8576,7.8992,7.9499,8.0114,7.9752,7.9571,7.9571,7.9354,7.8955,7.8376,7.7326,7.6855,7.6818,7.6022,7.5334,7.4701,7.3687,7.2891,7.2275,7.1277,7.0568,6.988,6.8054,6.6858,6.6098,6.5881,6.5446,6.483,0.0,0.0,0.0,0.0,0.0,0.0,3.8681,4.0076,4.1397,4.2176,4.926,5.5317,5.818,6.442,6.9045,7.0646,6.6916,6.3638,6.1691,5.5603,5.2469,5.3455,5.7923,6.2683,6.771,7.1307,7.4625,7.7635,7.8956,8.0021,8.0807,8.1489,8.1982,8.2349,8.281,8.2737,8.2313,8.2076,8.1269,7.958,7.3744,6.9412,6.5839,6.0114,5.7703,5.6932,5.3555,5.2858,5.2978,4.9601,0.0,0.0,0.0,0.0,0.0,0.0,0.0,0.0,0.0,0.0,0.0,0.0,0.0,0.0,0.0,0.0,0.0,0.0,0.0,0.0,0.0,0.0,0.0,0.0,6.3679,6.7648,6.9659,7.1727,7.4238,7.747,7.9201,8.0345,8.0904,8.08,8.0765,8.094,8.1342,8.1398,8.1035,8.1069,8.1142,8.1217,8.0815,8.0613,8.0613,8.0236,7.9785,7.933,7.8084,7.7507,7.747,7.669,7.5877,0.0,7.4267,7.3483,7.2749,7.1872,7.1324,0.0,0.0,0.0,0.0,0.0,6.6098,6.5011,0.0,0.0,0.0,0.0,0.0,0.0,3.8681,4.0076,4.1434,4.2323,4.9958,5.6198,5.8535,6.3796,6.7824,6.9471,6.4605,6.0492,5.8232,5.477,5.4002,5.6723,6.2818,6.8031,7.2041,7.5894,7.8626,8.022,8.1085,8.1893,8.2627,8.4168,8.5196,8.58,8.5894,8.582,8.5563,8.4335,8.3287,8.2333,8.0918,7.8148,7.4096,6.6683,6.5031,6.5962,6.0713,5.7997,5.6576,5.3969,0.0,0.0,0.0,0.0,0.0,0.0,0.0,0.0,0.0,0.0,0.0,0.0,0.0,0.0,0.0,0.0,0.0,0.0,0.0,0.0,0.0,0.0,0.0,0.0,6.9439,7.4044,7.9158,7.936,7.9709,8.1722,8.3152,8.4027,8.4204,8.3992,8.3919,8.4204,8.4063,8.3592,8.2809,0.0,0.0,0.0,0.0,8.1688,8.1579,8.0769,8.0355,8.0355,7.8622,7.7792,7.7647,7.685,7.6052,7.5274,7.4441,7.3708,7.3073,7.2112,7.1744,7.1723,7.0775,6.9916,6.9011,6.7583,6.617,0.0,0.0,0.0,0.0,0.0,0.0,0.0,3.8681,4.0076,4.1617,4.3065,4.9334,5.4326,5.6099,6.075,6.4548,6.6543,6.2977,5.9869,5.813,5.7383,5.9223,6.4176,6.88,7.3139,7.7084,7.9874,8.1746,8.2684,8.4168,8.4939,8.5123,8.6077,8.6261,8.5837,8.6481,8.604,8.4903,8.5877,8.5453,8.4095,8.3801,8.0167,7.4573,7.1711,6.9302,6.715,6.4751,6.453,6.4763,6.1019,6.0321,6.0199,5.5438,5.2501,0.0,0.0,0.0,0.0,0.0,0.0,0.0,0.0,0.0,0.0,0.0,0.0,0.0,0.0,0.0,0.0,0.0,0.0,0.0,6.9371,7.4647,7.9417,8.3058,8.4011,8.413,8.3691,8.4406,8.4935,8.497,8.5482,8.5591,8.5043,8.4935,8.4589,8.3841,8.384,0.0,8.2548,8.2546,8.2272,8.1632,8.1399,8.1309,8.1309,0.0,0.0,7.8853,7.8016,7.7214,7.6433,7.5612,7.4799,7.3904,7.3161,7.2495,7.1854,7.0785,6.9916,6.9155,6.8866,6.854,6.825,0.0,0.0,0.0,0.0,0.0,0.0,3.875,3.9748,4.1135,4.2976,4.8132,5.2342,5.4119,5.7573,5.9987,6.0604,5.7943,5.6786,5.8082,6.0614,6.4572,7.0231,7.5247,7.8978,8.1308,8.3765,8.5179,8.5589,8.7173,8.8007,8.8046,8.8809,8.8948,8.8577,8.8986,8.8487,8.7394,8.7898,8.7144,8.5671,8.5752,8.3124,7.894,7.69,7.4625,7.2312,7.0683,6.9853,6.9082,6.6219,6.5007,6.4053,6.0382,5.7556,5.5049,0.0,0.0,0.0,0.0,0.0,0.0,0.0,0.0,0.0,0.0,0.0,0.0,0.0,0.0,5.8877,0.0,0.0,7.0499,7.5344,7.9213,8.259,8.5416,8.6151,8.6192,8.5616,8.6115,8.6426,8.6112,8.6647,8.6574,8.5581,8.5786,8.5258,8.3687,8.4449,8.4339,8.2993,8.3444,8.3495,8.3093,8.2606,8.2336,8.2336,8.1029,8.0176,7.9755,7.8552,7.7567,7.6728,7.5525,7.4577,7.3775,7.3064,7.2428,7.1951,7.1405,7.069,7.0014,7.0014,6.97,6.9328,0.0,0.0,0.0,0.0,0.0,0.0,0.0,3.9473,4.0649,4.2719,4.6722,5.0114,5.185,5.413,5.524,5.4538,5.3648,5.4867,5.8967,6.4013,6.9417,7.5096,8.0492,8.3837,8.4833,8.6981,8.8225,8.8553,8.9923,9.0661,9.0785,9.1433,9.17,9.1513,9.1513,9.1099,9.0306,8.981,8.8664,8.7214,8.7378,8.5992,8.3638,8.1525,7.9617,7.7803,7.6004,7.3692,7.1344,7.0022,6.8017,6.5765,6.4407,6.2426,5.9967,5.6565,5.5585,0.0,0.0,0.0,0.0,0.0,0.0,0.0,0.0,0.0,5.6859,5.8951,6.1704,6.4874,6.8655,7.1982,7.5799,8.0901,8.3177,8.5069,8.7161,8.7308,8.7234,8.7234,8.7515,8.7517,8.7051,8.7301,8.7082,8.6097,8.6489,8.5926,8.3949,8.5221,8.5275,8.3693,8.4415,8.4756,8.4609,8.3651,8.318,8.3127,8.1529,8.0658,8.0476,7.9161,7.8082,7.7044,7.526,7.4205,7.3698,7.2717,7.2218,7.2093,7.2099,7.1698,7.1114,7.1054,7.0564,6.9929,0.0,0.0,0.0,0.0,0.0,0.0,0.0,0.0,4.0778,4.2985,4.5439,4.743,4.8611,5.0274,5.1237,5.1162,5.4685,5.8524,6.2304,6.7439,7.2851,7.8523,8.2307,8.5282,8.7449,8.8506,8.9751,9.1161,9.2018,9.2424,9.2438,9.3134,9.3061,9.2362,9.2362,9.1926,9.1175,9.1103,9.0229,8.8911,8.8944,8.7563,8.5416,8.4425,8.2627,8.0277,7.7876,7.5014,7.2349,7.2165,7.0499,6.8444,6.8261,6.7063,6.4897,6.0896,0.0,5.4997,5.2317,5.1206,5.1242,5.3115,5.3849,5.5611,0.0,0.0,6.4103,6.7834,7.0036,7.2092,7.4661,7.7855,8.0975,8.3765,8.6151,8.8023,8.8996,8.8536,8.8059,8.8059,8.7491,8.707,8.7014,8.7053,8.7016,8.6867,8.6923,8.685,8.6593,8.6757,8.6427,8.5546,8.56,8.5306,8.4609,8.3768,8.3348,8.3348,8.2431,8.1607,8.091,8.0764,7.9847,7.827,7.5748,7.4702,7.4617,7.2981,7.2373,7.2438,7.2438,7.2401,7.2262,7.1998,7.179,7.1687,0.0,0.0,0.0,0.0,0.0,0.0,0.0,0.0,0.0,4.1669,4.3693,4.523,4.5694,4.6921,4.7676,4.7676,5.2171,5.7328,6.2862,6.9419,7.5935,8.2273,8.578,8.8273,8.9675,9.1059,9.2319,9.3475,9.4178,9.4612,9.467,9.4884,9.4787,9.4494,9.4448,9.3955,9.3107,9.219,9.1194,9.0107,8.9304,8.8085,8.6586,8.4823,8.1867,7.8382,7.6044,7.3156,0.0,6.9339,6.8348,6.7577,6.8054,6.6769,6.4383,6.0774,5.8756,0.0,5.474,5.3859,0.0,0.0,5.829,6.1594,6.4751,6.732,6.9743,7.2349,7.5322,7.8038,7.9968,8.2523,8.4986,0.0,8.8076,8.8984,8.9718,8.9171,8.8301,8.7232,8.7204,8.7206,8.7027,8.7435,8.7325,8.6371,8.6738,8.6574,8.5637,8.65,8.6628,8.5837,8.6261,8.6334,8.6004,8.5196,8.4572,8.4095,8.3287,8.248,8.1672,8.0718,7.914,7.7047,7.5504,7.4565,7.4111,7.29,7.2438,7.2496,7.2496,7.2496,7.2481,7.2351,7.2248,7.2174,0.0,0.0,0.0,0.0,0.0,0.0,0.0,0.0,0.0,0.0,4.2187,4.327,4.3917,4.4949,4.5594,4.5594,5.0048,5.5505,6.1852,6.9199,7.6238,8.2862,8.6585,8.9098,9.0334,9.2294,9.3792,9.4849,9.5578,9.5991,9.6098,9.573,9.5565,9.5555,9.5282,9.478,9.4109,9.2974,9.1881,9.085,8.9561,8.8138,8.6473,8.3281,7.9312,7.5189,7.3377,7.0116,6.6486,6.51,6.4327,6.4192,6.5444,6.4634,6.2757,6.0353,5.8947,5.7875,5.6345,0.0,0.0,5.9061,6.3417,6.7674,6.9155,7.2275,7.5418,7.74,8.0236,8.2851,8.4564,8.6078,8.7716,8.9755,8.9867,9.0019,9.0976,8.9877,8.8294,8.6479,8.6196,8.611,8.61,8.7255,8.7604,8.6713,8.7177,8.6992,8.5826,8.6844,8.7214,8.6639,8.7016,8.7248,8.7248,8.6289,8.538,8.4609,8.3785,8.2867,8.1819,8.022,7.8479,7.6717,7.5454,7.4588,7.3964,7.2936,7.2496,7.2496,7.2496,7.2496,7.2496,7.2496,7.2423,7.2387,0.0,0.0,0.0,0.0,0.0,0.0,0.0,0.0,0.0,0.0,0.0,0.0,0.0,4.4949,4.5594,4.5594,4.951,5.4121,5.9281,6.6051,7.2514,7.8446,8.2785,8.6209,8.8709,9.1248,9.3326,9.4989,9.5723,9.6098,9.6098,9.5145,9.475,9.4711,9.3858,9.3475,9.3426,9.3228,9.2357,9.1008,9.0054,8.7839,8.4543,7.9566,7.5095,7.1352,7.0517,6.6284,6.1022,6.0181,5.8868,5.7989,6.0366,6.1059,6.0985,6.0874,5.8412,5.5879,5.6565,0.0,6.1227,6.5191,6.9265,7.312,7.6261,7.894,8.1571,8.4567,8.5434,8.6254,8.8273,8.822,8.8859,9.1909,9.1756,9.1779,9.337,9.0789,8.8082,8.6418,8.4117,8.2978,0.0,8.6104,8.7857,8.8659,8.8734,8.8697,8.8673,8.8697,8.8734,8.8711,8.8152,8.7851,8.7851,8.6504,8.538,8.4609,8.3785,8.2574,8.0975,7.936,7.8589,7.8405,7.5983,7.4903,7.472,7.3156,7.2496,7.2496,7.2496,7.2496,7.2496,7.2496,7.2496,7.2481,0.0,0.0,0.0,0.0,0.0,0.0,0.0,0.0,0.0,0.0,0.0,0.0,0.0,0.0,0.0,0.0,4.8125,5.1933,5.5934,6.2551,6.8436,7.3245,7.9208,8.3555,8.6132,8.921,9.1325,9.2479,9.329,9.3434,9.2848,9.2552,9.2687,9.3225,9.2852,9.2929,9.3311,9.2061,9.1542,9.1261,8.7584,8.579,8.461,7.7926,7.194,6.6739,0.0,6.0463,5.6966,5.5025,5.4409,5.4801,5.6677,5.6892,5.6453,5.6444,5.6855,5.7779,6.0244,6.4052,6.8309,7.2272,7.6005,7.9412,8.1955,8.3989,8.5674,8.6696,8.5151,8.3811,8.4513,8.4326,8.477,8.6959,8.9414,9.1369,9.2299,9.1622,8.9503,8.544,8.518,0.0,0.0,0.0,0.0,8.78,8.795,8.8189,8.8752,8.879,8.879,8.879,8.8593,8.8492,8.8492,8.8025,8.7101,8.5707,8.3974,8.2295,8.0704,7.9799,7.8772,7.7656,7.6313,7.5395,7.483,7.3744,7.2973,7.2496,7.2496,7.2496,7.2496,7.2496,7.2496,7.2496,0.0,0.0,0.0,0.0,0.0,0.0,0.0,0.0,0.0,0.0,0.0,0.0,0.0,0.0,0.0,0.0,0.0,4.9245,5.2049,5.7703,6.2743,6.6667,7.1898,7.5938,7.8477,8.0969,8.3085,8.4901,8.6055,8.6786,8.7124,8.744,8.8055,8.8863,8.8764,8.9155,8.982,8.8289,8.7208,8.6222,8.2319,7.9815,7.7703,7.1343,6.5689,0.0,5.6646,5.4303,5.2937,5.1517,5.1373,5.2051,5.3051,5.3644,5.415,5.5028,5.745,6.0839,6.5316,7.0117,7.4797,7.8751,8.2077,8.4727,8.6162,8.7305,8.7746,8.6766,8.4138,8.1882,8.1424,8.0288,8.0558,8.3992,8.6039,8.8166,9.0971,9.0208,8.8215,8.509,8.49,0.0,0.0,0.0,0.0,8.7462,8.7991,8.8533,8.9402,8.944,8.944,8.944,8.9209,8.9103,8.9103,8.86,8.7513,8.5848,8.3844,8.2184,8.0864,8.0211,7.9171,7.7823,7.6713,7.5935,7.538,7.4283,7.342,7.2784,7.2784,7.2681,7.2496,7.2496,7.2496,7.2496,0.0,0.0,0.0,0.0,0.0,0.0,0.0,0.0,0.0,0.0,0.0,0.0,0.0,0.0,0.0,0.0,0.0,0.0,4.7735,5.1856,5.5665,5.8858,6.1621,6.4275,6.6712,6.7744,6.9853,7.3122,7.4745,7.6746,7.9131,7.9977,8.0823,8.1593,8.1631,8.2131,8.2893,8.1958,7.9681,7.6547,7.4649,7.0578,6.5123,6.0852,5.7155,5.3743,4.9663,4.8586,4.9152,4.9581,4.983,5.002,5.0058,5.1774,5.4291,5.6998,6.0483,6.4961,7.1562,7.6383,8.0552,8.4543,8.7262,8.8938,8.8965,8.8788,8.7856,8.5174,8.2496,8.0263,0.0,0.0,7.6465,8.2807,8.2149,8.3104,8.9666,8.7192,8.49,0.0,0.0,0.0,0.0,0.0,0.0,8.7804,0.0,8.9589,9.0544,9.0583,9.0583,9.0583,9.0037,8.9751,8.9751,8.8276,8.6731,8.519,8.3574,8.2334,8.142,8.0618,7.9779,7.8816,7.7288,7.6575,7.6387,7.4772,7.38,7.335,7.335,7.3007,7.2582,7.2582,7.2567,7.2539,0.0,0.0,0.0,0.0,0.0,0.0,0.0,0.0,0.0,0.0,0.0,0.0,0.0,0.0,0.0,0.0,0.0,0.0,4.4355,4.8355,5.1087,5.1933,5.7434,6.1089,6.2364,6.5128,6.6974,6.7821,6.8859,6.9398,6.9475,7.029,7.1129,7.1968,7.2629,7.3318,7.4028,7.3122,7.2218,7.1099,6.8095,6.6356,6.5053,6.0259,5.7087,5.485,5.1891,5.0139,4.9094,4.8563,5.0447,5.3131,5.3772,5.5673,5.8571,6.3009,6.724,7.1799,7.7884,8.2722,8.6673,8.9425,9.0252,9.0474,9.0935,8.8595,8.5801,8.3832,7.7979,7.2735,0.0,0.0,0.0,7.7058,8.192,0.0,9.0086,9.0173,0.0,8.6724,0.0,8.5817,8.4136,8.49,0.0,0.0,8.7689,8.8367,9.0506,9.0583,9.0583,9.0583,9.0438,9.0373,9.0373,8.8765,8.7416,8.6339,8.4901,8.3439,8.199,8.1381,8.0293,7.8903,7.849,7.7626,7.6462,7.6049,7.5065,7.3821,7.3821,7.3737,7.3616,7.3616,7.3402,7.3087,0.0,0.0,0.0,0.0,0.0,0.0,0.0,0.0,0.0,0.0,0.0,0.0,0.0,0.0,0.0,0.0,0.0,0.0,0.0,4.4854,4.6778,4.7163,5.0818,5.3433,5.4664,5.6209,5.7555,5.8665,5.9479,6.0248,6.0935,6.2095,6.3128,6.4006,6.4859,6.5673,6.6358,6.5474,6.4251,0.0,0.0,5.882,5.7592,5.4809,5.2888,5.16,5.0535,5.0235,5.044,5.139,5.3517,5.6129,5.8071,6.0676,6.4038,6.9502,7.3552,7.7564,8.3486,8.7731,9.0875,9.2515,9.2382,9.1381,8.946,8.6619,8.299,7.7993,7.2635,0.0,6.5115,6.5987,0.0,0.0,0.0,0.0,8.8797,8.9218,8.8759,0.0,8.8033,0.0,8.6123,8.6467,8.7297,0.0,8.8186,8.8672,9.0506,9.0583,9.0583,9.0583,9.0583,9.0239,8.9523,8.8568,8.746,8.6227,8.5408,8.416,8.2524,8.2254,8.1184,7.9594,0.0,7.8344,7.7122,7.6743,7.568,7.4298,7.4298,7.4165,7.4009,7.4009,7.3833,7.3616,0.0,0.0,0.0,0.0,0.0,0.0,0.0,0.0,0.0,0.0,0.0,0.0,0.0,0.0,0.0,0.0,0.0,0.0,0.0,0.0,4.3321,4.3897,4.4269,4.5124,4.6504,4.5936,4.6667,4.8899,4.9668,5.1169,5.3356,5.4939,5.6055,5.6813,5.7627,5.8396,5.905,5.8319,5.6242,5.3433,5.2779,5.0697,4.7966,0.0,4.7789,4.7252,4.8092,4.9685,5.1956,5.5944,5.8077,5.9644,6.3006,6.6522,7.0542,7.6341,7.9704,8.276,8.8568,9.1816,9.3764,9.4414,9.365,9.1472,8.6467,8.3333,7.9063,7.0457,0.0,6.4229,6.0568,6.1363,6.4611,7.0847,0.0,7.8757,8.7078,8.6963,8.6877,8.9218,8.895,8.8568,8.8568,8.7918,8.8061,8.9523,8.9523,8.978,9.0544,9.0583,9.0583,9.0583,9.0583,8.9867,8.8262,8.8158,8.7269,8.5654,8.5654,8.4785,8.319,8.319,8.2273,8.0621,0.0,0.0,7.8099,7.7373,7.6227,7.4985,7.4985,7.4636,7.4214,7.4214,7.4169,7.4075,0.0,0.0,0.0,0.0,0.0,0.0,0.0,0.0,0.0,0.0,3.6228,3.647,0.0,0.0,0.0,0.0,0.0,0.0,0.0,0.0,0.0,4.1934,4.4127,4.5167,4.4778,4.5321,4.5825,4.6244,4.6398,4.6706,4.7167,4.8163,4.8735,4.8928,4.9736,5.0159,5.0279,5.012,4.9351,4.8274,4.8774,4.8235,4.7274,4.8663,0.0,0.0,4.979,4.9832,5.068,5.8212,6.2701,6.5757,6.9128,7.3446,7.8337,8.3515,8.5855,8.7929,9.3115,9.5369,9.6095,9.5522,9.3191,8.9905,8.5511,7.8872,0.0,0.0,6.1944,5.8122,5.7396,5.923,6.3434,7.1459,7.5462,8.0277,8.7995,0.0,8.9054,0.0,0.0,0.0,0.0,0.0,0.0,0.0,0.0,9.043,9.0583,9.0583,9.0583,9.0583,9.0583,9.0124,8.9103,8.8415,8.7575,8.6571,8.6571,8.5702,8.4059,8.4059,8.3142,8.1538,0.0,0.0,7.9063,7.891,7.7871,7.6357,7.6357,7.5901,7.5236,7.5236,7.4942,7.4592,0.0,0.0,0.0,0.0,0.0,0.0,0.0,3.3107,3.437,3.6414,3.6377,3.6748,3.8339,3.8653,3.8887,0.0,0.0,0.0,0.0,0.0,0.0,4.1258,4.2652,4.3641,4.4144,4.4662,4.5167,4.5594,0.0,4.5594,4.5594,4.6013,4.6201,4.624,4.6624,4.6817,4.6817,4.6817,4.6586,4.624,4.6624,4.6855,4.7043,0.0,0.0,0.0,4.9916,5.0429,5.194,5.7264,6.3035,6.889,7.4057,7.8834,8.3257,8.6991,8.8721,9.0326,9.4452,9.5904,9.6133,9.5713,9.2083,8.704,8.1088,0.0,0.0,0.0,5.7581,5.5174,5.4721,5.7428,6.1631,6.7485,7.1221,7.6379,8.4824,8.5664,0.0,0.0,0.0,0.0,0.0,0.0,0.0,0.0,0.0,9.1052,9.0621,9.0583,9.0583,9.0583,9.0583,9.0162,8.9332,8.8912,8.8071,8.68,8.7269,8.6581,8.49,8.448,8.3601,8.234,8.1041,0.0,7.9292,7.9292,7.8528,7.7335,7.6876,7.6456,7.6083,7.5662,7.5356,7.5114,0.0,0.0,0.0,0.0,0.0,0.0,0.0,3.3553,3.4668,3.6674,3.6971,3.7454,3.8711,3.8822,3.8822,0.0,0.0,0.0,0.0,0.0,0.0,0.0,0.0,0.0,4.3627,0.0,0.0,0.0,4.5573,0.0,0.0,0.0,0.0,0.0,4.5594,4.5594,4.5594,4.5594,4.5594,0.0,0.0,4.6278,0.0,0.0,0.0,0.0,0.0,5.0811,5.2948,5.5949,6.158,6.8402,7.4648,8.0706,8.5855,8.7689,8.96,9.1767,9.4796,9.5866,9.5942,9.5255,9.0631,8.4298,7.6694,6.996,0.0,5.6549,5.4142,5.3225,5.3116,5.5785,5.9453,6.3778,6.6827,7.1947,8.1432,8.234,8.448,0.0,0.0,0.0,0.0,0.0,0.0,0.0,0.0,0.0,9.0888,9.0697,9.0659,9.085,9.0697,9.0277,8.9589,8.9218,8.8492,8.7335,8.7842,8.7384,8.6046,8.5206,8.4365,8.341,8.1576,0.0,0.0,7.9636,7.9063,7.8175,7.7335,7.6876,7.6609,7.5815,7.5509,7.5509,0.0,0.0,0.0,0.0,0.0,0.0,0.0,3.307,3.4222,3.738,3.7789,3.7863,3.7975,3.8005,3.8005,0.0,0.0,0.0,0.0,0.0,0.0,0.0,0.0,0.0,0.0,0.0,0.0,0.0,0.0,0.0,0.0,0.0,0.0,0.0,0.0,0.0,4.5594,4.5594,0.0,0.0,0.0,0.0,0.0,0.0,0.0,0.0,0.0,5.0586,5.1459,5.6266,5.9363,6.1996,6.6521,7.605,8.5397,8.49,8.8606,9.3268,9.5102,9.6706,9.7154,9.4108,8.8874,8.2541,7.4974,0.0,5.9689,5.5135,5.2308,5.1314,5.3569,5.4295,5.6893,6.4114,6.6216,7.0457,8.0506,8.2493,8.5101,0.0,0.0,0.0,0.0,0.0,0.0,0.0,0.0,0.0,9.1663,9.1003,9.0926,9.1663,9.0975,9.0544,9.0468,8.8988,8.8492,8.9065,8.8415,8.8005,8.7842,8.6953,8.6074,8.5129,0.0,0.0,0.0,8.0735,7.9904,7.9101,7.8213,7.7411,7.6609,7.5815,7.5509,7.5509,0.0,0.0,0.0,0.0,0.0,0.0,3.2624,3.2996,3.4185,3.7454,3.79,3.79,3.79,3.8346,3.8414,3.7937,0.0,0.0,0.0,0.0,0.0,0.0,0.0,0.0,0.0,0.0,0.0,0.0,0.0,0.0,0.0,0.0,0.0,0.0,0.0,0.0,0.0,0.0,0.0,0.0,0.0,0.0,0.0,0.0,0.0,0.0,0.0,0.0,5.0849,5.2806,5.5566,5.8214,5.8393,6.5688,7.5033,7.9245,8.3983,8.8721,9.2962,9.4987,9.5435,9.3573,8.6734,7.8939,7.2864,0.0,5.7052,5.3378,5.1391,5.0932,5.2919,5.2919,5.4409,5.9988,6.0332,6.3083,7.2176,7.3713,7.742,8.6887,0.0,0.0,0.0,0.0,0.0,0.0,0.0,0.0,9.1778,9.1052,9.0735,9.109,9.0774,9.0583,9.0583,8.9944,8.9485,8.9294,8.9523,8.9332,8.8797,8.7412,8.6304,8.5349,0.0,0.0,0.0,8.0621,8.0315,7.9942,7.9101,7.8252,7.7373,7.6532,7.593,7.5509,0.0,0.0,0.0,0.0,0.0,3.0214,3.2624,3.2996,3.4073,3.7157,3.7566,3.7566,3.7566,3.8049,3.8265,3.7937,3.8637,0.0,0.0,0.0,0.0,0.0,0.0,0.0,0.0,0.0,4.3239,4.4682,4.4757,0.0,0.0,0.0,0.0,0.0,0.0,0.0,0.0,0.0,0.0,0.0,0.0,0.0,0.0,0.0,0.0,0.0,0.0,0.0,0.0,0.0,0.0,5.4565,5.2747,5.7003,6.4204,7.2043,7.8517,8.426,8.921,9.2056,9.3306,9.1969,8.4747,7.6609,0.0,0.0,5.5715,5.2614,5.1079,5.0741,5.2193,5.2193,5.311,5.6587,5.6772,5.9147,6.6835,6.8325,7.2367,0.0,0.0,0.0,0.0,0.0,0.0,0.0,0.0,0.0,0.0,9.0888,9.0697,9.0926,9.0735,9.0583,9.0583,9.0086,8.9676,8.9294,8.9676,8.9561,8.8912,8.7727,8.6724,8.5731,0.0,0.0,0.0,8.0697,8.0506,8.0391,7.9331,7.8519,7.787,7.6761,7.6006,7.5509,0.0,0.0,0.0,0.0,0.0,0.0,3.2624,3.2996,3.3887,3.6377,3.6711,3.6711,3.6711,3.6711,3.7046,3.7826,3.8637,0.0,0.0,0.0,0.0,0.0,0.0,0.0,0.0,0.0,4.3577,4.4397,4.4669,4.4794,4.48,0.0,0.0,0.0,0.0,0.0,0.0,0.0,0.0,0.0,0.0,0.0,5.0707,0.0,0.0,0.0,0.0,0.0,0.0,0.0,0.0,0.0,0.0,5.1677,5.4789,6.3242,7.2743,8.1136,8.3764,8.8094,9.1243,8.8769,8.3028,7.6456,7.0572,6.267,5.5868,5.3307,5.1467,5.0588,5.1461,5.227,5.3378,5.5129,5.7459,6.1127,6.7064,6.9349,7.2597,0.0,0.0,0.0,0.0,0.0,0.0,0.0,0.0,0.0,0.0,9.0583,9.0975,9.1739,9.1013,9.0583,9.0583,8.895,8.853,8.9294,8.8492,8.811,8.812,8.8071,8.7613,0.0,0.0,0.0,0.0,8.1194,8.0506,8.0315,7.8672,7.8022,7.7793,7.6121,7.5509,7.5509,0.0,0.0,0.0,0.0,0.0,0.0,0.0,3.1849,3.2847,3.4742,3.5522,3.608,3.6637,3.6711,3.7009,3.7826,3.8116,0.0,0.0,0.0,0.0,0.0,0.0,0.0,0.0,0.0,4.2775,4.4147,4.4797,4.492,4.4526,4.5084,4.5192,0.0,0.0,0.0,0.0,0.0,0.0,0.0,0.0,4.7745,4.9707,0.0,0.0,0.0,0.0,0.0,0.0,0.0,0.0,0.0,0.0,0.0,0.0,5.6147,6.3812,7.2009,7.5689,7.8647,8.0265,7.827,7.3594,6.8372,6.4129,5.892,5.4204,5.1632,5.0665,5.0588,5.1423,5.1314,5.2575,5.7192,5.8116,5.995,6.4695,0.0,0.0,7.7755,0.0,0.0,0.0,0.0,0.0,0.0,0.0,0.0,0.0,9.0583,9.0735,9.0975,9.0735,9.0315,8.9704,8.9179,8.8759,8.8492,8.8797,8.8644,8.812,8.812,0.0,0.0,0.0,0.0,0.0,8.0964,8.0162,7.956,7.8443,7.764,7.7067,7.6532,7.5968,7.5509,0.0,0.0,0.0,0.0,0.0,0.0,0.0,3.1292,3.2252,3.359,3.4482,3.5336,3.6154,3.5968,3.634,3.7789,3.764,0.0,0.0,0.0,0.0,0.0,0.0,0.0,4.1579,4.1616,4.2396,4.3986,4.4878,4.51,4.4736,4.526,4.5345,4.5097,4.4795,0.0,0.0,0.0,0.0,0.0,4.6317,4.7201,4.8817,0.0,0.0,0.0,0.0,0.0,0.0,0.0,0.0,0.0,0.0,0.0,0.0,0.0,5.696,6.2912,6.8356,7.1957,7.3877,7.2458,6.8755,0.0,6.1256,5.7213,5.3578,5.1285,5.0602,5.0526,5.1015,5.1212,5.2485,5.6129,5.739,5.9147,0.0,0.0,0.0,7.8213,0.0,0.0,0.0,0.0,0.0,0.0,0.0,0.0,0.0,9.0583,9.0583,9.0583,9.0583,9.0162,8.9332,8.8988,8.8415,8.7613,8.8453,8.8224,8.7154,8.7804,0.0,0.0,0.0,0.0,0.0,8.0544,7.9751,7.9178,7.7984,7.7182,7.6647,7.6341,7.593,7.5509,0.0,0.0,0.0,0.0,0.0,0.0,0.0,3.1218,3.1992,3.281,3.3627,3.4445,3.5306,3.4668,3.5188,3.7603,0.0,0.0,0.0,0.0,0.0,0.0,0.0,0.0,4.1579,4.1653,4.2471,4.3986,4.4915,4.5369,4.5295,4.5406,4.5489,4.5549,4.4806,4.4714,0.0,0.0,0.0,0.0,4.6812,4.7274,0.0,0.0,0.0,0.0,0.0,0.0,0.0,0.0,0.0,0.0,0.0,0.0,0.0,0.0,0.0,0.0,0.0,6.6995,7.0425,6.9582,6.6947,6.3786,6.0667,5.6881,0.0,5.1949,5.1004,5.0506,5.0509,5.175,5.2915,5.3211,5.5982,0.0,0.0,6.6491,0.0,0.0,0.0,0.0,0.0,0.0,0.0,0.0,0.0,0.0,0.0,9.0583,9.0583,9.0506,9.0506,9.0086,8.9218,8.8453,8.7613,8.6724,8.7575,8.7116,8.554,8.7192,0.0,0.0,0.0,0.0,0.0,7.998,7.9254,7.9025,7.7296,7.6609,7.6532,7.5777,7.5509,7.5509,0.0,0.0,0.0,0.0,0.0,0.0,0.0,0.0,0.0,0.0,3.2773,3.359,3.4408,3.4333,3.4965,0.0,0.0,0.0,0.0,0.0,0.0,0.0,0.0,0.0,4.1579,4.2203,4.2983,4.3986,4.5472,4.5881,4.5332,4.655,4.6479,4.5368,4.5182,4.5007,0.0,0.0,0.0,0.0,4.5898,4.6432,0.0,0.0,0.0,0.0,4.7145,4.7572,0.0,0.0,0.0,0.0,0.0,0.0,0.0,0.0,5.1538,5.2577,5.4358,0.0,5.8288,5.7364,5.657,5.5623,0.0,5.3048,5.2067,5.0988,5.0648,5.0878,5.2115,5.2158,5.3257,5.7155,5.8916,0.0,6.3301,0.0,0.0,0.0,0.0,0.0,0.0,0.0,0.0,0.0,0.0,0.0,0.0,9.0583,9.0277,8.9627,8.96,8.9218,8.8377,8.8196,8.7345,8.5807,8.6686,8.6533,8.5511,8.5932,0.0,0.0,0.0,0.0,8.169,7.998,7.891,7.8137,7.6426,7.5777,7.5777,7.5586,7.5509,7.5509,0.0,0.0,0.0,0.0,0.0,0.0,0.0,0.0,0.0,0.0,0.0,3.3739,3.4147,3.4185,0.0,0.0,0.0,0.0,0.0,0.0,0.0,0.0,0.0,4.0799,4.1579,4.2396,4.3206,4.3986,4.5695,4.629,4.5889,4.7107,4.7033,4.5815,4.5191,4.4848,0.0,0.0,0.0,4.5594,4.5594,0.0,0.0,0.0,0.0,0.0,4.6317,4.6586,0.0,4.8394,4.9125,4.9668,0.0,0.0,0.0,0.0,5.1015,5.1279,5.0851,5.2562,5.4419,5.4276,5.3958,5.3574,5.307,5.2384,5.1572,5.0739,5.0563,5.0991,5.2204,5.2373,5.3633,5.7511,5.9453,0.0,0.0,0.0,0.0,0.0,0.0,0.0,0.0,0.0,0.0,0.0,0.0,0.0,0.0,9.0201,8.9791,8.9332,8.895,8.8339,8.7498,8.7498,8.6849,8.5511,8.596,8.5769,8.4938,8.4938,0.0,0.0,0.0,0.0,8.0506,7.8796,7.7831,7.7296,7.6006,7.5509,7.5509,7.5509,7.5509,7.5509,0.0,0.0,0.0,0.0,0.0,0.0,0.0,0.0,0.0,0.0,0.0,0.0,0.0,0.0,0.0,0.0,0.0,0.0,0.0,0.0,0.0,0.0,4.0241,4.1096,4.1757,4.2575,4.3318,4.3986,4.5695,4.6513,4.6513,4.7441,4.7404,4.6455,4.5147,4.4659,0.0,0.0,0.0,4.5594,4.5594,0.0,0.0,0.0,0.0,0.0,0.0,0.0,0.0,4.7432,4.8082,4.8548,5.0053,0.0,0.0,0.0,0.0,0.0,5.0087,5.2087,5.4357,5.467,5.4397,5.3985,5.3923,5.2744,5.1444,5.0748,5.0749,5.1144,5.205,5.313,0.0,0.0,0.0,0.0,0.0,0.0,0.0,0.0,0.0,0.0,0.0,0.0,0.0,0.0,0.0,0.0,0.0,8.9714,8.9179,8.894,8.8262,8.7422,8.6418,8.6686,8.6304,8.532,8.532,8.49,8.4107,8.3983,8.3066,0.0,0.0,0.0,7.8987,7.7373,7.6685,7.6609,7.5815,7.5509,7.5509,7.5509,7.5509,7.5509,0.0,0.0,0.0,0.0,0.0,0.0,0.0,0.0,0.0,0.0,0.0,0.0,0.0,0.0,0.0,0.0,0.0,0.0,0.0,0.0,0.0,4.0204,4.1616,4.25,4.2612,4.3392,4.3875,4.3986,4.5695,4.6513,4.6513,4.8036,4.7924,4.6455,4.5739,4.518,4.4812,0.0,0.0,4.5594,4.5594,0.0,0.0,0.0,0.0,0.0,0.0,0.0,0.0,4.7005,4.8048,4.924,4.951,0.0,0.0,0.0,0.0,0.0,5.2087,5.301,5.2895,5.0856,5.1346,5.211,5.1433,5.1087,5.0813,5.0697,5.1236,5.2192,5.3797,5.5912,5.8008,0.0,0.0,0.0,0.0,0.0,0.0,0.0,0.0,0.0,0.0,0.0,0.0,0.0,0.0,0.0,0.0,8.937,8.8634,8.7221,8.7068,8.6227,8.4709,8.6074,8.5998,8.448,8.448,8.4021,8.319,8.2493,8.1652,0.0,0.0,7.8987,7.8137,7.7105,7.6685,7.6609,7.5815,7.5509,7.5509,7.5509,7.5509,7.5509,0.0,0.0,0.0,0.0,0.0,0.0,0.0,0.0,0.0,0.0,0.0,0.0,0.0,0.0,0.0,0.0,0.0,0.0,0.0,0.0,4.1059,4.1059,4.2575,4.3243,4.2797,4.3578,4.4246,4.4692,4.5918,4.6735,4.7144,4.7441,4.7281,4.6673,4.5483,4.4971,4.5011,4.5159,4.5371,4.5594,0.0,0.0,0.0,0.0,0.0,0.0,0.0,0.0,0.0,0.0,4.7697,4.8779,4.924,0.0,0.0,0.0,0.0,0.0,5.0394,5.1467,5.212,5.0515,5.2049,5.3741,5.2938,5.24,5.2164,5.2669,5.3049,5.3972,0.0,0.0,6.1349,6.6685,0.0,0.0,0.0,0.0,0.0,0.0,0.0,0.0,0.0,0.0,0.0,0.0,0.0,0.0,0.0,0.0,8.7655,8.689,8.6059,8.5246,8.4489,8.4757,8.4499,8.3687,8.3219,8.2826,8.2422,8.1105,8.0283,7.9824,0.0,7.7678,7.722,7.6379,7.6044,7.6006,7.5624,7.5509,7.5509,7.5509,7.5509,7.5509,0.0,0.0,0.0,0.0,0.0,0.0,0.0,0.0,0.0,0.0,0.0,0.0,0.0,0.0,0.0,0.0,0.0,0.0,0.0,4.0791,4.169,4.1876,4.3243,4.3726,4.3095,4.3875,4.4618,4.5295,4.629,4.7181,4.7961,4.7144,4.6802,4.6854,4.543,4.4947,4.5206,4.5258,4.5415,4.5594,0.0,0.0,0.0,0.0,0.0,0.0,0.0,0.0,0.0,0.0,0.0,0.0,0.0,0.0,0.0,5.0707,5.0399,4.9938,4.9197,5.0274,5.1505,5.1087,5.2895,5.4895,5.5318,5.4703,5.4434,5.5703,5.6132,5.6824,0.0,6.1243,0.0,7.3012,0.0,0.0,0.0,0.0,0.0,0.0,0.0,0.0,0.0,0.0,0.0,0.0,0.0,0.0,0.0,0.0,8.6576,8.6384,8.5003,8.4196,8.4004,8.3131,8.2789,8.2909,8.2057,8.1557,8.1359,7.9842,7.9041,7.8773,7.7355,7.6632,7.6411,7.5799,7.5523,7.5497,7.5497,7.5527,7.5509,7.5509,7.5509,7.5509,0.0,0.0,0.0,0.0,0.0,0.0,0.0,0.0,0.0,0.0,0.0,0.0,0.0,0.0,0.0,0.0,0.0,0.0,0.0,4.1133,4.195,4.2686,4.354,4.3986,4.3912,4.4766,4.5257,4.5295,4.6847,4.8036,4.8816,4.7999,4.7362,4.6861,4.6186,4.563,4.5217,4.5457,4.5581,4.5594,4.5594,0.0,0.0,0.0,0.0,0.0,0.0,0.0,0.0,0.0,0.0,0.0,0.0,0.0,5.0707,5.0707,4.9548,4.8774,5.1005,5.1202,5.0938,5.1659,5.2005,5.3197,5.7121,5.7357,5.7401,5.9863,6.0979,0.0,0.0,6.5859,7.1668,7.6277,0.0,0.0,0.0,0.0,0.0,0.0,0.0,0.0,0.0,0.0,0.0,0.0,0.0,0.0,0.0,0.0,0.0,8.48,8.3851,8.3008,8.2202,8.1368,8.1359,8.2079,8.1274,8.0477,7.9634,7.8782,7.7938,7.7172,7.701,7.6512,7.5753,7.5715,7.5666,7.5591,7.5591,7.554,7.5509,7.5509,7.5509,7.5509,0.0,0.0,0.0,0.0,0.0,0.0,0.0,0.0,0.0,0.0,0.0,0.0,0.0,0.0,0.0,0.0,0.0,0.0,0.0,4.1133,4.195,4.276,4.3578,4.3986,4.3986,4.4841,4.5555,4.603,4.7664,4.8443,4.8378,4.7564,4.6964,4.6575,4.5846,4.5463,4.5448,4.5564,4.5594,4.5594,4.5594,4.5594,0.0,0.0,0.0,0.0,0.0,0.0,0.0,0.0,4.6706,4.8082,4.8082,4.9317,5.0707,5.0707,5.0245,4.9817,5.024,5.1279,5.2318,5.262,5.3505,5.4972,5.7659,5.9665,6.1512,6.3551,6.5474,0.0,0.0,0.0,7.5938,0.0,0.0,0.0,0.0,0.0,0.0,0.0,0.0,0.0,0.0,0.0,0.0,0.0,0.0,0.0,0.0,0.0,0.0,8.3862,8.2616,8.1766,8.145,8.0075,7.9537,7.9806,7.9473,7.9174,7.8846,7.7976,7.7376,7.703,7.6445,7.5999,7.5692,7.5692,7.5676,7.5644,7.5644,7.5625,7.5549,7.5549,7.5553,7.5509,0.0,0.0,0.0,0.0,0.0,0.0,0.0,0.0,0.0,0.0,0.0,0.0,0.0,0.0,0.0,0.0,0.0,0.0,4.065,4.1282,4.2054,4.3132,4.3726,4.4033,4.4102,4.4896,4.5703,4.6513,4.7959,4.8458,4.807,4.7084,4.6676,4.6746,4.5692,4.5514,4.5975,4.5706,4.5594,4.5594,4.5594,4.5594,0.0,0.0,0.0,0.0,0.0,0.0,0.0,0.0,4.6547,4.7774,4.8005,4.9125,5.0284,5.0284,5.0331,5.015,4.9298,5.0527,5.2198,5.2772,5.4535,5.6917,6.0069,6.2912,6.5699,6.8513,6.9821,7.0744,7.1591,0.0,0.0,0.0,0.0,0.0,0.0,0.0,0.0,0.0,0.0,0.0,0.0,0.0,0.0,0.0,0.0,0.0,0.0,0.0,0.0,0.0,8.11,8.0285,8.0285,7.883,7.8138,7.8138,7.7801,7.7801,7.8099,7.7155,7.674,7.6732,7.6064,7.5772,7.5772,7.5772,7.5794,7.5771,7.5708,7.566,7.5641,7.5641,7.5583,7.5514,0.0,0.0,0.0,0.0,0.0,0.0,0.0,0.0,0.0,0.0,0.0,0.0,0.0,0.0,0.0,0.0,0.0,0.0,4.143,4.1616,4.2322,4.392,4.3994,4.4147,4.439,4.4983,4.5703,4.6484,4.7587,4.8115,4.8048,4.669,4.663,4.7641,4.5965,4.5859,4.6851,4.5975,4.5594,4.5594,4.5594,4.5594,0.0,0.0,0.0,0.0,0.0,0.0,0.0,0.0,4.6163,4.7043,4.7851,4.8702,4.9394,4.9394,4.95,4.9405,4.8557,4.8983,5.0072,5.1899,5.4701,5.8649,6.476,6.7334,6.9853,7.4976,7.4014,7.2514,7.3392,0.0,0.0,0.0,0.0,0.0,0.0,0.0,0.0,0.0,0.0,0.0,0.0,0.0,0.0,0.0,0.0,0.0,0.0,0.0,0.0,0.0,7.9408,7.8484,7.8484,7.7676,7.7292,7.7292,7.6399,7.6438,7.7253,7.6399,7.6015,7.6015,7.6015,7.6015,7.6015,7.6015,7.597,7.5879,7.5771,7.57,7.57,7.57,7.5674,7.5599,0.0,0.0,0.0,0.0,0.0,0.0,0.0,0.0,0.0,0.0,0.0,0.0,0.0,0.0,0.0,0.0,0.0,0.0,4.1467,4.1616,4.2388,4.4211,4.4294,4.4397,4.4676,4.5415,4.613,4.6787,4.7841,4.7856,4.6896,4.7099,4.7155,4.7141,4.7228,4.7108,4.6889,4.662,4.6163,4.5594,4.5594,4.5594,4.5594,0.0,0.0,0.0,0.0,0.0,0.0,0.0,0.0,0.0,4.7851,4.8702,4.951,5.013,5.0327,5.0327,5.0186,5.1177,5.2729,5.4569,5.7988,6.2267,6.7578,6.9037,7.1091,7.74,7.7592,7.6899,7.7777,0.0,0.0,0.0,0.0,0.0,0.0,0.0,0.0,0.0,0.0,0.0,0.0,0.0,0.0,0.0,0.0,0.0,0.0,0.0,0.0,0.0,7.8215,7.7676,7.7676,7.6823,7.6399,7.6361,7.613,7.613,7.6361,7.613,7.6015,7.6015,7.6015,7.6015,7.6015,7.6015,7.6,7.5978,7.5917,7.5872,7.5856,7.5856,7.5763,7.5644,0.0,0.0,0.0,0.0,0.0,0.0,0.0,0.0,0.0,0.0,3.1812,3.2407,0.0,0.0,0.0,0.0,0.0,0.0,0.0,4.1702,4.256,4.4308,4.4499,4.4631,4.4788,4.582,4.6329,4.6214,4.7207,4.724,4.6397,4.7072,4.7381,4.7389,4.7889,4.7812,4.7351,4.7043,4.6581,4.6129,4.6129,4.6129,4.6129,0.0,0.0,0.0,0.0,0.0,0.0,0.0,0.0,0.0,4.7851,4.8702,4.9528,5.0073,5.0529,5.0778,5.0588,5.2017,5.4265,5.7162,6.0466,6.4597,7.0689,7.3507,0.0,0.0,8.0891,7.9986,8.1116,0.0,0.0,0.0,0.0,0.0,0.0,0.0,0.0,0.0,0.0,0.0,0.0,0.0,0.0,0.0,0.0,0.0,0.0,0.0,0.0,0.0,7.7215,7.6784,7.6784,7.6245,7.6015,7.6015,7.6015,7.6015,7.6015,7.6015,7.6015,7.6015,7.6015,7.6015,7.6015,7.6015,7.6015,7.6015,7.6015,7.5985,7.594,7.594,7.5849,7.5771,0.0,0.0,0.0,0.0,0.0,0.0,0.0,0.0,0.0,0.0,3.1918,3.2475,0.0,0.0,0.0,0.0,0.0,0.0,0.0,4.1846,4.2733,4.4356,4.472,4.4866,4.4866,4.6127,4.6268,4.5232,4.6058,4.6391,4.6358,4.6801,4.7389,4.812,4.8274,4.8235,4.8043,4.7312,4.6966,4.6889,4.6889,4.6928,4.7005,4.6928,0.0,0.0,0.0,0.0,0.0,0.0,0.0,0.0,4.7928,4.8702,4.9355,4.9609,5.0305,5.09,5.0432,5.2138,5.5126,5.964,6.2907,6.6878,7.4145,7.9349,8.3251,8.5368,0.0,8.2252,0.0,0.0,0.0,0.0,0.0,0.0,0.0,0.0,0.0,0.0,0.0,0.0,0.0,0.0,0.0,0.0,0.0,0.0,0.0,0.0,0.0,0.0,7.6399,7.6015,7.6015,7.6015,7.6015,0.0,7.6015,7.6015,7.6015,7.6015,7.6015,7.6015,7.6015,7.6015,7.6015,7.6015,7.6015,7.6015,7.6015,7.6015,7.6015,7.6015,7.597,7.5902,0.0,0.0,0.0,0.0,0.0,0.0,0.0,0.0,0.0,0.0,0.0,0.0,0.0,0.0,0.0,0.0,0.0,0.0,0.0,4.1846,4.2818,4.4625,4.518,4.5429,4.5429,4.5704,4.5765,4.5494,4.6364,4.644,4.5792,4.7179,4.7928,4.8159,4.951,4.9394,4.8082,4.7928,4.7466,4.6889,4.6889,4.7274,4.7774,4.7158,4.6774,0.0,0.0,0.0,0.0,0.0,0.0,0.0,4.8663,4.8779,4.8634,5.0066,5.0674,5.1192,5.2463,5.4312,5.7079,6.2178,6.8793,7.4973,7.8705,8.1367,8.3169,8.36,8.4556,0.0,0.0,0.0,0.0,0.0,0.0,0.0,0.0,0.0,0.0,0.0,0.0,0.0,0.0,0.0,0.0,0.0,0.0,0.0,0.0,0.0,0.0,7.6284,7.6092,7.6015,7.6015,7.6015,7.6015,0.0,7.6015,7.6015,7.6015,7.6015,7.6015,7.6015,7.6015,7.6015,7.6015,7.6015,7.6015,7.6015,7.6015,7.6015,7.6015,7.6015,7.6007,7.5978,0.0,0.0,0.0,0.0,0.0,0.0,0.0,0.0,0.0,0.0,0.0,0.0,0.0,0.0,0.0,0.0,0.0,0.0,0.0,0.0,4.3171,4.5104,4.5443,4.5594,4.5594,4.5594,4.5594,4.5594,4.6052,4.6278,4.624,4.7509,4.8312,4.8779,5.0091,4.9976,4.8702,4.8702,4.8471,4.8086,4.8086,4.8355,4.8625,4.7774,4.7235,4.6889,4.6889,0.0,0.0,0.0,0.0,0.0,0.0,0.0,4.9533,5.0515,5.0859,5.1247,5.2702,5.5338,5.9344,6.6243,7.2818,7.8011,7.9803,8.1521,8.2877,8.3169,0.0,0.0,0.0,0.0,0.0,0.0,0.0,0.0,0.0,0.0,0.0,0.0,0.0,0.0,0.0,0.0,0.0,0.0,0.0,0.0,0.0,7.6669,7.6476,7.6015,7.6015,7.6015,7.6015,7.6015,7.6015,7.5976,7.5592,7.5168,7.4822,7.563,7.6015,7.5976,7.5553,7.563,7.5976,7.5553,7.563,7.6015,7.6015,7.6015,7.6015,7.6015,7.6015,7.6007,0.0,0.0,0.0,0.0,0.0,0.0,0.0,0.0,0.0,0.0,0.0,0.0,0.0,0.0,0.0,0.0,0.0,0.0,0.0,0.0,0.0,4.5547,4.5594,4.5594,4.5594,4.5594,4.5594,4.5594,4.5594,4.6206,4.7351,4.7851,4.8586,4.9433,5.0322,5.0207,4.9394,4.924,4.924,4.9394,4.924,4.9356,4.951,4.8509,0.0,4.7312,4.7158,4.7197,4.7351,4.7505,0.0,0.0,0.0,0.0,5.0606,5.0844,5.0959,5.1289,5.2375,5.6363,6.207,6.984,7.4993,7.8391,7.9287,8.0693,8.2098,8.2918,0.0,0.0,0.0,0.0,0.0,0.0,0.0,0.0,0.0,0.0,0.0,0.0,0.0,0.0,0.0,0.0,0.0,0.0,0.0,0.0,7.6053,7.5861,7.5784,7.5784,7.563,7.5553,7.5553,7.5553,7.5553,7.5553,7.4853,7.4123,7.3546,7.4938,7.5553,7.5515,7.4822,7.4892,7.5515,7.4776,7.5014,7.5745,7.563,7.5745,7.5976,7.5822,7.5861,7.6015,0.0,0.0,0.0,0.0,0.0,0.0,0.0,0.0,0.0,0.0,0.0,0.0,0.0,0.0,0.0,0.0,0.0,0.0,0.0,0.0,0.0,4.5586,4.5594,4.5594,4.5594,4.5594,4.5594,4.5594,4.5594,4.6783,4.9048,4.8394,4.8586,4.9433,5.0322,5.0207,4.9356,4.8586,4.8702,4.9317,4.8586,4.9163,5.0361,0.0,0.0,4.8971,4.8197,4.8432,4.9163,4.9938,4.9937,0.0,0.0,0.0,5.0054,5.0716,5.1026,5.152,5.3047,5.8979,6.5702,6.9839,7.4095,7.7492,0.0,0.0,8.0302,0.0,0.0,0.0,0.0,0.0,0.0,0.0,0.0,0.0,0.0,0.0,0.0,0.0,0.0,0.0,0.0,0.0,0.0,0.0,0.0,0.0,7.6015,7.5284,7.4853,7.4853,7.4199,7.3815,7.3815,7.3815,7.3815,7.3815,7.3738,7.3584,7.3507,7.3738,7.3815,7.3815,7.3699,7.3738,7.3815,7.3699,7.4123,7.4815,7.4123,7.47,7.5899,7.5168,7.5361,7.6015,0.0,0.0,0.0,0.0,0.0,0.0,0.0,0.0,0.0,0.0,0.0,0.0,0.0,0.0,0.0,0.0,0.0,0.0,0.0,0.0,0.0,4.5667,4.5646,4.5672,4.5672,4.5607,4.5607,4.5672,4.5672,4.6977,4.9436,4.9051,4.9572,5.0813,5.1202,5.0894,5.0091,4.9707,4.9784,5.0091,4.9707,5.0046,5.0683,0.0,0.0,0.0,0.0,0.0,0.0,5.0054,5.0291,5.0381,5.0306,0.0,0.0,0.0,5.105,5.1906,5.5081,5.9266,6.3867,6.8747,7.2104,7.472,7.6517,7.8001,7.9092,0.0,0.0,0.0,0.0,0.0,0.0,0.0,0.0,0.0,0.0,0.0,0.0,0.0,0.0,0.0,0.0,0.0,0.0,0.0,0.0,7.5284,7.5284,7.4469,7.4046,7.4046,7.3661,7.3507,7.3507,7.3507,7.3238,7.2783,7.2783,7.2514,7.2052,7.2052,7.2584,7.3469,7.2976,7.3053,7.3469,7.2976,7.3283,7.4007,7.3623,7.4238,7.5168,7.4353,7.4546,7.5284,0.0,0.0,0.0,0.0,0.0,0.0,0.0,0.0,0.0,0.0,0.0,0.0,0.0,0.0,0.0,0.0,0.0,0.0,0.0,0.0,0.0,4.5684,4.5695,4.5717,4.5717,4.5646,4.5646,4.5717,4.5717,4.7101,4.9833,4.982,5.0793,5.2525,5.2087,5.1467,5.0707,5.0476,5.0515,5.0673,5.0495,5.0602,0.0,0.0,0.0,0.0,0.0,0.0,0.0,0.0,0.0,0.0,0.0,5.0571,0.0,0.0,0.0,5.1962,5.5541,5.8091,6.0939,6.5898,6.9098,7.1636,0.0,0.0,7.7415,0.0,0.0,0.0,0.0,0.0,0.0,0.0,0.0,0.0,0.0,0.0,0.0,0.0,0.0,0.0,0.0,0.0,0.0,0.0,0.0,7.4392,7.4392,7.3392,7.2853,7.2853,7.243,7.2199,7.2199,7.243,7.2206,7.1552,7.179,7.1514,7.0898,7.0898,7.1629,7.2815,7.2129,7.2245,7.2776,7.2129,7.2399,7.3161,7.293,7.3469,7.4315,7.3469,7.3699,7.4392,0.0,0.0,0.0,0.0,0.0,0.0,0.0,0.0,0.0,0.0,0.0,0.0,3.7256,3.8338,3.9017,3.9017,3.9923,4.1279,4.3064,4.4018,4.4828,4.5646,4.5684,0.0,4.5684,4.568,4.568,4.5684,4.5684,4.7421,5.0735,5.0686,5.1973,5.4279,5.2646,5.1467,5.063,4.9822,4.9938,5.0649,0.0,0.0,0.0,0.0,0.0,0.0,0.0,0.0,0.0,0.0,0.0,0.0,0.0,0.0,0.0,0.0,0.0,0.0,5.2652,5.5397,5.8403,6.0393,6.4609,6.8785,0.0,0.0,0.0,0.0,0.0,0.0,0.0,0.0,0.0,0.0,0.0,0.0,0.0,0.0,0.0,0.0,0.0,0.0,0.0,0.0,0.0,0.0,0.0,7.3546,7.3546,7.1975,7.1052,7.1052,6.9507,6.866,6.866,6.9475,6.986,6.986,7.0591,7.0937,7.0898,7.0898,7.0937,7.1014,7.0975,7.0975,7.1014,7.0975,7.1475,7.2175,7.136,7.2091,7.3469,7.2591,7.2822,7.3546,0.0,0.0,0.0,0.0,0.0,0.0,0.0,0.0,0.0,0.0,0.0,0.0,0.0,3.8643,3.928,3.928,4.1163,4.2591,4.321,4.4524,4.5451,4.5764,4.5781,4.5765,4.5765,4.5739,4.5739,4.5765,4.5765,4.6959,4.9229,4.9684,5.0686,5.2083,5.253,5.2274,5.1433,5.0592,0.0,0.0,0.0,0.0,0.0,0.0,0.0,0.0,0.0,0.0,0.0,0.0,0.0,0.0,0.0,0.0,0.0,0.0,5.1348,5.1547,5.2465,5.3601,5.5202,5.8012,6.0978,6.375,6.6053,6.902,7.1402,0.0,0.0,0.0,0.0,0.0,0.0,0.0,0.0,0.0,0.0,0.0,0.0,0.0,0.0,0.0,0.0,0.0,0.0,0.0,0.0,0.0,7.1822,7.0206,6.9314,6.9314,6.8699,6.8391,6.8391,6.8699,6.8853,6.8853,6.9161,6.959,7.0129,6.9552,6.959,7.0129,7.0129,7.0437,7.0898,7.0898,7.1091,7.1321,7.1014,7.1629,7.2552,7.1706,7.2283,7.343,0.0,0.0,0.0,0.0,0.0,0.0,0.0,0.0,0.0,3.5703,0.0,0.0,0.0,0.0,4.0388,4.0697,4.2305,4.3437,4.3708,4.4794,4.5533,4.5803,4.5782,4.5806,4.5806,4.5742,4.5742,4.5806,4.5806,4.6653,4.8342,4.8877,4.9839,5.1225,5.2049,5.2088,5.1471,0.0,0.0,5.0925,0.0,0.0,5.1713,0.0,0.0,0.0,0.0,0.0,0.0,0.0,0.0,0.0,0.0,0.0,0.0,0.0,0.0,0.0,5.2118,5.2469,5.3406,5.6256,5.805,5.9807,6.2385,0.0,0.0,0.0,0.0,0.0,0.0,0.0,0.0,0.0,0.0,0.0,0.0,0.0,0.0,0.0,0.0,0.0,0.0,0.0,0.0,0.0,0.0,0.0,7.0052,6.8475,6.7276,6.6699,6.6968,6.7122,6.7122,6.7391,6.7705,6.7975,6.8276,6.8699,6.9237,6.866,6.8737,6.9276,6.959,7.0014,7.0514,7.0783,7.0898,7.0898,7.0898,7.1245,7.1675,7.1091,7.1629,7.2584,0.0,0.0,0.0,0.0,0.0,0.0,0.0,0.0,3.5032,3.7593,0.0,0.0,0.0,0.0,0.0,4.3243,4.3321,4.3708,4.4559,4.4636,4.4987,4.5765,4.5803,4.5803,4.5803,4.5803,4.5803,4.5803,4.5803,4.6654,4.8314,4.8265,4.9572,5.194,5.1146,5.0785,5.0668,0.0,5.0925,5.1036,0.0,5.2515,5.2744,0.0,0.0,0.0,5.5018,5.4787,0.0,0.0,0.0,0.0,0.0,0.0,0.0,0.0,0.0,0.0,0.0,0.0,0.0,0.0,0.0,0.0,5.9612,0.0,0.0,0.0,0.0,0.0,0.0,0.0,0.0,0.0,0.0,0.0,0.0,0.0,0.0,0.0,0.0,0.0,0.0,0.0,0.0,0.0,0.0,6.8314,6.8314,6.6744,6.5051,6.3352,6.4122,6.4551,6.4551,6.5436,6.625,6.7058,6.7898,6.8353,6.8353,6.8353,6.8353,6.8391,6.9244,6.9629,6.9744,7.0552,7.0898,7.0898,7.0898,7.0898,7.0898,7.0898,7.0937,7.1052,0.0,0.0,0.0,0.0,0.0,0.0,3.4061,3.4812,3.5959,0.0,0.0,0.0,4.139,4.2434,4.3053,4.3282,4.3862,4.4326,4.4597,4.5142,4.5571,4.5803,4.5803,4.5803,4.5803,4.5803,4.5803,4.5803,4.5803,4.6035,4.6538,4.7148,4.7835,4.8579,4.8935,4.9433,5.0105,5.0709,0.0,5.2074,5.2397,5.2949,0.0,0.0,0.0,0.0,0.0,5.5537,0.0,0.0,5.4951,5.4672,0.0,0.0,0.0,0.0,0.0,0.0,5.1414,0.0,0.0,0.0,0.0,0.0,0.0,0.0,0.0,0.0,0.0,0.0,0.0,0.0,0.0,0.0,0.0,0.0,0.0,0.0,0.0,0.0,0.0,0.0,0.0,0.0,0.0,0.0,6.6936,6.659,6.659,6.4974,6.3814,6.3314,6.3545,6.366,6.366,6.4512,6.5051,6.5282,6.6167,6.6898,6.7436,6.6859,6.6898,6.7475,6.7712,6.8167,6.8853,7.0321,7.0898,7.0898,7.0898,7.0898,7.0898,7.0898,7.1283,7.1867,0.0,0.0,0.0,0.0,0.0,3.5263,3.5886,3.6712,3.7641,0.0,0.0,0.0,4.2821,4.3827,4.433,4.433,4.4794,4.5104,4.5104,4.5533,4.5803,4.5803,4.5803,4.5834,4.5893,4.5893,4.5882,4.5933,4.6286,4.6483,4.6483,4.7317,4.7958,4.8357,4.8852,4.9551,0.0,0.0,0.0,0.0,5.3355,0.0,0.0,5.6282,5.6752,0.0,0.0,0.0,5.7571,5.7106,5.6439,0.0,0.0,0.0,0.0,0.0,0.0,0.0,0.0,0.0,0.0,0.0,0.0,0.0,5.3094,5.4147,0.0,0.0,0.0,0.0,0.0,0.0,0.0,0.0,0.0,0.0,0.0,0.0,0.0,0.0,0.0,0.0,0.0,0.0,0.0,6.5493,6.5149,6.4582,6.3826,6.3468,6.2814,6.1737,6.2435,6.2781,6.2781,6.3281,6.3743,6.4083,6.4936,6.559,6.6051,6.5942,6.6173,6.6635,6.6942,6.7398,6.7975,6.9706,7.0591,7.0898,7.0898,7.0898,7.0898,7.0898,7.1206,7.1713,0.0,0.0,3.4742,3.5784,3.7209,3.8254,3.8447,3.9227,3.9771,0.0,4.07,4.2244,4.4636,4.5529,4.5965,4.5944,4.5866,4.5838,4.5812,4.5815,4.5815,4.5815,4.5815,4.5869,4.6017,4.6017,4.6024,4.61,4.6961,4.7391,4.743,4.8215,4.9028,4.9798,4.9859,0.0,0.0,0.0,0.0,5.2802,5.4602,5.5896,0.0,0.0,5.984,0.0,6.0114,5.9958,5.9369,5.9257,5.8123,0.0,0.0,0.0,0.0,0.0,5.2313,0.0,0.0,0.0,0.0,0.0,0.0,0.0,5.3287,5.3171,5.3054,0.0,0.0,0.0,0.0,0.0,0.0,0.0,0.0,0.0,0.0,0.0,0.0,0.0,0.0,0.0,0.0,6.3062,6.3073,6.287,6.3074,6.2426,6.08,6.2086,6.1893,5.9744,6.1145,6.1941,6.1941,6.2056,6.248,6.316,6.4122,6.4589,6.4628,6.5513,6.5904,6.5936,6.6673,6.7019,6.7212,6.8783,6.9937,7.0783,7.086,7.0898,7.0898,7.0898,7.0898,7.1014,0.0,0.0,3.5087,3.7326,3.7983,3.8679,4.0078,4.1006,4.1509,4.1509,4.3443,4.5262,4.6496,4.677,4.6854,4.6923,4.6313,4.5966,4.6048,4.6052,4.6052,4.6052,4.6052,4.606,4.6076,4.6078,4.6086,4.61,4.6961,4.7391,4.743,4.8215,4.8749,4.902,4.903,4.9554,5.0427,0.0,0.0,5.3787,5.4882,0.0,5.7771,5.8984,5.9726,6.0156,6.0351,6.0742,6.0976,0.0,5.8514,5.7379,0.0,0.0,0.0,0.0,0.0,0.0,0.0,0.0,0.0,0.0,0.0,0.0,5.1413,5.235,5.36,0.0,0.0,0.0,0.0,0.0,0.0,0.0,0.0,0.0,0.0,0.0,0.0,0.0,0.0,0.0,0.0,6.0571,6.0451,6.026,6.0372,6.0316,6.0017,6.0234,6.0505,6.0708,6.0922,6.1056,6.1056,6.1749,6.2172,6.2364,6.3858,6.4589,6.4628,6.5513,6.5904,6.5904,6.6058,6.6519,6.7135,6.7481,6.8513,7.0014,7.0667,7.0898,7.0898,7.0898,7.0898,7.1014,0.0,3.5358,3.6323,3.845,3.9533,4.0539,4.1854,4.2744,4.3312,4.3352,4.5589,4.7528,4.8385,4.8497,4.8321,4.7944,4.7523,4.731,4.7351,4.6961,4.6766,4.6766,4.6336,4.6312,4.6773,4.6383,4.6592,4.7512,4.7942,4.8372,4.8802,4.9623,5.0022,5.0111,5.0111,5.0349,5.0859,0.0,5.2812,5.4141,5.5898,0.0,5.8671,5.9961,6.0703,6.1055,6.1055,6.1328,6.1445,5.9764,5.8904,0.0,0.0,5.5656,5.5225,0.0,5.4353,5.4003,0.0,0.0,0.0,5.3444,0.0,0.0,0.0,5.2389,5.2585,5.2156,0.0,0.0,0.0,0.0,0.0,0.0,0.0,0.0,0.0,0.0,0.0,0.0,0.0,0.0,0.0,5.8686,5.8819,5.9077,5.9097,5.8943,5.8522,5.8865,5.9331,5.9855,6.0094,6.0452,6.0882,6.1268,6.1441,6.1479,6.2749,6.3551,6.3968,6.4859,6.5474,6.5904,6.5904,6.6134,6.6519,6.6942,6.7859,6.9122,6.9975,7.0552,7.0898,7.0898,7.0898,7.0975,3.5941,3.6458,3.7558,3.9658,4.1144,4.2434,4.3636,4.4449,4.5073,4.5646,4.7554,4.9306,5.0518,5.0357,5.0088,4.9873,4.9133,4.8865,0.0,0.0,4.7704,4.7704,4.6999,4.6981,4.7756,4.7092,4.7453,4.8906,4.9062,4.9492,5.0234,5.1016,5.1406,5.1406,5.1406,5.1484,5.1719,0.0,0.0,5.4492,0.0,5.8555,5.9375,6.0898,6.1562,6.1719,6.1719,6.1719,6.1445,5.9765,0.0,5.8904,5.7146,5.6129,0.0,0.0,0.0,0.0,0.0,0.0,0.0,0.0,0.0,5.3796,0.0,0.0,0.0,5.1297,0.0,0.0,0.0,0.0,0.0,0.0,0.0,0.0,0.0,0.0,0.0,0.0,0.0,0.0,0.0,5.6731,5.6895,5.7654,5.7629,5.7403,5.7026,5.7825,5.8436,5.8693,5.9226,5.9843,6.0545,6.0424,6.0426,6.0619,6.1464,6.2287,6.3083,6.4128,6.4974,6.5667,6.582,6.5904,6.5942,6.6596,6.7359,6.8237,6.9283,7.0206,7.0898,7.0898,7.0898,7.0898,3.677,3.6871,3.8026,4.1252,4.2019,4.2997,4.5412,4.588,4.674,4.9013,4.9568,5.0665,0.0,0.0,0.0,0.0,0.0,0.0,5.2068,0.0,0.0,4.8748,4.8631,4.8632,4.875,4.8632,4.8672,4.8906,4.9687,5.0117,5.0234,5.1016,5.1406,5.1406,5.1406,5.1836,5.2617,0.0,5.4375,0.0,5.8008,5.9101,0.0,6.0195,6.1015,6.1719,6.1719,6.1719,6.1445,0.0,5.9218,5.8904,0.0,5.6521,0.0,0.0,0.0,0.0,0.0,0.0,0.0,0.0,5.6293,0.0,0.0,0.0,5.399,5.0866,0.0,0.0,0.0,0.0,0.0,0.0,0.0,0.0,0.0,0.0,0.0,0.0,0.0,0.0,0.0,0.0,5.3252,5.41,5.4272,5.4902,5.6155,5.7145,5.8015,5.8661,5.875,5.8856,5.8972,5.8846,5.9138,5.9829,6.0569,6.1402,6.2287,6.3897,6.4666,6.4782,6.5551,6.5904,6.5904,6.6013,6.6513,6.7398,6.9052,7.0206,7.0898,7.0898,7.0898,7.0898,3.7763,3.821,0.0,4.1733,4.2615,4.3841,4.6454,4.8989,5.0651,5.0688,5.2508,5.459,0.0,0.0,0.0,0.0,0.0,5.3357,0.0,0.0,0.0,0.0,4.918,0.0,4.9648,4.9141,4.9375,5.0351,5.0234,5.043,5.0898,5.125,5.1406,5.1406,5.1914,0.0,5.2773,0.0,5.4961,0.0,0.0,0.0,0.0,6.0664,6.1367,6.1719,6.1719,6.1719,6.1523,0.0,5.9609,0.0,0.0,0.0,0.0,0.0,0.0,0.0,0.0,0.0,0.0,0.0,0.0,0.0,0.0,0.0,5.278,0.0,0.0,0.0,0.0,0.0,0.0,0.0,0.0,0.0,0.0,0.0,0.0,0.0,0.0,0.0,0.0,0.0,0.0,0.0,5.3788,5.4301,5.5465,5.593,5.6777,5.8119,5.8099,5.8296,5.8804,5.8669,5.8785,5.913,6.0425,6.1447,6.2281,6.3951,6.4958,6.5359,6.5743,6.5904,6.5904,6.5904,6.6365,6.7173,6.7904,6.9013,7.0206,7.0206,7.0514,7.0975,3.9761,0.0,0.0,0.0,4.3492,4.479,4.7405,5.052,0.0,0.0,0.0,0.0,5.9609,5.8555,0.0,0.0,0.0,5.7461,0.0,0.0,5.2344,0.0,0.0,0.0,0.0,0.0,5.0195,5.1406,5.082,5.082,5.1406,5.1406,5.1406,5.1445,5.2305,5.2812,5.3164,0.0,5.5781,5.6172,5.789,5.9101,6.0039,6.125,6.1719,6.1719,6.1719,6.1719,6.1562,6.0703,6.0,0.0,5.8242,0.0,0.0,0.0,0.0,0.0,5.6616,0.0,0.0,0.0,0.0,0.0,0.0,0.0,0.0,0.0,0.0,0.0,0.0,0.0,0.0,0.0,0.0,0.0,0.0,0.0,0.0,0.0,0.0,0.0,0.0,0.0,0.0,5.2756,5.279,5.3249,5.4316,5.4886,5.5734,5.7013,5.7448,5.7974,5.8601,5.8459,5.8512,5.8784,5.996,6.0922,6.171,6.3394,6.4564,6.527,6.5501,6.5696,6.5904,6.5904,6.625,6.6789,6.6789,6.7821,6.936,6.9629,7.0052,7.0744,4.3202,4.2181,0.0,0.0,0.0,0.0,0.0,0.0,0.0,0.0,0.0,0.0,0.0,0.0,0.0,0.0,0.0,6.1523,6.1445,0.0,5.5664,0.0,0.0,0.0,0.0,0.0,5.1367,5.1406,5.1367,5.1367,5.1406,5.1406,5.1406,5.1445,5.2305,5.3164,5.4062,5.582,5.7031,5.7969,5.9648,6.0859,6.164,0.0,6.1719,6.1719,6.1719,0.0,0.0,6.0703,6.039,0.0,0.0,0.0,0.0,0.0,0.0,0.0,0.0,0.0,0.0,5.6842,0.0,0.0,0.0,0.0,5.5473,0.0,0.0,0.0,0.0,0.0,0.0,0.0,0.0,0.0,0.0,0.0,0.0,0.0,0.0,0.0,0.0,0.0,0.0,5.0083,5.0239,5.0918,5.2485,5.4311,5.5254,5.5182,5.6889,5.7814,5.7853,5.7712,5.8057,5.8907,5.8835,5.9237,6.012,6.1825,6.2977,6.3729,6.4502,6.5231,6.5904,6.5904,6.5904,6.5936,6.5936,6.6974,6.8545,6.9398,6.9706,6.9975,0.0,0.0,0.0,0.0,0.0,0.0,0.0,5.2305,0.0,0.0,0.0,0.0,0.0,0.0,6.9258,0.0,0.0,6.6719,6.4414,6.1055,0.0,0.0,0.0,5.3828,0.0,0.0,0.0,0.0,5.168,5.1719,5.2266,5.168,5.2031,5.3125,5.3437,5.4023,0.0,0.0,0.0,0.0,0.0,6.0937,6.1719,0.0,0.0,6.1719,6.1719,6.1719,0.0,6.1367,6.0508,5.9609,5.957,5.8398,5.7109,5.7381,5.7459,0.0,0.0,0.0,5.9172,5.7753,0.0,0.0,0.0,0.0,0.0,0.0,0.0,0.0,0.0,0.0,0.0,0.0,0.0,0.0,0.0,0.0,0.0,0.0,0.0,0.0,0.0,0.0,0.0,4.8406,4.8953,4.9961,5.166,5.2928,5.4101,5.5214,5.6402,5.6996,5.6996,5.7487,5.7593,5.7395,5.9051,5.9941,6.0217,6.3064,6.4432,6.4623,6.535,6.5791,6.6019,6.5933,6.5904,6.5904,6.5904,6.6551,6.7667,6.8513,6.9552,7.0744,4.5391,0.0,0.0,0.0,0.0,0.0,0.0,0.0,0.0,0.0,6.4023,0.0,7.2461,0.0,7.375,0.0,7.414,7.1015,6.6367,6.4531,0.0,5.8515,5.6758,0.0,0.0,0.0,0.0,0.0,0.0,5.2305,5.3125,5.1953,5.2148,5.3555,5.3867,5.4297,5.5,0.0,5.8359,0.0,0.0,6.1211,0.0,0.0,6.1719,6.1719,0.0,6.1719,6.1719,6.1719,6.0976,6.0117,6.0312,5.9258,5.8008,5.8281,5.8358,5.8358,5.8355,5.9137,0.0,5.8543,5.8465,0.0,5.728,0.0,0.0,0.0,0.0,0.0,0.0,0.0,0.0,0.0,0.0,0.0,0.0,4.6783,0.0,0.0,0.0,0.0,0.0,0.0,4.6924,4.7548,4.8095,4.911,0.0,0.0,5.3367,5.4772,5.6255,5.7035,5.7035,5.7855,5.7855,5.7035,5.8675,5.9748,6.0362,6.2859,6.4444,6.522,6.5623,6.5967,6.6167,6.6072,6.5997,6.5999,6.6308,6.6909,6.7628,6.8199,6.9667,7.1552,0.0,0.0,0.0,0.0,4.7891,0.0,0.0,0.0,6.0273,0.0,6.6406,7.0195,7.4453,7.4961,7.5976,7.8476,7.789,0.0,6.789,6.8867,0.0,0.0,5.957,5.9023,5.8164,0.0,0.0,0.0,0.0,5.3164,5.4023,5.2266,5.1992,5.293,5.3711,0.0,5.4336,5.7695,5.918,5.9414,6.1055,6.1719,6.1719,6.1719,6.1719,6.1719,6.1719,6.1719,6.1719,6.1719,6.164,6.1445,6.0664,6.0351,6.0117,5.9414,5.9219,5.9258,5.9256,5.9295,5.9294,5.9173,0.0,0.0,0.0,0.0,5.7325,0.0,0.0,0.0,0.0,0.0,0.0,0.0,0.0,0.0,0.0,0.0,0.0,0.0,0.0,0.0,0.0,4.548,4.5674,4.7353,4.7548,4.8328,0.0,0.0,5.3054,5.3951,5.6411,5.7739,5.7739,5.8635,5.8674,5.7817,5.7856,5.8792,6.051,6.1407,6.3091,6.5314,6.5348,6.575,6.6322,6.6314,6.6213,6.62,6.709,6.7834,6.8488,6.8513,7.0052,7.229,4.6484,4.7344,4.8437,0.0,5.0078,5.1562,0.0,0.0,0.0,0.0,7.1367,7.5312,7.8945,7.9922,8.0586,8.1289,8.0547,0.0,0.0,0.0,0.0,6.789,6.4687,6.2578,6.1719,5.8555,0.0,5.5937,0.0,5.3476,5.4922,5.3164,5.3516,5.5586,5.5156,5.5312,5.6015,5.7578,5.8945,6.0195,6.1289,6.1719,0.0,0.0,6.1719,6.1719,6.1719,6.1719,6.1719,6.1719,6.0859,5.9922,6.0273,5.9531,5.8633,5.9062,5.9609,6.0078,6.0078,6.0547,6.0898,6.0232,5.9919,5.9253,0.0,0.0,0.0,0.0,0.0,0.0,0.0,0.0,0.0,0.0,0.0,0.0,0.0,0.0,0.0,0.0,0.0,0.0,0.0,4.5128,4.5206,4.5635,4.6884,4.8056,0.0,0.0,0.0,5.3951,5.5903,5.6918,5.6918,5.8362,5.8674,5.7817,5.8441,5.9689,6.1407,6.293,6.4328,6.5558,6.6042,6.6343,6.6501,6.6358,6.6287,6.6324,6.7225,6.8346,6.9594,7.0054,7.0667,7.1437,4.7617,0.0,0.0,5.2891,0.0,0.0,5.7461,0.0,0.0,6.9297,7.375,0.0,7.9648,8.2031,8.3281,8.289,8.2422,0.0,0.0,0.0,0.0,7.0859,6.8398,6.6172,6.418,6.0742,0.0,5.7187,0.0,0.0,5.582,5.3672,5.3906,5.6015,5.5508,5.5586,5.6133,5.7773,5.9453,6.1015,6.1484,0.0,0.0,6.1719,6.1719,6.1719,6.1719,6.1445,6.1133,6.1133,6.0273,5.9336,6.0156,5.9492,5.8711,5.9922,6.0351,6.0469,6.0859,6.1328,6.1562,6.1093,6.0663,6.0038,5.8589,5.7768,5.7143,0.0,0.0,0.0,0.0,0.0,0.0,0.0,0.0,0.0,0.0,0.0,0.0,0.0,0.0,0.0,0.0,4.544,4.5167,4.5558,4.6495,0.0,0.0,0.0,0.0,5.3912,5.5707,5.6605,5.6605,5.8635,5.9026,5.7817,5.8674,6.0196,6.2304,6.3673,6.4961,6.6169,6.6521,6.6697,6.6693,6.6561,6.6462,6.6559,6.7704,6.917,7.0651,7.1026,7.1029,7.1168,0.0,0.0,0.0,0.0,0.0,0.0,0.0,6.3473,0.0,7.1362,0.0,7.8511,7.9527,8.2769,8.4527,8.3785,0.0,8.1598,7.6988,7.8668,7.7379,7.191,7.1325,6.9489,6.5973,6.2498,0.0,0.0,0.0,0.0,5.6562,5.4141,5.3906,5.5469,5.5469,5.5469,0.0,5.8125,6.0039,6.1406,6.1601,6.1719,6.1719,6.1719,6.1719,6.1719,6.1719,6.1211,6.0586,6.0586,6.0039,5.9492,6.0195,5.9922,5.9648,6.1094,6.1055,6.0742,6.1484,6.1719,6.1719,6.1719,6.1055,6.0351,6.0272,5.8358,5.6795,5.7576,5.6441,5.5269,0.0,0.0,0.0,0.0,0.0,0.0,0.0,0.0,0.0,0.0,0.0,0.0,0.0,0.0,0.0,4.6223,0.0,0.0,0.0,0.0,0.0,5.3873,5.559,0.0,5.6917,0.0,5.969,5.8324,5.9064,6.0743,6.3204,6.4064,6.5313,6.6796,6.6796,6.6796,6.6796,6.6796,6.6879,6.7109,6.8426,7.0001,7.1513,7.1489,7.1265,7.1236,0.0,0.0,0.0,0.0,0.0,6.5408,6.9211,7.1811,7.4642,7.8384,8.1402,8.3791,8.5345,8.4961,8.4499,8.4343,8.3683,0.0,0.0,0.0,0.0,7.6897,7.4748,7.1668,6.75,6.4121,6.1218,0.0,0.0,0.0,5.6562,5.539,5.539,5.6367,5.6367,5.6367,5.6484,5.8398,0.0,5.9765,6.1133,6.1719,6.1719,6.1719,6.1719,6.1719,6.1719,6.1601,6.1484,6.1484,6.0898,6.0195,6.0351,6.0312,6.0234,6.0547,6.1015,6.1523,6.164,6.1719,6.1719,6.1719,6.1055,6.0234,5.957,5.7969,5.664,5.6797,5.6015,5.5078,5.4374,0.0,0.0,0.0,0.0,0.0,0.0,0.0,0.0,0.0,0.0,0.0,0.0,0.0,0.0,0.0,0.0,0.0,0.0,0.0,0.0,0.0,5.5005,0.0,0.0,0.0,6.0627,6.1016,6.1172,6.2228,6.4103,6.496,6.5897,6.6796,6.6796,6.6796,6.6796,6.6796,6.7649,6.892,6.9024,7.0146,7.1656,7.1533,7.1443,7.1591,0.0,0.0,0.0,0.0,0.0,0.0,0.0,7.9101,0.0,8.067,8.2107,8.3477,8.4253,8.563,8.6108,8.5212,8.4358,8.3504,8.2646,8.1753,8.0698,7.9451,7.6915,0.0,7.0517,6.6276,6.2888,6.0346,0.0,0.0,5.6562,5.5703,5.5781,5.6601,5.6601,5.7109,0.0,0.0,0.0,6.0586,6.1367,6.1719,6.1719,6.1719,6.1719,6.1719,6.1719,6.1719,6.164,6.1172,6.0469,5.9844,6.0273,6.0117,5.9961,6.082,6.1055,6.1133,6.1562,6.1719,6.1719,6.1719,6.1055,6.0312,5.9922,5.8164,5.6719,5.7187,5.6211,5.5039,5.4178,5.2964,0.0,0.0,0.0,0.0,0.0,0.0,0.0,0.0,0.0,0.0,0.0,0.0,0.0,0.0,0.0,0.0,0.0,0.0,0.0,0.0,0.0,0.0,0.0,0.0,0.0,6.1719,6.2148,6.3282,6.4999,6.5858,6.6445,6.6796,6.6796,6.6796,6.6835,6.7303,6.8239,6.9447,6.9804,7.0725,7.1852,7.1765,7.198,7.244,0.0,6.542,0.0,0.0,7.3642,0.0,8.0214,8.4064,8.5614,8.2777,8.3009,8.3519,8.3675,8.6384,8.7529,8.5778,8.4887,8.3957,8.2902,8.2201,8.1427,8.0567,7.8231,7.5694,7.2882,6.8047,6.4208,0.0,0.0,0.0,0.0,5.6093,5.6328,0.0,0.0,0.0,0.0,0.0,6.0234,6.1445,6.164,6.1719,6.1719,6.1719,6.1719,6.1719,6.1719,6.1719,6.1601,6.0898,6.0273,5.9844,6.0469,6.0234,6.0,6.1328,6.1211,6.082,6.1523,6.1562,6.1484,6.164,6.0781,5.9961,6.0312,5.8437,5.6836,5.7734,5.664,5.5351,5.4686,5.4254,0.0,0.0,0.0,0.0,0.0,0.0,0.0,0.0,0.0,0.0,0.0,0.0,0.0,0.0,0.0,0.0,0.0,0.0,0.0,0.0,0.0,5.6453,5.8325,0.0,6.207,0.0,6.3125,6.4258,6.5624,6.6445,6.6796,6.6796,6.6796,6.6796,6.6874,6.7732,6.8591,6.949,7.0348,7.1245,7.2026,7.2221,7.2615,7.3205,0.0,0.0,0.0,0.0,0.0,0.0,8.1159,8.4452,8.7048,8.8255,8.8455,8.8804,8.9539,8.861,8.7223,8.5481,8.4597,8.3435,8.1764,8.1571,8.1145,8.0293,7.8557,7.604,7.2705,6.848,6.4644,0.0,0.0,0.0,0.0,0.0,0.0,0.0,0.0,0.0,0.0,5.9961,6.039,6.0586,6.1367,6.1719,6.1719,6.1719,6.1719,6.1719,6.1719,6.1719,6.168,6.1601,6.1523,6.1484,6.1562,6.1523,6.1484,6.164,6.164,6.1601,6.168,6.1133,6.0703,6.1484,5.9883,5.8515,6.0039,5.8437,5.6836,5.7734,5.7148,5.6445,5.6365,5.5077,5.3983,0.0,0.0,0.0,0.0,0.0,0.0,0.0,0.0,0.0,0.0,0.0,0.0,0.0,0.0,0.0,0.0,0.0,0.0,5.3951,0.0,5.7669,6.0119,6.1954,6.3282,6.4064,6.4921,6.5429,6.5624,6.6445,6.6796,6.6796,6.6796,6.6796,6.6874,6.7732,6.8591,6.949,7.0348,7.1245,7.2104,7.2884,7.3232,7.3499,0.0,0.0,0.0,0.0,0.0,0.0,0.0,8.6972,8.8582,8.9782,8.9518,8.9124,8.8931,8.8305,8.7183,8.5449,8.4559,8.3592,8.2355,8.1768,8.1343,8.0994,7.8873,7.7055,7.5701,7.1017,6.7195,0.0,0.0,0.0,0.0,0.0,0.0,0.0,0.0,5.9409,5.9922,6.0273,6.0703,6.1211,6.1562,6.1719,6.1719,6.1719,6.1719,6.1719,6.1719,6.1719,6.1719,6.1719,6.1719,6.1719,6.1719,6.1719,6.1719,6.1719,6.1719,6.1719,6.1719,6.1445,6.125,6.1601,6.0547,5.9453,5.9648,5.8476,5.7344,5.7148,5.6836,5.6601,5.6601,5.6015,5.5546,0.0,0.0,0.0,0.0,0.0,0.0,0.0,0.0,0.0,0.0,0.0,0.0,0.0,0.0,0.0,0.0,0.0,0.0,5.3922,0.0,5.7553,5.9612,6.1876,6.3438,6.4298,6.5194,6.5858,6.6327,6.664,6.6796,6.6796,6.6796,6.7109,6.7654,6.8513,6.9372,7.027,7.1128,7.1675,7.2104,7.2962,7.3625,7.4173,7.6684,0.0,7.8224,0.0,8.2643,8.3673,8.7984,8.9163,8.9743,9.0323,8.9898,8.924,8.8389,8.8505,8.7725,8.5488,8.4792,8.3979,8.2864,8.1968,8.1497,8.1497,7.9531,0.0,7.7713,7.3386,6.9696,6.6717,6.4231,0.0,0.0,0.0,0.0,0.0,5.9703,6.0085,6.0739,6.0739,6.1132,6.1719,6.1719,6.1719,6.1719,6.1719,6.1719,6.1719,6.1719,6.1719,6.1719,6.1719,6.1719,6.1719,6.1719,6.1719,6.1719,6.1719,6.1719,6.1719,6.1719,6.1523,6.1367,6.164,6.0859,5.9883,5.9336,5.8515,5.7656,5.6797,5.6601,5.6601,5.6601,5.6601,5.6601,5.6601,0.0,0.0,0.0,0.0,0.0,0.0,0.0,4.8944,4.9569,0.0,0.0,0.0,0.0,0.0,0.0,0.0,0.0,0.0,0.0,0.0,0.0,6.2074,6.3673,6.4298,6.5429,6.6366,6.7187,6.7464,6.7544,6.7544,6.7544,6.7892,6.8552,6.9411,7.0152,7.0776,7.1675,7.2143,7.2495,7.3352,7.4173,7.4993,7.9498,8.0156,8.151,8.5797,8.6532,8.7383,8.9975,9.0362,9.04,9.04,9.04,9.0091,8.9285,8.9898,8.9008,8.5604,8.5294,8.4598,8.2902,8.1968,8.1497,0.0,0.0,7.9376,7.7751,7.516,7.1756,6.7501,0.0,0.0,5.9982,0.0,6.0553,6.1376,6.1376,6.1465,6.1605,6.1605,6.1627,6.1719,6.1719,6.1719,6.1719,6.1719,6.1719,6.1719,6.1719,6.1719,6.1719,6.1719,6.1719,6.1719,6.1719,6.1719,6.1719,6.1719,6.1719,6.1719,6.1719,6.1055,6.0625,6.1484,6.0469,5.9219,5.9219,5.8515,5.7654,5.6795,5.6601,5.6601,5.6601,5.6601,5.6601,5.66,0.0,0.0,0.0,0.0,0.0,0.0,5.1359,5.1356,5.1365,0.0,0.0,0.0,0.0,0.0,0.0,0.0,0.0,5.4016,5.7295,0.0,6.0369,6.2976,6.4298,6.4337,6.5977,6.7224,6.8122,6.8994,6.9351,6.9351,6.9351,6.9384,6.9451,7.0309,7.0698,7.0776,7.1675,7.2534,7.3391,7.4173,7.5032,7.5893,8.1774,8.2896,8.4282,8.6255,8.7106,8.815,9.0091,9.04,9.0594,9.1213,9.129,9.0942,9.0091,8.9743,8.866,0.0,8.6177,8.5488,0.0,8.2857,8.2393,8.2393,8.1001,7.9685,7.8602,7.663,7.3806,7.0092,0.0,0.0,0.0,6.2043,6.195,6.2186,6.1606,6.1365,6.1458,6.1458,6.154,6.1624,6.1624,6.1674,6.1719,6.1719,6.1719,6.1719,6.1719,6.1719,6.1719,6.1719,6.1719,6.1719,6.1719,6.1719,6.1719,6.1719,6.1719,6.1719,6.1719,6.1484,6.1367,6.164,6.1289,6.0742,6.0156,5.8906,5.7811,5.7539,5.6992,5.6601,5.6601,5.6601,5.6601,5.6601,5.6601,0.0,0.0,0.0,0.0,0.0,5.0585,5.0819,0.0,5.113,0.0,0.0,0.0,0.0,0.0,0.0,0.0,0.0,5.7922,0.0,6.1268,6.3288,6.461,6.5194,6.6883,6.814,6.9005,6.9282,6.94,6.94,6.9394,6.9741,7.0322,7.0586,7.105,7.1675,7.2534,7.3079,7.3469,7.4876,7.5541,7.5932,8.4173,8.5062,8.6261,8.777,8.8234,8.8969,9.0633,9.0903,9.1097,9.1638,9.1406,9.1135,9.0903,8.9859,0.0,8.7654,8.7267,8.6494,8.514,8.3637,8.2786,8.2786,8.1426,8.0298,7.9453,0.0,0.0,7.2297,6.9324,6.6631,6.4231,6.3071,6.2528,6.2489,6.1601,6.1264,6.1351,6.1351,6.1437,6.1605,6.1605,6.1628,6.1719,6.1719,6.1719,6.1719,6.1719,6.1719,6.1719,6.1719,6.1719,6.1719,6.1719,6.1719,6.1719,6.1719,6.1719,6.1719,6.1719,6.1719,6.1719,6.1719,6.1719,6.1484,6.0585,5.9373,5.8318,5.7967,5.7459,5.6991,5.664,5.6601,5.6601,5.6601,5.6328,5.5742,5.4648,0.0,0.0,0.0,0.0,0.0,0.0,5.2186,0.0,0.0,0.0,0.0,0.0,0.0,0.0,5.6562,5.8863,0.0,6.2171,6.3919,6.5047,6.5631,6.7634,6.9049,6.9915,7.0228,7.0384,7.0383,7.038,7.0686,7.1186,7.1179,7.1523,7.2104,7.2962,7.3469,7.3939,7.5307,7.601,7.6361,8.6416,8.6642,0.0,0.0,8.9782,0.0,9.1445,9.1716,9.1677,9.1638,9.0903,9.0671,9.1445,9.013,8.9208,8.9208,0.0,0.0,0.0,8.425,8.2864,8.2786,8.1968,8.1072,8.0143,7.8602,7.6436,7.3728,6.8777,6.5953,6.5069,6.3362,6.2544,6.2467,6.1577,6.1217,6.1292,6.1292,6.1404,6.1594,6.1598,6.1624,6.1679,6.1719,6.1719,6.1719,6.1719,6.1719,6.1719,6.1719,6.1719,6.1719,6.1719,6.1719,6.1719,6.1719,6.1719,6.1719,6.1719,6.1719,6.1719,6.1719,6.1719,6.1484,6.0698,5.9878,5.906,5.8236,5.8043,5.7733,5.6836,5.668,5.668,5.6601,5.5937,5.5351,5.5234,0.0,0.0,0.0,0.0,0.0,0.0,5.3553,5.371,0.0,0.0,0.0,0.0,0.0,5.5976,5.6836,5.9999,6.2223,6.3271,6.4827,6.5682,6.5878,6.8347,6.9954,7.0818,7.1638,7.199,7.199,7.199,7.1984,7.2008,7.2006,7.2,7.2106,7.2963,7.3782,7.4603,7.5463,7.6361,7.7101,0.0,0.0,8.8189,9.0052,9.0246,9.0478,9.1522,9.1716,9.1445,9.0787,9.0516,9.0246,8.9827,8.944,8.9208,8.9208,8.8389,8.726,8.572,8.4482,8.3521,8.2825,8.1968,8.0801,7.9337,7.8912,7.6475,7.191,6.9396,6.7423,6.5876,6.487,6.4024,6.3366,6.2472,6.1722,6.1147,6.1147,6.1237,6.1373,6.1417,6.1532,6.1623,6.1678,6.1719,6.1719,6.1719,6.1719,6.1719,6.1719,6.1719,6.1719,6.1719,6.1719,6.1719,6.1719,6.1719,6.1719,6.1719,6.1719,6.1719,6.1719,6.1719,6.164,6.1445,6.0741,6.0076,5.9843,5.9335,5.8631,5.7734,5.7578,5.7383,5.6719,5.6445,5.582,5.4492,5.3945,0.0,0.0,5.2695,5.3203,5.457,5.4258,5.4453,0.0,0.0,0.0,0.0,5.7812,5.8632,5.9451,6.0935,6.3082,6.5966,6.5731,6.6592,6.851,6.98,7.0857,7.1718,7.1914,7.1992,7.1992,7.199,7.1989,7.1986,7.2013,7.2004,7.2079,7.2966,7.3782,7.4603,7.5463,7.6361,7.7101,8.8157,8.8737,8.9472,9.0787,9.0671,9.0671,9.1561,9.1367,9.0942,9.0478,8.9743,8.924,8.9208,8.8505,8.8157,8.8582,8.815,8.7338,8.5991,8.4753,8.3715,8.2825,8.1968,8.0878,7.9569,7.8796,7.6281,7.1872,6.9821,6.8308,6.7346,6.5765,6.4759,6.4256,6.3366,6.2743,6.224,6.1853,6.1772,6.1861,6.1526,6.1467,6.161,6.1677,6.1719,6.1719,6.1719,6.1719,6.1719,6.1719,6.1719,6.1719,6.1719,6.1719,6.1719,6.1719,6.1719,6.1719,6.1719,6.1719,6.1719,6.1719,6.1719,6.1719,6.1718,6.1327,6.0897,6.0468,6.0038,5.9374,5.8125,5.789,5.7617,5.6758,5.6289,5.5664,5.4726,5.4258,0.0,5.3359,5.3984,5.4844,5.5781,5.6172,5.6445,5.6601,0.0,0.0,5.7305,5.9609,6.0937,6.0976,6.3007,6.4998,6.6869,6.7182,6.8238,6.9997,7.0467,7.1367,7.2578,7.2187,7.2226,7.2578,7.2187,7.1991,7.1989,7.1984,7.2015,7.2123,7.3404,7.414,7.4642,7.593,7.6672,7.7101,9.0246,9.04,9.0671,9.1561,9.1213,9.0981,9.16,9.1058,9.0516,9.0246,8.8969,8.8273,8.8776,8.7615,8.699,8.7454,8.7493,8.7144,8.6293,8.4753,8.3521,8.2632,8.189,8.1033,8.0034,7.8138,7.5624,7.2607,7.017,6.8849,6.854,6.6379,6.5223,6.4952,6.4217,6.3831,6.3637,6.2781,6.2486,6.2482,6.1693,6.145,6.1598,6.1674,6.1679,6.1719,6.1719,6.1719,6.1719,6.1719,6.1719,6.1719,6.1719,6.1719,6.1719,6.1719,6.1719,6.1719,6.1719,6.1719,6.1719,6.1719,6.1719,6.1719,6.1717,6.1717,6.1483,6.0741,6.0584,6.0077,5.8398,5.8086,5.7773,5.6758,5.5976,5.5469,5.5312,0.0,5.4258,5.4375,5.5703,5.6719,5.6953,5.832,5.8633,5.7265,5.918,5.957,0.0,6.1133,6.2969,6.25,6.5351,6.7031,6.7264,6.8943,7.0154,7.0896,7.1015,7.1953,7.3476,7.2734,7.2812,7.3437,7.2578,7.2187,7.2186,7.2068,7.1985,7.2167,7.3646,7.4343,7.4684,7.6164,7.6867,7.7101,9.0246,9.04,9.0671,9.1561,9.2218,9.2412,9.1793,9.16,9.0981,8.9556,8.9169,8.8505,8.7151,8.7415,8.7144,8.5836,8.572,8.5372,8.4521,8.356,8.2625,8.1729,8.1575,8.0762,7.9221,7.6088,7.3883,7.2607,7.0711,6.9087,6.7694,6.7307,6.634,6.4991,6.4875,6.4372,6.3637,6.2781,6.2409,6.2378,6.1627,6.134,6.1445,6.1558,6.1632,6.1719,6.1719,6.1719,6.1719,6.1719,6.1719,6.1719,6.1719,6.1719,6.1719,6.1719,6.1719,6.1719,6.1719,6.1719,6.1719,6.1719,6.1719,6.1719,6.1719,6.1719,6.164,6.1523,6.1484,6.0976,5.9297,5.8984,5.8476,5.6874,5.6484,5.6133,5.5389,0.0,5.5351,5.6094,5.6445,5.7187,5.8633,5.9023,5.9375,5.9765,6.0195,6.0859,6.1953,6.3359,6.4726,6.6055,6.6601,6.7578,6.8984,7.0742,7.164,7.1797,7.2539,7.3437,7.4375,7.4258,7.4258,7.4336,7.3476,7.3086,7.3047,7.2303,7.1989,7.2026,7.2286,7.3293,7.4618,7.4802,7.5852,7.7101,9.1445,9.1793,9.2064,9.2915,9.2644,9.2335,9.2412,9.1251,9.0246,8.9898,8.9047,8.8196,8.7377,8.7222,8.668,8.541,8.4908,8.4289,8.3444,8.3018,8.2393,8.1536,8.1033,8.0027,7.8332,7.5392,7.369,7.3303,7.1065,6.9396,6.8192,6.7733,6.6843,6.5649,6.5649,6.5417,6.4952,6.3632,6.3091,6.2994,6.1784,6.1349,6.1424,6.1544,6.1629,6.1719,6.1719,6.1719,6.1719,6.1719,6.1719,6.1719,6.1719,6.1719,6.1719,6.1719,6.1719,6.1719,6.1719,6.1719,6.1719,6.1719,6.1719,6.1719,6.1719,6.1719,6.1719,6.1719,6.1719,6.1328,6.0078,5.9492,5.8945,5.8125,5.7226,0.0,0.0,5.6719,5.6836,5.7265,5.8086,5.8945,5.9765,6.0273,6.0703,6.1055,6.1523,6.2148,6.2969,6.4726,6.6289,6.7578,6.8476,6.9531,7.0781,7.1601,7.2226,7.2695,7.3125,7.3984,7.5273,7.4805,7.4609,7.4531,7.3672,7.3047,7.2578,7.2187,7.1991,7.2106,7.3035,7.3886,7.4699,7.5584,7.6399,7.7101,9.2025,9.2567,9.2876,9.3495,9.2567,9.1948,9.2598,9.0865,8.9711,9.0323,8.9124,8.8111,8.7918,8.7299,8.6448,8.5372,8.4559,8.3715,8.2864,8.2625,8.22,8.1536,8.0492,7.9337,7.8022,7.5508,7.4077,7.3883,7.1485,6.9783,6.8772,6.7926,6.7036,6.6185,6.6185,6.6185,6.6108,6.4411,6.3715,6.3574,6.1895,6.1301,6.1388,6.152,6.1617,6.1678,6.1679,6.1719,6.1719,6.1719,6.1719,6.1719,6.1719,6.1719,6.1719,6.1719,6.1719,6.1719,6.1719,6.1719,6.1719,6.1719,6.1719,6.1719,6.1719,6.1719,6.1719,6.1719,6.1719,6.1445,6.0547,5.9883,5.9336,5.8945,0.0,0.0,0.0,5.789,5.8047,5.8437,5.9609,6.0547,6.0976,6.1601,6.2109,6.2305,6.3125,6.3594,6.3594,6.5898,6.7695,6.875,7.0234,7.1328,7.1992,7.1992,7.2422,7.3281,7.3515,7.4414,7.5898,7.543,7.5078,7.4844,7.3984,7.3125,7.2305,7.207,7.1992,7.2146,7.3703,7.4439,7.4783,7.6249,7.6948,7.7106,9.0555,9.1251,9.1793,9.187,9.1793,9.1716,9.1793,9.0942,9.0323,9.04,8.9627,8.8814,8.7995,8.7841,8.7144,8.5449,8.4559,8.3715,8.2864,8.2045,8.1575,8.1497,7.9956,7.9028,7.8912,7.6353,7.4651,7.3883,7.2104,7.0363,6.8772,6.7926,6.7036,6.6185,6.6185,6.6185,6.6108,6.4411,6.3715,6.3565,6.1794,6.1177,6.1337,6.1386,6.1478,6.1615,6.1678,6.1719,6.1719,6.1719,6.1719,6.1719,6.1719,6.1719,6.1719,6.1719,6.1719,6.1719,6.1719,6.1719,6.1719,6.1719,6.1719,6.1719,6.1719,6.1719,6.1719,6.1719,6.1719,6.1445,6.0547,6.0351,5.9804,5.8241,0.0,0.0,5.7889,5.789,5.8476,6.0039,6.0312,6.1015,6.2656,6.2851,6.3242,6.4062,6.4922,6.539,6.539,6.7109,6.8867,7.0469,7.1406,7.1953,7.1992,7.1992,7.2422,7.332,7.4101,7.5,7.5937,7.668,7.6562,7.5742,7.4883,7.4023,7.3125,7.2344,7.1992,7.2109,7.304,7.3898,7.4721,7.5594,7.6408,7.712,9.0903,9.1484,9.2025,9.307,9.2373,9.1716,9.1716,9.0555,8.9665,8.9665,8.8931,8.8273,8.7957,8.7415,8.6603,8.541,8.4559,8.3715,8.2864,8.1968,8.1265,8.0724,7.9608,7.8757,7.8216,7.5662,7.4231,7.3883,7.1601,6.9899,6.8772,6.7926,6.7036,6.6185,6.5682,6.5721,6.6031,6.3826,6.3212,6.356,6.1814,6.1195,6.1313,6.1327,6.1463,6.1607,6.1623,6.1675,6.1719,6.1719,6.1719,6.1797,6.2344,6.2148,6.1797,6.2344,6.289,6.332,6.332,6.2539,6.1719,6.1719,6.1719,6.1719,6.1719,6.1719,6.1719,6.1719,6.1719,6.1601,6.1289,6.0742,6.0351,6.0273,0.0,5.8867,5.9375,5.9922,6.0508,6.1133,6.2148,6.3086,6.375,6.3828,6.418,6.5039,6.5898,6.664,6.7187,6.8828,7.0273,7.1484,7.1836,7.2265,7.2812,7.2265,7.2969,7.4922,7.4687,7.5351,7.6719,7.7031,7.6719,7.5898,7.5547,7.4922,7.4062,7.375,7.3594,7.3711,7.4567,7.5113,7.5503,7.6306,7.6806,7.7082,9.0516,9.1135,9.1638,9.2799,9.1832,9.0903,9.0903,8.9704,8.8892,8.9169,8.8428,8.7918,8.7918,8.7106,8.6377,8.5759,8.4714,8.387,8.3251,8.2161,8.111,8.0221,7.9415,7.8602,7.7719,7.5469,7.4154,7.3883,7.1297,6.9711,6.9164,6.7733,6.692,6.6572,6.576,6.5533,6.5682,6.3671,6.3013,6.3173,6.1698,6.1161,6.1237,6.1289,6.1384,6.1512,6.1593,6.1623,6.1677,6.1679,6.1719,6.1797,6.2383,6.2383,6.2265,6.3164,6.3828,6.4297,6.4297,6.3437,6.2539,6.2539,6.2539,6.2539,6.2539,6.2539,6.2539,6.2539,6.2539,6.2422,6.2148,6.1601,6.1211,6.1289,6.0547,6.0195,6.0742,6.1562,6.2226,6.2461,6.3555,6.4414,6.4687,6.4726,6.5195,6.6328,6.6953,6.7812,6.8906,7.0078,7.1094,7.1953,7.1992,7.2422,7.3281,7.2695,7.3437,7.5508,7.5156,7.5625,7.6797,7.707,7.6719,7.5898,7.5898,7.539,7.4609,7.4609,7.4609,7.4687,7.5545,7.5896,7.6013,7.6818,7.7086,7.7126,8.9008,8.982,9.0362,9.04,8.9743,8.9208,8.9208,8.8466,8.8196,8.9092,8.8428,8.7879,8.7879,8.7106,8.6603,8.6603,8.5062,8.4095,8.4095,8.2471,8.111,8.0221,7.9415,7.8602,7.7719,7.6011,7.469,7.3883,7.1297,7.002,6.9943,6.7423,6.6688,6.7462,6.6572,6.576,6.4952,6.4063,6.3173,6.2312,6.1461,6.1118,6.1137,6.1244,6.1306,6.1344,6.152,6.1604,6.1612,6.1678,6.1719,6.1719,6.1719,6.2305,6.3203,6.4062,6.4336,6.4336,6.4336,6.4336,6.4336,6.4297,6.4297,6.4297,6.4297,6.4297,6.4297,6.4297,6.4297,6.4023,6.3164,6.3008,6.2422,6.0703,6.1172,6.1719,6.1719,6.2461,6.3359,6.4219,6.4336,6.4648,6.5547,6.5625,6.6328,6.8086,6.8203,6.8945,7.0625,7.0703,7.1094,7.1992,7.1992,7.2422,7.332,7.332,7.375,7.4609,7.5508,7.5898,7.5937,7.6797,7.6719,7.5898,7.5898,7.543,7.4609,7.4609,7.4609,7.4726,7.5584,7.5897,7.6015,7.6821,7.7091,7.7213,8.8111,8.846,8.8853,8.9433,8.9363,8.8976,8.8389,8.8073,8.7763,8.7422,8.7151,8.699,8.699,8.6758,8.6332,8.5759,8.4714,8.3592,8.2348,8.1807,8.084,7.9415,7.9144,7.8602,7.7719,7.6011,7.469,7.3883,7.1872,7.0601,6.9982,6.8622,6.7849,6.7462,6.6572,6.576,6.4914,6.34,6.2627,6.239,6.2119,6.1655,6.1161,6.184,6.1748,6.1291,6.1412,6.1529,6.1612,6.1678,6.1719,6.1797,6.2422,6.4062,6.5664,6.5312,6.5664,6.6133,6.6133,6.6133,6.582,6.4609,6.4297,6.4297,6.4297,6.4297,6.4297,6.4297,6.4297,6.4219,6.3945,6.3906,6.375,6.3203,6.3359,6.3515,6.3515,6.4258,6.4922,6.5195,6.5742,6.6211,6.6484,6.6523,6.6992,6.8125,6.9297,7.043,7.1562,7.1601,7.1992,7.289,7.2305,7.3008,7.5117,7.3906,7.4023,7.5508,7.5781,7.6211,7.6836,7.707,7.707,7.6797,7.6797,7.664,7.6406,7.6406,7.6406,7.6445,7.6718,7.7187,7.7695,7.73,7.753,7.7956,8.7725,8.7918,8.8073,8.8582,8.8698,8.8389,8.7531,8.7377,8.7183,8.668,8.6603,8.6603,8.6603,8.6603,8.6255,8.5372,8.425,8.2973,8.1575,8.1497,8.0762,7.9067,7.8989,7.8409,7.7216,7.5811,7.4844,7.438,7.2645,7.1523,7.0987,6.9821,6.9009,6.8468,6.7617,6.6766,6.5915,6.4483,6.371,6.34,6.3052,6.2588,6.2162,6.2312,6.2116,6.1694,6.1457,6.1653,6.2049,6.2134,6.242,6.289,6.375,6.5117,6.6367,6.6172,6.6484,6.6992,6.7305,6.7422,6.7148,6.6094,6.5586,6.5312,6.5312,6.5312,6.5312,6.5312,6.5312,6.5234,6.4883,6.4805,6.4687,6.4375,6.4609,6.4805,6.4805,6.5547,6.6094,6.6094,6.6562,6.6914,6.6914,6.7226,6.789,6.9101,7.0469,7.1445,7.1953,7.1992,7.2383,7.3281,7.2773,7.3437,7.5351,7.4687,7.5039,7.6406,7.6406,7.668,7.7187,7.7187,7.7187,7.7187,7.7187,7.7187,7.7187,7.7187,7.7187,7.7226,7.7578,7.8047,7.8437,7.7889,7.7964,7.8312,8.7647,8.7763,8.7763,8.7763,8.7763,8.7531,8.6719,8.6603,8.6603,8.6603,8.6603,8.6603,8.6603,8.6526,8.6145,8.5256,8.3631,8.2355,8.1536,8.1497,8.0762,7.9183,7.9028,7.8216,7.6558,7.5662,7.5193,7.5115,7.3574,7.28,7.2684,7.1026,7.0175,7.0098,6.928,6.8346,6.7346,6.6533,6.5682,6.4836,6.4101,6.3753,6.3637,6.2897,6.2583,6.2418,6.1753,6.2052,6.2822,6.2952,6.3622,6.4531,6.5351,6.5703,6.5976,6.6797,6.7031,6.7226,6.8086,6.8242,6.8203,6.8281,6.7695,6.707,6.6914,6.6914,6.6914,6.6914,6.6914,6.664,6.5859,6.5703,6.5469,6.4648,6.5195,6.5703,6.5703,6.6484,6.7031,6.7031,6.707,6.7109,6.7109,6.789,6.9062,7.0586,7.1523,7.2031,7.2109,7.2109,7.2539,7.3515,7.3476,7.3867,7.4805,7.5547,7.6289,7.707,7.7148,7.7187,7.7187,7.7265,7.7265,7.7226,7.7344,7.7344,7.7226,7.7265,7.7305,7.7383,7.8086,7.8476,7.8594,7.8358,7.8356,7.8394,8.6835,8.6874,8.6874,8.6874,8.6874,8.6835,8.6642,8.6603,8.6603,8.6603,8.6603,8.6603,8.6603,8.5984,8.5256,8.4443,8.278,8.1691,8.1497,8.1497,8.1033,7.9995,7.9337,7.8486,7.7448,7.6552,7.5779,7.5115,7.4728,7.4226,7.3612,7.2529,7.1678,7.0987,7.0136,6.8545,6.6456,6.6263,6.5339,6.4024,6.4527,6.4295,6.3753,6.4256,6.4024,6.339,6.3297,6.3376,6.3599,6.3788,6.4519,6.5351,6.5547,6.6523,6.7656,6.7851,6.793,6.8125,6.8984,6.8711,6.8359,6.9062,6.9023,6.8515,6.7187,6.6914,6.6914,6.6914,6.6914,6.6836,6.664,6.6601,6.6562,6.6367,6.6484,6.6601,6.6601,6.7383,6.793,6.793,6.8476,6.8867,6.8867,6.9648,7.0312,7.0664,7.1523,7.2305,7.2969,7.3008,7.3711,7.5273,7.4687,7.5078,7.6601,7.6133,7.5976,7.6172,7.6875,7.7187,7.7226,7.789,7.7851,7.7265,7.8594,7.8398,7.7265,7.793,7.8203,7.8164,7.7656,7.8281,7.9297,7.7968,7.785,7.8316,8.6603,8.6603,8.6603,8.6603,8.6603,8.6603,8.6603,8.6603,8.6603,8.6603,8.6603,8.6603,8.6603,8.5836,8.4792,8.3599,8.2277,8.1497,8.1497,8.1497,8.111,8.0221,7.9415,7.8602,7.7719,7.6868,7.6171,7.574,7.574,7.5276,7.4458,7.3612,7.2761,7.1872,7.1026,6.9865,6.8584,6.7771,6.692,6.6108,6.5721,6.5301,6.4914,6.4952,6.472,6.4271,6.3903,6.4031,6.4521,6.5099,6.5659,6.6202,6.6592,6.7419,6.8281,6.8672,6.8789,6.8945,6.9844,6.9726,6.9492,6.9961,7.0039,6.9687,6.8398,6.8125,6.8125,6.8125,6.8125,6.8086,6.8125,6.7812,6.7656,6.8047,6.7773,6.7539,6.7539,6.8281,6.8672,6.8242,6.8945,6.9609,6.9961,7.082,7.1484,7.1914,7.2734,7.3437,7.3906,7.3906,7.4531,7.5859,7.5469,7.5859,7.7187,7.6758,7.6719,7.7148,7.7617,7.7812,7.7851,7.8672,7.8828,7.8437,7.9336,7.8984,7.7851,7.832,7.8242,7.789,7.7851,7.8359,7.9023,7.8125,7.7812,7.7772,8.6603,8.6603,8.6603,8.6603,8.6603,8.6603,8.6603,8.6603,8.6603,8.6603,8.6603,8.6603,8.6603,8.572,8.4482,8.2941,8.2006,8.1497,8.1497,8.1497,8.1188,8.0453,7.9492,7.8641,7.7945,7.6906,7.6403,7.6403,7.6403,7.6011,7.5309,7.4496,7.3651,7.2761,7.191,7.1369,7.0987,6.9589,6.8926,6.8656,6.723,6.665,6.6572,6.5915,6.5649,6.5533,6.4836,6.5084,6.587,6.6567,6.6947,6.7211,6.7809,6.8266,6.8788,6.9609,6.9844,7.0078,7.1094,7.125,7.1172,7.1328,7.1367,7.1133,7.0273,6.9765,6.9492,6.9492,6.9453,6.9414,6.9492,6.8906,6.8633,6.9297,6.8867,6.8398,6.8398,6.914,6.9453,6.8711,6.9414,7.0195,7.0859,7.1719,7.2539,7.3242,7.4101,7.4687,7.4805,7.4805,7.5234,7.6094,7.6133,7.6484,7.7187,7.7344,7.7773,7.8515,7.8789,7.8867,7.8711,7.9531,7.9844,7.9726,7.9844,7.9453,7.8672,7.8555,7.8164,7.7656,7.8125,7.8359,7.8476,7.832,7.7812,7.7187,8.6603,8.6603,8.6603,8.6603,8.6603,8.6603,8.6603,8.6603,8.6603,8.6603,8.6603,8.6603,8.6603,8.5217,8.3863,8.2902,8.2006,8.1497,8.1497,8.1497,8.1459,8.1343,7.984,7.895,7.8834,7.7216,7.6403,7.6403,7.6403,7.6326,7.621,7.5347,7.4496,7.369,7.28,7.1606,7.0175,6.9943,6.9435,6.8772,6.854,6.8462,6.8424,6.8346,6.8269,6.8269,6.8153,6.8214,6.8296,6.7732,6.8106,6.869,6.8146,6.9066,7.0443,7.1366,7.164,7.1992,7.3633,7.3515,7.3125,7.3867,7.4062,7.3828,7.2969,7.1094,6.9492,6.9414,6.9414,6.9414,6.9492,6.9375,6.9297,6.9453,6.9336,6.9258,6.9258,7.0,7.0508,7.039,7.1133,7.1719,7.1797,7.2617,7.3164,7.3281,7.4101,7.4922,7.5664,7.5703,7.6133,7.6992,7.7031,7.707,7.7187,7.7969,7.8398,7.8515,7.9961,8.0273,7.957,8.0429,8.039,7.9726,8.0508,8.0312,7.9492,7.8789,7.8828,7.9219,7.789,7.7851,7.8398,7.7656,7.7305,7.7187,8.6603,8.6603,8.6603,8.6603,8.6603,8.6603,8.6603,8.6603,8.6603,8.6603,8.6603,8.6603,8.6603,8.5101,8.3747,8.2864,8.2006,8.1497,8.1497,8.1497,8.1497,8.1497,8.0304,7.9453,7.9028,7.7751,7.6906,7.6403,7.6403,7.6403,7.6365,7.5508,7.4651,7.3844,7.2993,7.191,7.0678,7.0214,6.9788,6.9435,6.8965,6.881,6.881,6.881,6.881,6.881,6.881,6.8834,6.8796,6.8447,6.8333,6.8401,6.9053,6.9543,7.0159,7.1505,7.1949,7.2265,7.3515,7.3594,7.3515,7.4375,7.4609,7.4492,7.4101,7.3164,7.207,7.1055,7.0859,7.0859,7.0898,7.0469,7.0312,7.082,7.0469,7.0117,7.0117,7.0898,7.1445,7.1445,7.1758,7.2187,7.2695,7.3515,7.4219,7.4726,7.5547,7.6211,7.6601,7.664,7.6797,7.7187,7.7187,7.7187,7.7187,7.8047,7.8711,7.918,8.039,8.0781,8.0469,8.1328,8.1523,8.1133,8.1054,8.0508,7.9648,7.8828,7.8437,7.8281,7.8008,7.8164,7.8398,7.7539,7.7187,7.7187]}]]